<?xml version="1.0" encoding="UTF-8" standalone="no" ?>
<gpx xmlns="http://www.topografix.com/GPX/1/1" xmlns:xsi="http://www.w3.org/2001/XMLSchema-instance" xsi:schemaLocation="http://www.topografix.com/GPX/1/1 http://www.topografix.com/GPX/1/1/gpx.xsd" version="1.1" creator="VisuGPX - https://www.visugpx.com">
  <metadata>
    <name>bagard 2011-12</name>
    <desc><![CDATA[Très jolie balade, courte et intense. Du dénivelé, de la technique.]]></desc>
  </metadata>
  <trk>
    <name><![CDATA[10-DEC-11 04:25:50 PM]]></name>
    <trkseg>
      <trkpt lat="44.07469" lon="4.0521">
        <ele>130.4</ele>
        <time>2011-12-10T12:51:54Z</time>
      </trkpt>
      <trkpt lat="44.0748" lon="4.05209">
        <ele>132.8</ele>
        <time>2011-12-10T12:51:57Z</time>
      </trkpt>
      <trkpt lat="44.07492" lon="4.05207">
        <ele>137.13</ele>
        <time>2011-12-10T12:52:01Z</time>
      </trkpt>
      <trkpt lat="44.07503" lon="4.05204">
        <ele>140.97</ele>
        <time>2011-12-10T12:52:05Z</time>
      </trkpt>
      <trkpt lat="44.07516" lon="4.05202">
        <ele>144.34</ele>
        <time>2011-12-10T12:52:09Z</time>
      </trkpt>
      <trkpt lat="44.07527" lon="4.05199">
        <ele>147.22</ele>
        <time>2011-12-10T12:52:13Z</time>
      </trkpt>
      <trkpt lat="44.07533" lon="4.05198">
        <ele>148.66</ele>
        <time>2011-12-10T12:52:15Z</time>
      </trkpt>
      <trkpt lat="44.07548" lon="4.05196">
        <ele>152.03</ele>
        <time>2011-12-10T12:52:20Z</time>
      </trkpt>
      <trkpt lat="44.07556" lon="4.05199">
        <ele>153.95</ele>
        <time>2011-12-10T12:52:23Z</time>
      </trkpt>
      <trkpt lat="44.07568" lon="4.05216">
        <ele>156.83</ele>
        <time>2011-12-10T12:52:29Z</time>
      </trkpt>
      <trkpt lat="44.07575" lon="4.05248">
        <ele>160.2</ele>
        <time>2011-12-10T12:52:36Z</time>
      </trkpt>
      <trkpt lat="44.07602" lon="4.05263">
        <ele>163.56</ele>
        <time>2011-12-10T12:52:45Z</time>
      </trkpt>
      <trkpt lat="44.07605" lon="4.05263">
        <ele>163.56</ele>
        <time>2011-12-10T12:52:46Z</time>
      </trkpt>
      <trkpt lat="44.07614" lon="4.05263">
        <ele>165.48</ele>
        <time>2011-12-10T12:52:49Z</time>
      </trkpt>
      <trkpt lat="44.07629" lon="4.05264">
        <ele>167.41</ele>
        <time>2011-12-10T12:52:54Z</time>
      </trkpt>
      <trkpt lat="44.07658" lon="4.05283">
        <ele>170.29</ele>
        <time>2011-12-10T12:53:05Z</time>
      </trkpt>
      <trkpt lat="44.07662" lon="4.05287">
        <ele>171.73</ele>
        <time>2011-12-10T12:53:07Z</time>
      </trkpt>
      <trkpt lat="44.07697" lon="4.05311">
        <ele>175.1</ele>
        <time>2011-12-10T12:53:22Z</time>
      </trkpt>
      <trkpt lat="44.07738" lon="4.05328">
        <ele>175.58</ele>
        <time>2011-12-10T12:53:35Z</time>
      </trkpt>
      <trkpt lat="44.07751" lon="4.05328">
        <ele>175.1</ele>
        <time>2011-12-10T12:53:38Z</time>
      </trkpt>
      <trkpt lat="44.07756" lon="4.05327">
        <ele>175.1</ele>
        <time>2011-12-10T12:53:39Z</time>
      </trkpt>
      <trkpt lat="44.07761" lon="4.05325">
        <ele>174.62</ele>
        <time>2011-12-10T12:53:40Z</time>
      </trkpt>
      <trkpt lat="44.07766" lon="4.05323">
        <ele>175.1</ele>
        <time>2011-12-10T12:53:41Z</time>
      </trkpt>
      <trkpt lat="44.07771" lon="4.05321">
        <ele>174.62</ele>
        <time>2011-12-10T12:53:42Z</time>
      </trkpt>
      <trkpt lat="44.07776" lon="4.05318">
        <ele>174.62</ele>
        <time>2011-12-10T12:53:43Z</time>
      </trkpt>
      <trkpt lat="44.07781" lon="4.05316">
        <ele>174.62</ele>
        <time>2011-12-10T12:53:44Z</time>
      </trkpt>
      <trkpt lat="44.07786" lon="4.05313">
        <ele>175.1</ele>
        <time>2011-12-10T12:53:45Z</time>
      </trkpt>
      <trkpt lat="44.07826" lon="4.05298">
        <ele>174.62</ele>
        <time>2011-12-10T12:53:53Z</time>
      </trkpt>
      <trkpt lat="44.07864" lon="4.05284">
        <ele>175.1</ele>
        <time>2011-12-10T12:54:01Z</time>
      </trkpt>
      <trkpt lat="44.07873" lon="4.05283">
        <ele>175.1</ele>
        <time>2011-12-10T12:54:03Z</time>
      </trkpt>
      <trkpt lat="44.07877" lon="4.05283">
        <ele>175.58</ele>
        <time>2011-12-10T12:54:04Z</time>
      </trkpt>
      <trkpt lat="44.0788" lon="4.05285">
        <ele>176.06</ele>
        <time>2011-12-10T12:54:05Z</time>
      </trkpt>
      <trkpt lat="44.07908" lon="4.05309">
        <ele>177.5</ele>
        <time>2011-12-10T12:54:16Z</time>
      </trkpt>
      <trkpt lat="44.07927" lon="4.05337">
        <ele>178.94</ele>
        <time>2011-12-10T12:54:27Z</time>
      </trkpt>
      <trkpt lat="44.07943" lon="4.05351">
        <ele>180.87</ele>
        <time>2011-12-10T12:54:35Z</time>
      </trkpt>
      <trkpt lat="44.07977" lon="4.05351">
        <ele>182.79</ele>
        <time>2011-12-10T12:54:48Z</time>
      </trkpt>
      <trkpt lat="44.07987" lon="4.05343">
        <ele>184.71</ele>
        <time>2011-12-10T12:54:54Z</time>
      </trkpt>
      <trkpt lat="44.08002" lon="4.05335">
        <ele>186.63</ele>
        <time>2011-12-10T12:55:02Z</time>
      </trkpt>
      <trkpt lat="44.08007" lon="4.05332">
        <ele>186.63</ele>
        <time>2011-12-10T12:55:05Z</time>
      </trkpt>
      <trkpt lat="44.0803" lon="4.05351">
        <ele>184.23</ele>
        <time>2011-12-10T12:55:15Z</time>
      </trkpt>
      <trkpt lat="44.08038" lon="4.05361">
        <ele>182.31</ele>
        <time>2011-12-10T12:55:24Z</time>
      </trkpt>
      <trkpt lat="44.08039" lon="4.05366">
        <ele>183.75</ele>
        <time>2011-12-10T12:55:31Z</time>
      </trkpt>
      <trkpt lat="44.0804" lon="4.05369">
        <ele>183.75</ele>
        <time>2011-12-10T12:55:33Z</time>
      </trkpt>
      <trkpt lat="44.08041" lon="4.05372">
        <ele>183.75</ele>
        <time>2011-12-10T12:55:34Z</time>
      </trkpt>
      <trkpt lat="44.08041" lon="4.05375">
        <ele>184.71</ele>
        <time>2011-12-10T12:55:35Z</time>
      </trkpt>
      <trkpt lat="44.08043" lon="4.05381">
        <ele>186.63</ele>
        <time>2011-12-10T12:55:45Z</time>
      </trkpt>
      <trkpt lat="44.08045" lon="4.05385">
        <ele>187.59</ele>
        <time>2011-12-10T12:55:53Z</time>
      </trkpt>
      <trkpt lat="44.08046" lon="4.05391">
        <ele>188.56</ele>
        <time>2011-12-10T12:55:56Z</time>
      </trkpt>
      <trkpt lat="44.08046" lon="4.05393">
        <ele>188.08</ele>
        <time>2011-12-10T12:55:57Z</time>
      </trkpt>
      <trkpt lat="44.08046" lon="4.05396">
        <ele>188.56</ele>
        <time>2011-12-10T12:55:58Z</time>
      </trkpt>
      <trkpt lat="44.08046" lon="4.05399">
        <ele>188.08</ele>
        <time>2011-12-10T12:55:59Z</time>
      </trkpt>
      <trkpt lat="44.08046" lon="4.05401">
        <ele>188.08</ele>
        <time>2011-12-10T12:56:00Z</time>
      </trkpt>
      <trkpt lat="44.08046" lon="4.05404">
        <ele>187.59</ele>
        <time>2011-12-10T12:56:01Z</time>
      </trkpt>
      <trkpt lat="44.08046" lon="4.05407">
        <ele>188.08</ele>
        <time>2011-12-10T12:56:02Z</time>
      </trkpt>
      <trkpt lat="44.08045" lon="4.0541">
        <ele>188.56</ele>
        <time>2011-12-10T12:56:03Z</time>
      </trkpt>
      <trkpt lat="44.08044" lon="4.05414">
        <ele>189.04</ele>
        <time>2011-12-10T12:56:04Z</time>
      </trkpt>
      <trkpt lat="44.08042" lon="4.05416">
        <ele>188.08</ele>
        <time>2011-12-10T12:56:05Z</time>
      </trkpt>
      <trkpt lat="44.0804" lon="4.05418">
        <ele>188.08</ele>
        <time>2011-12-10T12:56:06Z</time>
      </trkpt>
      <trkpt lat="44.08038" lon="4.0542">
        <ele>188.56</ele>
        <time>2011-12-10T12:56:07Z</time>
      </trkpt>
      <trkpt lat="44.08037" lon="4.05423">
        <ele>188.56</ele>
        <time>2011-12-10T12:56:08Z</time>
      </trkpt>
      <trkpt lat="44.08036" lon="4.05426">
        <ele>188.56</ele>
        <time>2011-12-10T12:56:09Z</time>
      </trkpt>
      <trkpt lat="44.08035" lon="4.05429">
        <ele>188.56</ele>
        <time>2011-12-10T12:56:10Z</time>
      </trkpt>
      <trkpt lat="44.08034" lon="4.05432">
        <ele>188.56</ele>
        <time>2011-12-10T12:56:11Z</time>
      </trkpt>
      <trkpt lat="44.08033" lon="4.05435">
        <ele>189.52</ele>
        <time>2011-12-10T12:56:12Z</time>
      </trkpt>
      <trkpt lat="44.08034" lon="4.05449">
        <ele>190.96</ele>
        <time>2011-12-10T12:56:16Z</time>
      </trkpt>
      <trkpt lat="44.08035" lon="4.05457">
        <ele>190.96</ele>
        <time>2011-12-10T12:56:19Z</time>
      </trkpt>
      <trkpt lat="44.08035" lon="4.0546">
        <ele>191.44</ele>
        <time>2011-12-10T12:56:20Z</time>
      </trkpt>
      <trkpt lat="44.08036" lon="4.05463">
        <ele>190.96</ele>
        <time>2011-12-10T12:56:21Z</time>
      </trkpt>
      <trkpt lat="44.08037" lon="4.05467">
        <ele>190.96</ele>
        <time>2011-12-10T12:56:22Z</time>
      </trkpt>
      <trkpt lat="44.08038" lon="4.05471">
        <ele>190.48</ele>
        <time>2011-12-10T12:56:23Z</time>
      </trkpt>
      <trkpt lat="44.0804" lon="4.05474">
        <ele>190.48</ele>
        <time>2011-12-10T12:56:24Z</time>
      </trkpt>
      <trkpt lat="44.08042" lon="4.05477">
        <ele>190</ele>
        <time>2011-12-10T12:56:25Z</time>
      </trkpt>
      <trkpt lat="44.08056" lon="4.05493">
        <ele>189.04</ele>
        <time>2011-12-10T12:56:33Z</time>
      </trkpt>
      <trkpt lat="44.08062" lon="4.05502">
        <ele>187.59</ele>
        <time>2011-12-10T12:56:44Z</time>
      </trkpt>
      <trkpt lat="44.08063" lon="4.05506">
        <ele>186.15</ele>
        <time>2011-12-10T12:56:45Z</time>
      </trkpt>
      <trkpt lat="44.08065" lon="4.0551">
        <ele>185.19</ele>
        <time>2011-12-10T12:56:46Z</time>
      </trkpt>
      <trkpt lat="44.08068" lon="4.05513">
        <ele>183.75</ele>
        <time>2011-12-10T12:56:47Z</time>
      </trkpt>
      <trkpt lat="44.0807" lon="4.05516">
        <ele>183.27</ele>
        <time>2011-12-10T12:56:48Z</time>
      </trkpt>
      <trkpt lat="44.08071" lon="4.05517">
        <ele>182.79</ele>
        <time>2011-12-10T12:56:49Z</time>
      </trkpt>
      <trkpt lat="44.08073" lon="4.05518">
        <ele>182.79</ele>
        <time>2011-12-10T12:56:50Z</time>
      </trkpt>
      <trkpt lat="44.08075" lon="4.05519">
        <ele>181.83</ele>
        <time>2011-12-10T12:56:51Z</time>
      </trkpt>
      <trkpt lat="44.08075" lon="4.05522">
        <ele>181.83</ele>
        <time>2011-12-10T12:56:52Z</time>
      </trkpt>
      <trkpt lat="44.08075" lon="4.05524">
        <ele>182.31</ele>
        <time>2011-12-10T12:56:53Z</time>
      </trkpt>
      <trkpt lat="44.08076" lon="4.05527">
        <ele>181.83</ele>
        <time>2011-12-10T12:56:54Z</time>
      </trkpt>
      <trkpt lat="44.08076" lon="4.0553">
        <ele>180.87</ele>
        <time>2011-12-10T12:56:55Z</time>
      </trkpt>
      <trkpt lat="44.08077" lon="4.05533">
        <ele>180.87</ele>
        <time>2011-12-10T12:56:56Z</time>
      </trkpt>
      <trkpt lat="44.08077" lon="4.05536">
        <ele>181.35</ele>
        <time>2011-12-10T12:56:57Z</time>
      </trkpt>
      <trkpt lat="44.08077" lon="4.05539">
        <ele>180.87</ele>
        <time>2011-12-10T12:56:58Z</time>
      </trkpt>
      <trkpt lat="44.08077" lon="4.05542">
        <ele>180.38</ele>
        <time>2011-12-10T12:56:59Z</time>
      </trkpt>
      <trkpt lat="44.08078" lon="4.05545">
        <ele>179.9</ele>
        <time>2011-12-10T12:57:00Z</time>
      </trkpt>
      <trkpt lat="44.0808" lon="4.05548">
        <ele>180.38</ele>
        <time>2011-12-10T12:57:01Z</time>
      </trkpt>
      <trkpt lat="44.08082" lon="4.05551">
        <ele>179.42</ele>
        <time>2011-12-10T12:57:02Z</time>
      </trkpt>
      <trkpt lat="44.08086" lon="4.05554">
        <ele>178.94</ele>
        <time>2011-12-10T12:57:03Z</time>
      </trkpt>
      <trkpt lat="44.0809" lon="4.05556">
        <ele>178.94</ele>
        <time>2011-12-10T12:57:04Z</time>
      </trkpt>
      <trkpt lat="44.08093" lon="4.05556">
        <ele>178.94</ele>
        <time>2011-12-10T12:57:05Z</time>
      </trkpt>
      <trkpt lat="44.08096" lon="4.05556">
        <ele>178.46</ele>
        <time>2011-12-10T12:57:06Z</time>
      </trkpt>
      <trkpt lat="44.08119" lon="4.05557">
        <ele>179.9</ele>
        <time>2011-12-10T12:57:18Z</time>
      </trkpt>
      <trkpt lat="44.08126" lon="4.0556">
        <ele>179.9</ele>
        <time>2011-12-10T12:57:30Z</time>
      </trkpt>
      <trkpt lat="44.08128" lon="4.05561">
        <ele>180.38</ele>
        <time>2011-12-10T12:57:31Z</time>
      </trkpt>
      <trkpt lat="44.0813" lon="4.05563">
        <ele>180.38</ele>
        <time>2011-12-10T12:57:32Z</time>
      </trkpt>
      <trkpt lat="44.08143" lon="4.05571">
        <ele>178.94</ele>
        <time>2011-12-10T12:57:36Z</time>
      </trkpt>
      <trkpt lat="44.08148" lon="4.05572">
        <ele>179.42</ele>
        <time>2011-12-10T12:57:37Z</time>
      </trkpt>
      <trkpt lat="44.08152" lon="4.05574">
        <ele>178.94</ele>
        <time>2011-12-10T12:57:38Z</time>
      </trkpt>
      <trkpt lat="44.08162" lon="4.05578">
        <ele>178.94</ele>
        <time>2011-12-10T12:57:40Z</time>
      </trkpt>
      <trkpt lat="44.08167" lon="4.05579">
        <ele>179.42</ele>
        <time>2011-12-10T12:57:41Z</time>
      </trkpt>
      <trkpt lat="44.08178" lon="4.05584">
        <ele>177.5</ele>
        <time>2011-12-10T12:57:44Z</time>
      </trkpt>
      <trkpt lat="44.08201" lon="4.05585">
        <ele>177.02</ele>
        <time>2011-12-10T12:57:50Z</time>
      </trkpt>
      <trkpt lat="44.08206" lon="4.05584">
        <ele>177.02</ele>
        <time>2011-12-10T12:57:51Z</time>
      </trkpt>
      <trkpt lat="44.0823" lon="4.05582">
        <ele>175.58</ele>
        <time>2011-12-10T12:57:56Z</time>
      </trkpt>
      <trkpt lat="44.08235" lon="4.05583">
        <ele>176.54</ele>
        <time>2011-12-10T12:57:57Z</time>
      </trkpt>
      <trkpt lat="44.08245" lon="4.05582">
        <ele>176.06</ele>
        <time>2011-12-10T12:57:59Z</time>
      </trkpt>
      <trkpt lat="44.0825" lon="4.0558">
        <ele>175.58</ele>
        <time>2011-12-10T12:58:00Z</time>
      </trkpt>
      <trkpt lat="44.08255" lon="4.05576">
        <ele>176.06</ele>
        <time>2011-12-10T12:58:01Z</time>
      </trkpt>
      <trkpt lat="44.08259" lon="4.05572">
        <ele>176.54</ele>
        <time>2011-12-10T12:58:02Z</time>
      </trkpt>
      <trkpt lat="44.08263" lon="4.05567">
        <ele>176.54</ele>
        <time>2011-12-10T12:58:03Z</time>
      </trkpt>
      <trkpt lat="44.08266" lon="4.05562">
        <ele>176.06</ele>
        <time>2011-12-10T12:58:04Z</time>
      </trkpt>
      <trkpt lat="44.08269" lon="4.05558">
        <ele>176.06</ele>
        <time>2011-12-10T12:58:05Z</time>
      </trkpt>
      <trkpt lat="44.08304" lon="4.05514">
        <ele>176.54</ele>
        <time>2011-12-10T12:58:18Z</time>
      </trkpt>
      <trkpt lat="44.08337" lon="4.05472">
        <ele>177.5</ele>
        <time>2011-12-10T12:58:29Z</time>
      </trkpt>
      <trkpt lat="44.08375" lon="4.05426">
        <ele>179.9</ele>
        <time>2011-12-10T12:58:44Z</time>
      </trkpt>
      <trkpt lat="44.08404" lon="4.05391">
        <ele>182.79</ele>
        <time>2011-12-10T12:58:58Z</time>
      </trkpt>
      <trkpt lat="44.08418" lon="4.05374">
        <ele>184.71</ele>
        <time>2011-12-10T12:59:05Z</time>
      </trkpt>
      <trkpt lat="44.08432" lon="4.05358">
        <ele>187.59</ele>
        <time>2011-12-10T12:59:12Z</time>
      </trkpt>
      <trkpt lat="44.08448" lon="4.05338">
        <ele>190.96</ele>
        <time>2011-12-10T12:59:21Z</time>
      </trkpt>
      <trkpt lat="44.0845" lon="4.05336">
        <ele>191.92</ele>
        <time>2011-12-10T12:59:22Z</time>
      </trkpt>
      <trkpt lat="44.08453" lon="4.05335">
        <ele>191.92</ele>
        <time>2011-12-10T12:59:23Z</time>
      </trkpt>
      <trkpt lat="44.08455" lon="4.05335">
        <ele>192.4</ele>
        <time>2011-12-10T12:59:24Z</time>
      </trkpt>
      <trkpt lat="44.08486" lon="4.05329">
        <ele>191.44</ele>
        <time>2011-12-10T12:59:35Z</time>
      </trkpt>
      <trkpt lat="44.0849" lon="4.05328">
        <ele>191.92</ele>
        <time>2011-12-10T12:59:36Z</time>
      </trkpt>
      <trkpt lat="44.08494" lon="4.05326">
        <ele>191.92</ele>
        <time>2011-12-10T12:59:37Z</time>
      </trkpt>
      <trkpt lat="44.08505" lon="4.05317">
        <ele>190.48</ele>
        <time>2011-12-10T12:59:40Z</time>
      </trkpt>
      <trkpt lat="44.08509" lon="4.05315">
        <ele>190.96</ele>
        <time>2011-12-10T12:59:41Z</time>
      </trkpt>
      <trkpt lat="44.08512" lon="4.05312">
        <ele>190.48</ele>
        <time>2011-12-10T12:59:42Z</time>
      </trkpt>
      <trkpt lat="44.08516" lon="4.05311">
        <ele>190.48</ele>
        <time>2011-12-10T12:59:43Z</time>
      </trkpt>
      <trkpt lat="44.08521" lon="4.05311">
        <ele>189.52</ele>
        <time>2011-12-10T12:59:44Z</time>
      </trkpt>
      <trkpt lat="44.08526" lon="4.0531">
        <ele>189.04</ele>
        <time>2011-12-10T12:59:45Z</time>
      </trkpt>
      <trkpt lat="44.08536" lon="4.05306">
        <ele>187.59</ele>
        <time>2011-12-10T12:59:47Z</time>
      </trkpt>
      <trkpt lat="44.0854" lon="4.05304">
        <ele>187.11</ele>
        <time>2011-12-10T12:59:48Z</time>
      </trkpt>
      <trkpt lat="44.08544" lon="4.05302">
        <ele>187.59</ele>
        <time>2011-12-10T12:59:49Z</time>
      </trkpt>
      <trkpt lat="44.08548" lon="4.05299">
        <ele>187.59</ele>
        <time>2011-12-10T12:59:50Z</time>
      </trkpt>
      <trkpt lat="44.08552" lon="4.05295">
        <ele>187.11</ele>
        <time>2011-12-10T12:59:51Z</time>
      </trkpt>
      <trkpt lat="44.08561" lon="4.05286">
        <ele>186.15</ele>
        <time>2011-12-10T12:59:54Z</time>
      </trkpt>
      <trkpt lat="44.08563" lon="4.05285">
        <ele>186.15</ele>
        <time>2011-12-10T12:59:55Z</time>
      </trkpt>
      <trkpt lat="44.08564" lon="4.05284">
        <ele>186.63</ele>
        <time>2011-12-10T12:59:56Z</time>
      </trkpt>
      <trkpt lat="44.08566" lon="4.05284">
        <ele>186.63</ele>
        <time>2011-12-10T12:59:57Z</time>
      </trkpt>
      <trkpt lat="44.08567" lon="4.05285">
        <ele>186.63</ele>
        <time>2011-12-10T12:59:58Z</time>
      </trkpt>
      <trkpt lat="44.08579" lon="4.05293">
        <ele>184.23</ele>
        <time>2011-12-10T13:00:03Z</time>
      </trkpt>
      <trkpt lat="44.08595" lon="4.05272">
        <ele>185.67</ele>
        <time>2011-12-10T13:00:12Z</time>
      </trkpt>
      <trkpt lat="44.0862" lon="4.05255">
        <ele>189.04</ele>
        <time>2011-12-10T13:00:23Z</time>
      </trkpt>
      <trkpt lat="44.08635" lon="4.05254">
        <ele>189.52</ele>
        <time>2011-12-10T13:00:30Z</time>
      </trkpt>
      <trkpt lat="44.08641" lon="4.05264">
        <ele>189.52</ele>
        <time>2011-12-10T13:00:41Z</time>
      </trkpt>
      <trkpt lat="44.08641" lon="4.05271">
        <ele>190</ele>
        <time>2011-12-10T13:00:46Z</time>
      </trkpt>
      <trkpt lat="44.08641" lon="4.05289">
        <ele>190</ele>
        <time>2011-12-10T13:00:54Z</time>
      </trkpt>
      <trkpt lat="44.08635" lon="4.05299">
        <ele>190</ele>
        <time>2011-12-10T13:01:05Z</time>
      </trkpt>
      <trkpt lat="44.08635" lon="4.05299">
        <ele>189.52</ele>
        <time>2011-12-10T13:01:27Z</time>
      </trkpt>
      <trkpt lat="44.08634" lon="4.053">
        <ele>190</ele>
        <time>2011-12-10T13:01:44Z</time>
      </trkpt>
      <trkpt lat="44.08641" lon="4.05298">
        <ele>189.52</ele>
        <time>2011-12-10T13:01:51Z</time>
      </trkpt>
      <trkpt lat="44.0865" lon="4.05292">
        <ele>190.48</ele>
        <time>2011-12-10T13:01:54Z</time>
      </trkpt>
      <trkpt lat="44.08676" lon="4.0528">
        <ele>194.32</ele>
        <time>2011-12-10T13:02:05Z</time>
      </trkpt>
      <trkpt lat="44.08691" lon="4.05273">
        <ele>197.21</ele>
        <time>2011-12-10T13:02:12Z</time>
      </trkpt>
      <trkpt lat="44.08713" lon="4.05252">
        <ele>201.05</ele>
        <time>2011-12-10T13:02:23Z</time>
      </trkpt>
      <trkpt lat="44.08717" lon="4.05251">
        <ele>201.53</ele>
        <time>2011-12-10T13:02:25Z</time>
      </trkpt>
      <trkpt lat="44.08733" lon="4.05251">
        <ele>204.9</ele>
        <time>2011-12-10T13:02:32Z</time>
      </trkpt>
      <trkpt lat="44.08751" lon="4.0525">
        <ele>207.3</ele>
        <time>2011-12-10T13:02:41Z</time>
      </trkpt>
      <trkpt lat="44.08754" lon="4.0526">
        <ele>206.34</ele>
        <time>2011-12-10T13:02:45Z</time>
      </trkpt>
      <trkpt lat="44.08768" lon="4.0528">
        <ele>204.42</ele>
        <time>2011-12-10T13:02:52Z</time>
      </trkpt>
      <trkpt lat="44.08777" lon="4.05284">
        <ele>204.42</ele>
        <time>2011-12-10T13:02:54Z</time>
      </trkpt>
      <trkpt lat="44.08789" lon="4.05293">
        <ele>203.46</ele>
        <time>2011-12-10T13:02:57Z</time>
      </trkpt>
      <trkpt lat="44.08814" lon="4.05321">
        <ele>203.46</ele>
        <time>2011-12-10T13:03:04Z</time>
      </trkpt>
      <trkpt lat="44.08826" lon="4.05344">
        <ele>202.49</ele>
        <time>2011-12-10T13:03:09Z</time>
      </trkpt>
      <trkpt lat="44.0883" lon="4.05356">
        <ele>202.01</ele>
        <time>2011-12-10T13:03:11Z</time>
      </trkpt>
      <trkpt lat="44.08835" lon="4.0537">
        <ele>200.57</ele>
        <time>2011-12-10T13:03:13Z</time>
      </trkpt>
      <trkpt lat="44.08837" lon="4.05384">
        <ele>202.01</ele>
        <time>2011-12-10T13:03:20Z</time>
      </trkpt>
      <trkpt lat="44.08837" lon="4.05384">
        <ele>200.57</ele>
        <time>2011-12-10T13:03:23Z</time>
      </trkpt>
      <trkpt lat="44.08838" lon="4.05388">
        <ele>200.57</ele>
        <time>2011-12-10T13:03:31Z</time>
      </trkpt>
      <trkpt lat="44.08852" lon="4.05426">
        <ele>198.65</ele>
        <time>2011-12-10T13:03:41Z</time>
      </trkpt>
      <trkpt lat="44.08857" lon="4.05438">
        <ele>198.65</ele>
        <time>2011-12-10T13:03:43Z</time>
      </trkpt>
      <trkpt lat="44.08869" lon="4.05469">
        <ele>198.17</ele>
        <time>2011-12-10T13:03:48Z</time>
      </trkpt>
      <trkpt lat="44.08871" lon="4.05489">
        <ele>200.09</ele>
        <time>2011-12-10T13:03:52Z</time>
      </trkpt>
      <trkpt lat="44.08877" lon="4.05499">
        <ele>199.61</ele>
        <time>2011-12-10T13:03:56Z</time>
      </trkpt>
      <trkpt lat="44.08884" lon="4.05504">
        <ele>197.21</ele>
        <time>2011-12-10T13:04:00Z</time>
      </trkpt>
      <trkpt lat="44.08889" lon="4.05503">
        <ele>195.28</ele>
        <time>2011-12-10T13:04:02Z</time>
      </trkpt>
      <trkpt lat="44.08894" lon="4.05504">
        <ele>191.92</ele>
        <time>2011-12-10T13:04:06Z</time>
      </trkpt>
      <trkpt lat="44.08896" lon="4.05503">
        <ele>190.96</ele>
        <time>2011-12-10T13:04:07Z</time>
      </trkpt>
      <trkpt lat="44.08905" lon="4.05501">
        <ele>188.08</ele>
        <time>2011-12-10T13:04:11Z</time>
      </trkpt>
      <trkpt lat="44.08917" lon="4.05501">
        <ele>185.67</ele>
        <time>2011-12-10T13:04:15Z</time>
      </trkpt>
      <trkpt lat="44.08924" lon="4.05501">
        <ele>183.75</ele>
        <time>2011-12-10T13:04:17Z</time>
      </trkpt>
      <trkpt lat="44.08946" lon="4.05525">
        <ele>183.75</ele>
        <time>2011-12-10T13:04:24Z</time>
      </trkpt>
      <trkpt lat="44.0895" lon="4.05537">
        <ele>182.79</ele>
        <time>2011-12-10T13:04:27Z</time>
      </trkpt>
      <trkpt lat="44.08956" lon="4.05546">
        <ele>181.83</ele>
        <time>2011-12-10T13:04:29Z</time>
      </trkpt>
      <trkpt lat="44.08962" lon="4.05553">
        <ele>180.38</ele>
        <time>2011-12-10T13:04:32Z</time>
      </trkpt>
      <trkpt lat="44.08982" lon="4.05566">
        <ele>176.06</ele>
        <time>2011-12-10T13:04:39Z</time>
      </trkpt>
      <trkpt lat="44.08989" lon="4.05573">
        <ele>175.1</ele>
        <time>2011-12-10T13:04:41Z</time>
      </trkpt>
      <trkpt lat="44.08993" lon="4.05577">
        <ele>174.14</ele>
        <time>2011-12-10T13:04:42Z</time>
      </trkpt>
      <trkpt lat="44.09003" lon="4.05596">
        <ele>173.17</ele>
        <time>2011-12-10T13:04:46Z</time>
      </trkpt>
      <trkpt lat="44.09008" lon="4.05603">
        <ele>171.25</ele>
        <time>2011-12-10T13:04:48Z</time>
      </trkpt>
      <trkpt lat="44.09012" lon="4.0562">
        <ele>170.77</ele>
        <time>2011-12-10T13:04:53Z</time>
      </trkpt>
      <trkpt lat="44.09012" lon="4.05625">
        <ele>170.29</ele>
        <time>2011-12-10T13:05:04Z</time>
      </trkpt>
      <trkpt lat="44.09015" lon="4.05628">
        <ele>168.85</ele>
        <time>2011-12-10T13:05:17Z</time>
      </trkpt>
      <trkpt lat="44.09018" lon="4.05629">
        <ele>167.89</ele>
        <time>2011-12-10T13:05:19Z</time>
      </trkpt>
      <trkpt lat="44.09019" lon="4.0563">
        <ele>167.89</ele>
        <time>2011-12-10T13:05:21Z</time>
      </trkpt>
      <trkpt lat="44.09028" lon="4.05633">
        <ele>166.93</ele>
        <time>2011-12-10T13:05:26Z</time>
      </trkpt>
      <trkpt lat="44.09031" lon="4.05637">
        <ele>165.96</ele>
        <time>2011-12-10T13:05:29Z</time>
      </trkpt>
      <trkpt lat="44.09038" lon="4.0564">
        <ele>165</ele>
        <time>2011-12-10T13:05:40Z</time>
      </trkpt>
      <trkpt lat="44.09038" lon="4.0564">
        <ele>165.96</ele>
        <time>2011-12-10T13:05:57Z</time>
      </trkpt>
      <trkpt lat="44.09043" lon="4.05629">
        <ele>165</ele>
        <time>2011-12-10T13:06:09Z</time>
      </trkpt>
      <trkpt lat="44.09043" lon="4.05629">
        <ele>165.48</ele>
        <time>2011-12-10T13:06:28Z</time>
      </trkpt>
      <trkpt lat="44.09044" lon="4.05627">
        <ele>165</ele>
        <time>2011-12-10T13:06:51Z</time>
      </trkpt>
      <trkpt lat="44.09049" lon="4.05616">
        <ele>167.41</ele>
        <time>2011-12-10T13:06:55Z</time>
      </trkpt>
      <trkpt lat="44.09058" lon="4.05593">
        <ele>168.37</ele>
        <time>2011-12-10T13:07:02Z</time>
      </trkpt>
      <trkpt lat="44.09059" lon="4.0559">
        <ele>165</ele>
        <time>2011-12-10T13:07:03Z</time>
      </trkpt>
      <trkpt lat="44.0906" lon="4.05587">
        <ele>161.16</ele>
        <time>2011-12-10T13:07:06Z</time>
      </trkpt>
      <trkpt lat="44.0906" lon="4.05587">
        <ele>164.52</ele>
        <time>2011-12-10T13:07:07Z</time>
      </trkpt>
      <trkpt lat="44.0906" lon="4.05587">
        <ele>164.52</ele>
        <time>2011-12-10T13:07:10Z</time>
      </trkpt>
      <trkpt lat="44.09073" lon="4.05585">
        <ele>163.56</ele>
        <time>2011-12-10T13:07:19Z</time>
      </trkpt>
      <trkpt lat="44.09079" lon="4.05614">
        <ele>162.6</ele>
        <time>2011-12-10T13:07:29Z</time>
      </trkpt>
      <trkpt lat="44.0908" lon="4.05616">
        <ele>162.6</ele>
        <time>2011-12-10T13:07:30Z</time>
      </trkpt>
      <trkpt lat="44.09074" lon="4.05619">
        <ele>162.6</ele>
        <time>2011-12-10T13:07:36Z</time>
      </trkpt>
      <trkpt lat="44.09058" lon="4.05622">
        <ele>164.04</ele>
        <time>2011-12-10T13:07:46Z</time>
      </trkpt>
      <trkpt lat="44.09056" lon="4.05623">
        <ele>164.52</ele>
        <time>2011-12-10T13:07:47Z</time>
      </trkpt>
      <trkpt lat="44.09027" lon="4.05661">
        <ele>165.96</ele>
        <time>2011-12-10T13:08:01Z</time>
      </trkpt>
      <trkpt lat="44.0902" lon="4.05674">
        <ele>165.48</ele>
        <time>2011-12-10T13:08:04Z</time>
      </trkpt>
      <trkpt lat="44.09006" lon="4.05711">
        <ele>163.56</ele>
        <time>2011-12-10T13:08:10Z</time>
      </trkpt>
      <trkpt lat="44.09006" lon="4.05717">
        <ele>162.6</ele>
        <time>2011-12-10T13:08:11Z</time>
      </trkpt>
      <trkpt lat="44.09007" lon="4.05731">
        <ele>161.64</ele>
        <time>2011-12-10T13:08:13Z</time>
      </trkpt>
      <trkpt lat="44.09013" lon="4.05752">
        <ele>161.64</ele>
        <time>2011-12-10T13:08:17Z</time>
      </trkpt>
      <trkpt lat="44.09013" lon="4.05758">
        <ele>161.16</ele>
        <time>2011-12-10T13:08:18Z</time>
      </trkpt>
      <trkpt lat="44.09013" lon="4.05765">
        <ele>161.16</ele>
        <time>2011-12-10T13:08:19Z</time>
      </trkpt>
      <trkpt lat="44.09013" lon="4.05772">
        <ele>161.16</ele>
        <time>2011-12-10T13:08:20Z</time>
      </trkpt>
      <trkpt lat="44.09012" lon="4.05778">
        <ele>161.16</ele>
        <time>2011-12-10T13:08:21Z</time>
      </trkpt>
      <trkpt lat="44.09011" lon="4.05786">
        <ele>160.68</ele>
        <time>2011-12-10T13:08:22Z</time>
      </trkpt>
      <trkpt lat="44.09011" lon="4.05793">
        <ele>161.16</ele>
        <time>2011-12-10T13:08:23Z</time>
      </trkpt>
      <trkpt lat="44.09012" lon="4.058">
        <ele>159.72</ele>
        <time>2011-12-10T13:08:24Z</time>
      </trkpt>
      <trkpt lat="44.09013" lon="4.05816">
        <ele>160.2</ele>
        <time>2011-12-10T13:08:26Z</time>
      </trkpt>
      <trkpt lat="44.09012" lon="4.05823">
        <ele>159.24</ele>
        <time>2011-12-10T13:08:27Z</time>
      </trkpt>
      <trkpt lat="44.0901" lon="4.05831">
        <ele>158.75</ele>
        <time>2011-12-10T13:08:28Z</time>
      </trkpt>
      <trkpt lat="44.09007" lon="4.05837">
        <ele>158.27</ele>
        <time>2011-12-10T13:08:29Z</time>
      </trkpt>
      <trkpt lat="44.09003" lon="4.05843">
        <ele>157.79</ele>
        <time>2011-12-10T13:08:30Z</time>
      </trkpt>
      <trkpt lat="44.08999" lon="4.05849">
        <ele>157.31</ele>
        <time>2011-12-10T13:08:31Z</time>
      </trkpt>
      <trkpt lat="44.08996" lon="4.05853">
        <ele>157.31</ele>
        <time>2011-12-10T13:08:32Z</time>
      </trkpt>
      <trkpt lat="44.08994" lon="4.05857">
        <ele>156.35</ele>
        <time>2011-12-10T13:08:33Z</time>
      </trkpt>
      <trkpt lat="44.08993" lon="4.05864">
        <ele>155.87</ele>
        <time>2011-12-10T13:08:36Z</time>
      </trkpt>
      <trkpt lat="44.08993" lon="4.05867">
        <ele>155.87</ele>
        <time>2011-12-10T13:08:37Z</time>
      </trkpt>
      <trkpt lat="44.08993" lon="4.05872">
        <ele>154.91</ele>
        <time>2011-12-10T13:08:38Z</time>
      </trkpt>
      <trkpt lat="44.08992" lon="4.05875">
        <ele>154.91</ele>
        <time>2011-12-10T13:08:39Z</time>
      </trkpt>
      <trkpt lat="44.0899" lon="4.05879">
        <ele>154.43</ele>
        <time>2011-12-10T13:08:40Z</time>
      </trkpt>
      <trkpt lat="44.08988" lon="4.05884">
        <ele>154.91</ele>
        <time>2011-12-10T13:08:41Z</time>
      </trkpt>
      <trkpt lat="44.08986" lon="4.05889">
        <ele>154.43</ele>
        <time>2011-12-10T13:08:42Z</time>
      </trkpt>
      <trkpt lat="44.08984" lon="4.05894">
        <ele>153.95</ele>
        <time>2011-12-10T13:08:43Z</time>
      </trkpt>
      <trkpt lat="44.08982" lon="4.05899">
        <ele>153.47</ele>
        <time>2011-12-10T13:08:44Z</time>
      </trkpt>
      <trkpt lat="44.0898" lon="4.05905">
        <ele>153.95</ele>
        <time>2011-12-10T13:08:45Z</time>
      </trkpt>
      <trkpt lat="44.08978" lon="4.05911">
        <ele>152.99</ele>
        <time>2011-12-10T13:08:46Z</time>
      </trkpt>
      <trkpt lat="44.08976" lon="4.05917">
        <ele>152.99</ele>
        <time>2011-12-10T13:08:47Z</time>
      </trkpt>
      <trkpt lat="44.08973" lon="4.05922">
        <ele>152.99</ele>
        <time>2011-12-10T13:08:48Z</time>
      </trkpt>
      <trkpt lat="44.0897" lon="4.05928">
        <ele>153.47</ele>
        <time>2011-12-10T13:08:49Z</time>
      </trkpt>
      <trkpt lat="44.08968" lon="4.05933">
        <ele>152.99</ele>
        <time>2011-12-10T13:08:50Z</time>
      </trkpt>
      <trkpt lat="44.08966" lon="4.05939">
        <ele>153.95</ele>
        <time>2011-12-10T13:08:51Z</time>
      </trkpt>
      <trkpt lat="44.08964" lon="4.05945">
        <ele>153.47</ele>
        <time>2011-12-10T13:08:52Z</time>
      </trkpt>
      <trkpt lat="44.08962" lon="4.0595">
        <ele>153.47</ele>
        <time>2011-12-10T13:08:53Z</time>
      </trkpt>
      <trkpt lat="44.08961" lon="4.05955">
        <ele>154.43</ele>
        <time>2011-12-10T13:08:54Z</time>
      </trkpt>
      <trkpt lat="44.08959" lon="4.05959">
        <ele>154.91</ele>
        <time>2011-12-10T13:08:55Z</time>
      </trkpt>
      <trkpt lat="44.08957" lon="4.05963">
        <ele>154.43</ele>
        <time>2011-12-10T13:08:56Z</time>
      </trkpt>
      <trkpt lat="44.08956" lon="4.05967">
        <ele>154.43</ele>
        <time>2011-12-10T13:08:57Z</time>
      </trkpt>
      <trkpt lat="44.08956" lon="4.05972">
        <ele>154.91</ele>
        <time>2011-12-10T13:08:58Z</time>
      </trkpt>
      <trkpt lat="44.08957" lon="4.05976">
        <ele>154.43</ele>
        <time>2011-12-10T13:08:59Z</time>
      </trkpt>
      <trkpt lat="44.08959" lon="4.0598">
        <ele>154.91</ele>
        <time>2011-12-10T13:09:00Z</time>
      </trkpt>
      <trkpt lat="44.08962" lon="4.05982">
        <ele>154.43</ele>
        <time>2011-12-10T13:09:01Z</time>
      </trkpt>
      <trkpt lat="44.08966" lon="4.05984">
        <ele>153.47</ele>
        <time>2011-12-10T13:09:02Z</time>
      </trkpt>
      <trkpt lat="44.0897" lon="4.05985">
        <ele>152.99</ele>
        <time>2011-12-10T13:09:03Z</time>
      </trkpt>
      <trkpt lat="44.08975" lon="4.05986">
        <ele>151.06</ele>
        <time>2011-12-10T13:09:04Z</time>
      </trkpt>
      <trkpt lat="44.0898" lon="4.05987">
        <ele>150.58</ele>
        <time>2011-12-10T13:09:05Z</time>
      </trkpt>
      <trkpt lat="44.08984" lon="4.05989">
        <ele>150.58</ele>
        <time>2011-12-10T13:09:06Z</time>
      </trkpt>
      <trkpt lat="44.08987" lon="4.0599">
        <ele>149.62</ele>
        <time>2011-12-10T13:09:07Z</time>
      </trkpt>
      <trkpt lat="44.0899" lon="4.05992">
        <ele>149.14</ele>
        <time>2011-12-10T13:09:08Z</time>
      </trkpt>
      <trkpt lat="44.08993" lon="4.05994">
        <ele>148.18</ele>
        <time>2011-12-10T13:09:09Z</time>
      </trkpt>
      <trkpt lat="44.08995" lon="4.05995">
        <ele>149.14</ele>
        <time>2011-12-10T13:09:10Z</time>
      </trkpt>
      <trkpt lat="44.0902" lon="4.05999">
        <ele>149.62</ele>
        <time>2011-12-10T13:09:18Z</time>
      </trkpt>
      <trkpt lat="44.09044" lon="4.06002">
        <ele>152.99</ele>
        <time>2011-12-10T13:09:30Z</time>
      </trkpt>
      <trkpt lat="44.09062" lon="4.06001">
        <ele>156.35</ele>
        <time>2011-12-10T13:09:40Z</time>
      </trkpt>
      <trkpt lat="44.0907" lon="4.06">
        <ele>158.27</ele>
        <time>2011-12-10T13:09:44Z</time>
      </trkpt>
      <trkpt lat="44.09091" lon="4.05994">
        <ele>160.2</ele>
        <time>2011-12-10T13:09:56Z</time>
      </trkpt>
      <trkpt lat="44.09108" lon="4.05978">
        <ele>164.04</ele>
        <time>2011-12-10T13:10:07Z</time>
      </trkpt>
      <trkpt lat="44.0911" lon="4.05976">
        <ele>164.04</ele>
        <time>2011-12-10T13:10:09Z</time>
      </trkpt>
      <trkpt lat="44.09111" lon="4.05975">
        <ele>164.52</ele>
        <time>2011-12-10T13:10:10Z</time>
      </trkpt>
      <trkpt lat="44.09114" lon="4.05974">
        <ele>165</ele>
        <time>2011-12-10T13:10:13Z</time>
      </trkpt>
      <trkpt lat="44.09115" lon="4.05973">
        <ele>165</ele>
        <time>2011-12-10T13:10:14Z</time>
      </trkpt>
      <trkpt lat="44.09117" lon="4.05972">
        <ele>165</ele>
        <time>2011-12-10T13:10:15Z</time>
      </trkpt>
      <trkpt lat="44.09122" lon="4.05969">
        <ele>166.45</ele>
        <time>2011-12-10T13:10:18Z</time>
      </trkpt>
      <trkpt lat="44.09124" lon="4.05969">
        <ele>166.45</ele>
        <time>2011-12-10T13:10:19Z</time>
      </trkpt>
      <trkpt lat="44.09126" lon="4.05969">
        <ele>166.93</ele>
        <time>2011-12-10T13:10:20Z</time>
      </trkpt>
      <trkpt lat="44.09128" lon="4.05968">
        <ele>166.93</ele>
        <time>2011-12-10T13:10:21Z</time>
      </trkpt>
      <trkpt lat="44.0913" lon="4.05968">
        <ele>167.41</ele>
        <time>2011-12-10T13:10:22Z</time>
      </trkpt>
      <trkpt lat="44.09132" lon="4.05968">
        <ele>166.93</ele>
        <time>2011-12-10T13:10:23Z</time>
      </trkpt>
      <trkpt lat="44.09137" lon="4.05966">
        <ele>168.37</ele>
        <time>2011-12-10T13:10:26Z</time>
      </trkpt>
      <trkpt lat="44.09139" lon="4.05966">
        <ele>168.85</ele>
        <time>2011-12-10T13:10:27Z</time>
      </trkpt>
      <trkpt lat="44.09141" lon="4.05963">
        <ele>169.33</ele>
        <time>2011-12-10T13:10:29Z</time>
      </trkpt>
      <trkpt lat="44.09142" lon="4.05962">
        <ele>169.81</ele>
        <time>2011-12-10T13:10:30Z</time>
      </trkpt>
      <trkpt lat="44.09144" lon="4.0596">
        <ele>169.81</ele>
        <time>2011-12-10T13:10:31Z</time>
      </trkpt>
      <trkpt lat="44.09148" lon="4.05956">
        <ele>171.25</ele>
        <time>2011-12-10T13:10:34Z</time>
      </trkpt>
      <trkpt lat="44.0915" lon="4.05955">
        <ele>170.77</ele>
        <time>2011-12-10T13:10:35Z</time>
      </trkpt>
      <trkpt lat="44.09152" lon="4.05954">
        <ele>171.25</ele>
        <time>2011-12-10T13:10:36Z</time>
      </trkpt>
      <trkpt lat="44.09154" lon="4.05953">
        <ele>171.25</ele>
        <time>2011-12-10T13:10:37Z</time>
      </trkpt>
      <trkpt lat="44.09155" lon="4.05952">
        <ele>171.25</ele>
        <time>2011-12-10T13:10:38Z</time>
      </trkpt>
      <trkpt lat="44.09157" lon="4.05952">
        <ele>171.25</ele>
        <time>2011-12-10T13:10:39Z</time>
      </trkpt>
      <trkpt lat="44.09166" lon="4.05953">
        <ele>171.73</ele>
        <time>2011-12-10T13:10:44Z</time>
      </trkpt>
      <trkpt lat="44.09168" lon="4.05954">
        <ele>171.25</ele>
        <time>2011-12-10T13:10:45Z</time>
      </trkpt>
      <trkpt lat="44.0917" lon="4.05954">
        <ele>171.25</ele>
        <time>2011-12-10T13:10:46Z</time>
      </trkpt>
      <trkpt lat="44.09171" lon="4.05954">
        <ele>172.21</ele>
        <time>2011-12-10T13:10:47Z</time>
      </trkpt>
      <trkpt lat="44.09173" lon="4.05955">
        <ele>171.73</ele>
        <time>2011-12-10T13:10:48Z</time>
      </trkpt>
      <trkpt lat="44.09174" lon="4.05955">
        <ele>172.69</ele>
        <time>2011-12-10T13:10:49Z</time>
      </trkpt>
      <trkpt lat="44.09196" lon="4.05965">
        <ele>174.62</ele>
        <time>2011-12-10T13:11:02Z</time>
      </trkpt>
      <trkpt lat="44.09212" lon="4.05961">
        <ele>174.62</ele>
        <time>2011-12-10T13:11:15Z</time>
      </trkpt>
      <trkpt lat="44.0924" lon="4.05938">
        <ele>174.14</ele>
        <time>2011-12-10T13:11:25Z</time>
      </trkpt>
      <trkpt lat="44.0927" lon="4.05918">
        <ele>173.66</ele>
        <time>2011-12-10T13:11:34Z</time>
      </trkpt>
      <trkpt lat="44.09274" lon="4.05916">
        <ele>174.14</ele>
        <time>2011-12-10T13:11:35Z</time>
      </trkpt>
      <trkpt lat="44.09278" lon="4.05916">
        <ele>174.62</ele>
        <time>2011-12-10T13:11:36Z</time>
      </trkpt>
      <trkpt lat="44.09282" lon="4.05915">
        <ele>175.58</ele>
        <time>2011-12-10T13:11:37Z</time>
      </trkpt>
      <trkpt lat="44.09285" lon="4.05914">
        <ele>175.1</ele>
        <time>2011-12-10T13:11:38Z</time>
      </trkpt>
      <trkpt lat="44.09287" lon="4.05912">
        <ele>175.1</ele>
        <time>2011-12-10T13:11:39Z</time>
      </trkpt>
      <trkpt lat="44.0929" lon="4.05909">
        <ele>175.58</ele>
        <time>2011-12-10T13:11:40Z</time>
      </trkpt>
      <trkpt lat="44.09319" lon="4.05888">
        <ele>176.06</ele>
        <time>2011-12-10T13:11:50Z</time>
      </trkpt>
      <trkpt lat="44.09349" lon="4.05866">
        <ele>177.98</ele>
        <time>2011-12-10T13:12:02Z</time>
      </trkpt>
      <trkpt lat="44.09366" lon="4.05855">
        <ele>178.94</ele>
        <time>2011-12-10T13:12:09Z</time>
      </trkpt>
      <trkpt lat="44.09368" lon="4.05855">
        <ele>178.94</ele>
        <time>2011-12-10T13:12:10Z</time>
      </trkpt>
      <trkpt lat="44.09371" lon="4.05857">
        <ele>178.94</ele>
        <time>2011-12-10T13:12:11Z</time>
      </trkpt>
      <trkpt lat="44.09372" lon="4.05859">
        <ele>179.42</ele>
        <time>2011-12-10T13:12:12Z</time>
      </trkpt>
      <trkpt lat="44.09374" lon="4.05862">
        <ele>179.42</ele>
        <time>2011-12-10T13:12:13Z</time>
      </trkpt>
      <trkpt lat="44.09375" lon="4.05864">
        <ele>179.9</ele>
        <time>2011-12-10T13:12:14Z</time>
      </trkpt>
      <trkpt lat="44.09376" lon="4.05865">
        <ele>178.94</ele>
        <time>2011-12-10T13:12:15Z</time>
      </trkpt>
      <trkpt lat="44.09378" lon="4.05867">
        <ele>178.94</ele>
        <time>2011-12-10T13:12:16Z</time>
      </trkpt>
      <trkpt lat="44.09396" lon="4.05881">
        <ele>181.35</ele>
        <time>2011-12-10T13:12:28Z</time>
      </trkpt>
      <trkpt lat="44.09408" lon="4.05899">
        <ele>182.79</ele>
        <time>2011-12-10T13:12:37Z</time>
      </trkpt>
      <trkpt lat="44.09409" lon="4.05901">
        <ele>183.75</ele>
        <time>2011-12-10T13:12:38Z</time>
      </trkpt>
      <trkpt lat="44.0941" lon="4.05905">
        <ele>183.75</ele>
        <time>2011-12-10T13:12:39Z</time>
      </trkpt>
      <trkpt lat="44.09414" lon="4.05913">
        <ele>183.75</ele>
        <time>2011-12-10T13:12:42Z</time>
      </trkpt>
      <trkpt lat="44.0942" lon="4.05914">
        <ele>185.19</ele>
        <time>2011-12-10T13:12:45Z</time>
      </trkpt>
      <trkpt lat="44.09449" lon="4.05914">
        <ele>184.71</ele>
        <time>2011-12-10T13:12:56Z</time>
      </trkpt>
      <trkpt lat="44.09457" lon="4.05917">
        <ele>185.19</ele>
        <time>2011-12-10T13:13:00Z</time>
      </trkpt>
      <trkpt lat="44.09465" lon="4.05921">
        <ele>184.71</ele>
        <time>2011-12-10T13:13:06Z</time>
      </trkpt>
      <trkpt lat="44.09469" lon="4.05928">
        <ele>185.19</ele>
        <time>2011-12-10T13:13:14Z</time>
      </trkpt>
      <trkpt lat="44.0947" lon="4.05935">
        <ele>186.15</ele>
        <time>2011-12-10T13:13:26Z</time>
      </trkpt>
      <trkpt lat="44.09471" lon="4.05937">
        <ele>185.67</ele>
        <time>2011-12-10T13:13:37Z</time>
      </trkpt>
      <trkpt lat="44.09475" lon="4.05945">
        <ele>186.63</ele>
        <time>2011-12-10T13:13:41Z</time>
      </trkpt>
      <trkpt lat="44.09479" lon="4.05955">
        <ele>187.59</ele>
        <time>2011-12-10T13:13:46Z</time>
      </trkpt>
      <trkpt lat="44.09483" lon="4.05955">
        <ele>188.08</ele>
        <time>2011-12-10T13:13:49Z</time>
      </trkpt>
      <trkpt lat="44.0949" lon="4.0596">
        <ele>188.08</ele>
        <time>2011-12-10T13:13:53Z</time>
      </trkpt>
      <trkpt lat="44.09501" lon="4.05968">
        <ele>189.04</ele>
        <time>2011-12-10T13:14:03Z</time>
      </trkpt>
      <trkpt lat="44.095" lon="4.05969">
        <ele>189.04</ele>
        <time>2011-12-10T13:14:16Z</time>
      </trkpt>
      <trkpt lat="44.095" lon="4.05969">
        <ele>189.52</ele>
        <time>2011-12-10T13:14:19Z</time>
      </trkpt>
      <trkpt lat="44.0951" lon="4.05971">
        <ele>191.92</ele>
        <time>2011-12-10T13:14:26Z</time>
      </trkpt>
      <trkpt lat="44.09519" lon="4.05976">
        <ele>192.88</ele>
        <time>2011-12-10T13:14:34Z</time>
      </trkpt>
      <trkpt lat="44.09528" lon="4.0598">
        <ele>193.84</ele>
        <time>2011-12-10T13:14:39Z</time>
      </trkpt>
      <trkpt lat="44.0953" lon="4.0599">
        <ele>193.84</ele>
        <time>2011-12-10T13:14:44Z</time>
      </trkpt>
      <trkpt lat="44.09529" lon="4.05992">
        <ele>194.8</ele>
        <time>2011-12-10T13:14:46Z</time>
      </trkpt>
      <trkpt lat="44.09533" lon="4.06">
        <ele>195.28</ele>
        <time>2011-12-10T13:14:50Z</time>
      </trkpt>
      <trkpt lat="44.09537" lon="4.06006">
        <ele>196.25</ele>
        <time>2011-12-10T13:14:54Z</time>
      </trkpt>
      <trkpt lat="44.09541" lon="4.06029">
        <ele>197.21</ele>
        <time>2011-12-10T13:15:05Z</time>
      </trkpt>
      <trkpt lat="44.0954" lon="4.06045">
        <ele>197.69</ele>
        <time>2011-12-10T13:15:12Z</time>
      </trkpt>
      <trkpt lat="44.09532" lon="4.06058">
        <ele>198.17</ele>
        <time>2011-12-10T13:15:17Z</time>
      </trkpt>
      <trkpt lat="44.09526" lon="4.06084">
        <ele>199.13</ele>
        <time>2011-12-10T13:15:25Z</time>
      </trkpt>
      <trkpt lat="44.09521" lon="4.0611">
        <ele>200.09</ele>
        <time>2011-12-10T13:15:34Z</time>
      </trkpt>
      <trkpt lat="44.09521" lon="4.06122">
        <ele>200.09</ele>
        <time>2011-12-10T13:15:38Z</time>
      </trkpt>
      <trkpt lat="44.0952" lon="4.06166">
        <ele>202.01</ele>
        <time>2011-12-10T13:15:50Z</time>
      </trkpt>
      <trkpt lat="44.09524" lon="4.06203">
        <ele>201.53</ele>
        <time>2011-12-10T13:15:59Z</time>
      </trkpt>
      <trkpt lat="44.09522" lon="4.06219">
        <ele>201.53</ele>
        <time>2011-12-10T13:16:03Z</time>
      </trkpt>
      <trkpt lat="44.09522" lon="4.06247">
        <ele>199.61</ele>
        <time>2011-12-10T13:16:14Z</time>
      </trkpt>
      <trkpt lat="44.09522" lon="4.06247">
        <ele>199.13</ele>
        <time>2011-12-10T13:16:34Z</time>
      </trkpt>
      <trkpt lat="44.09522" lon="4.0625">
        <ele>199.13</ele>
        <time>2011-12-10T13:16:37Z</time>
      </trkpt>
      <trkpt lat="44.09527" lon="4.06262">
        <ele>197.21</ele>
        <time>2011-12-10T13:16:41Z</time>
      </trkpt>
      <trkpt lat="44.09532" lon="4.06262">
        <ele>196.25</ele>
        <time>2011-12-10T13:16:43Z</time>
      </trkpt>
      <trkpt lat="44.09544" lon="4.06263">
        <ele>193.84</ele>
        <time>2011-12-10T13:16:49Z</time>
      </trkpt>
      <trkpt lat="44.09565" lon="4.06277">
        <ele>190.48</ele>
        <time>2011-12-10T13:16:55Z</time>
      </trkpt>
      <trkpt lat="44.09574" lon="4.06276">
        <ele>190.48</ele>
        <time>2011-12-10T13:16:58Z</time>
      </trkpt>
      <trkpt lat="44.09582" lon="4.06284">
        <ele>187.59</ele>
        <time>2011-12-10T13:17:06Z</time>
      </trkpt>
      <trkpt lat="44.09601" lon="4.06273">
        <ele>186.63</ele>
        <time>2011-12-10T13:17:15Z</time>
      </trkpt>
      <trkpt lat="44.09609" lon="4.0626">
        <ele>185.67</ele>
        <time>2011-12-10T13:17:18Z</time>
      </trkpt>
      <trkpt lat="44.09618" lon="4.06249">
        <ele>183.27</ele>
        <time>2011-12-10T13:17:22Z</time>
      </trkpt>
      <trkpt lat="44.09627" lon="4.06238">
        <ele>179.9</ele>
        <time>2011-12-10T13:17:26Z</time>
      </trkpt>
      <trkpt lat="44.09632" lon="4.06234">
        <ele>178.94</ele>
        <time>2011-12-10T13:17:28Z</time>
      </trkpt>
      <trkpt lat="44.09635" lon="4.06234">
        <ele>178.94</ele>
        <time>2011-12-10T13:17:29Z</time>
      </trkpt>
      <trkpt lat="44.09641" lon="4.06233">
        <ele>178.46</ele>
        <time>2011-12-10T13:17:31Z</time>
      </trkpt>
      <trkpt lat="44.09653" lon="4.06225">
        <ele>176.06</ele>
        <time>2011-12-10T13:17:35Z</time>
      </trkpt>
      <trkpt lat="44.09659" lon="4.06218">
        <ele>174.14</ele>
        <time>2011-12-10T13:17:38Z</time>
      </trkpt>
      <trkpt lat="44.0966" lon="4.06213">
        <ele>173.17</ele>
        <time>2011-12-10T13:17:40Z</time>
      </trkpt>
      <trkpt lat="44.09663" lon="4.06207">
        <ele>171.73</ele>
        <time>2011-12-10T13:17:43Z</time>
      </trkpt>
      <trkpt lat="44.09673" lon="4.06207">
        <ele>168.37</ele>
        <time>2011-12-10T13:17:49Z</time>
      </trkpt>
      <trkpt lat="44.09682" lon="4.06212">
        <ele>166.45</ele>
        <time>2011-12-10T13:17:58Z</time>
      </trkpt>
      <trkpt lat="44.09687" lon="4.06212">
        <ele>164.04</ele>
        <time>2011-12-10T13:18:01Z</time>
      </trkpt>
      <trkpt lat="44.09696" lon="4.06216">
        <ele>162.12</ele>
        <time>2011-12-10T13:18:06Z</time>
      </trkpt>
      <trkpt lat="44.097" lon="4.06218">
        <ele>159.72</ele>
        <time>2011-12-10T13:18:14Z</time>
      </trkpt>
      <trkpt lat="44.09708" lon="4.06219">
        <ele>158.75</ele>
        <time>2011-12-10T13:18:27Z</time>
      </trkpt>
      <trkpt lat="44.0971" lon="4.06217">
        <ele>156.83</ele>
        <time>2011-12-10T13:18:30Z</time>
      </trkpt>
      <trkpt lat="44.09715" lon="4.06212">
        <ele>153.47</ele>
        <time>2011-12-10T13:18:36Z</time>
      </trkpt>
      <trkpt lat="44.09718" lon="4.06214">
        <ele>152.51</ele>
        <time>2011-12-10T13:18:39Z</time>
      </trkpt>
      <trkpt lat="44.09725" lon="4.06217">
        <ele>151.06</ele>
        <time>2011-12-10T13:18:45Z</time>
      </trkpt>
      <trkpt lat="44.09724" lon="4.06223">
        <ele>151.54</ele>
        <time>2011-12-10T13:18:52Z</time>
      </trkpt>
      <trkpt lat="44.0973" lon="4.06223">
        <ele>149.14</ele>
        <time>2011-12-10T13:18:56Z</time>
      </trkpt>
      <trkpt lat="44.09734" lon="4.0622">
        <ele>148.18</ele>
        <time>2011-12-10T13:18:59Z</time>
      </trkpt>
      <trkpt lat="44.09763" lon="4.06195">
        <ele>147.22</ele>
        <time>2011-12-10T13:19:11Z</time>
      </trkpt>
      <trkpt lat="44.09763" lon="4.06195">
        <ele>147.22</ele>
        <time>2011-12-10T13:19:29Z</time>
      </trkpt>
      <trkpt lat="44.09763" lon="4.06195">
        <ele>147.22</ele>
        <time>2011-12-10T13:19:48Z</time>
      </trkpt>
      <trkpt lat="44.09771" lon="4.06184">
        <ele>146.26</ele>
        <time>2011-12-10T13:19:54Z</time>
      </trkpt>
      <trkpt lat="44.09779" lon="4.0617">
        <ele>145.3</ele>
        <time>2011-12-10T13:19:57Z</time>
      </trkpt>
      <trkpt lat="44.09786" lon="4.06142">
        <ele>144.82</ele>
        <time>2011-12-10T13:20:01Z</time>
      </trkpt>
      <trkpt lat="44.09789" lon="4.06104">
        <ele>144.34</ele>
        <time>2011-12-10T13:20:06Z</time>
      </trkpt>
      <trkpt lat="44.09788" lon="4.06096">
        <ele>144.34</ele>
        <time>2011-12-10T13:20:07Z</time>
      </trkpt>
      <trkpt lat="44.09787" lon="4.06091">
        <ele>143.85</ele>
        <time>2011-12-10T13:20:08Z</time>
      </trkpt>
      <trkpt lat="44.09766" lon="4.06027">
        <ele>145.78</ele>
        <time>2011-12-10T13:20:20Z</time>
      </trkpt>
      <trkpt lat="44.09753" lon="4.05993">
        <ele>146.26</ele>
        <time>2011-12-10T13:20:27Z</time>
      </trkpt>
      <trkpt lat="44.09751" lon="4.05988">
        <ele>146.26</ele>
        <time>2011-12-10T13:20:28Z</time>
      </trkpt>
      <trkpt lat="44.09736" lon="4.05952">
        <ele>146.26</ele>
        <time>2011-12-10T13:20:34Z</time>
      </trkpt>
      <trkpt lat="44.0973" lon="4.05933">
        <ele>146.74</ele>
        <time>2011-12-10T13:20:37Z</time>
      </trkpt>
      <trkpt lat="44.09729" lon="4.05926">
        <ele>146.74</ele>
        <time>2011-12-10T13:20:38Z</time>
      </trkpt>
      <trkpt lat="44.09729" lon="4.05856">
        <ele>146.74</ele>
        <time>2011-12-10T13:20:51Z</time>
      </trkpt>
      <trkpt lat="44.09729" lon="4.05852">
        <ele>147.22</ele>
        <time>2011-12-10T13:20:52Z</time>
      </trkpt>
      <trkpt lat="44.09727" lon="4.05848">
        <ele>147.7</ele>
        <time>2011-12-10T13:20:53Z</time>
      </trkpt>
      <trkpt lat="44.09724" lon="4.05844">
        <ele>147.7</ele>
        <time>2011-12-10T13:20:54Z</time>
      </trkpt>
      <trkpt lat="44.09722" lon="4.05841">
        <ele>147.7</ele>
        <time>2011-12-10T13:20:55Z</time>
      </trkpt>
      <trkpt lat="44.09719" lon="4.05839">
        <ele>147.7</ele>
        <time>2011-12-10T13:20:56Z</time>
      </trkpt>
      <trkpt lat="44.09687" lon="4.058">
        <ele>149.62</ele>
        <time>2011-12-10T13:21:08Z</time>
      </trkpt>
      <trkpt lat="44.09655" lon="4.05772">
        <ele>152.03</ele>
        <time>2011-12-10T13:21:19Z</time>
      </trkpt>
      <trkpt lat="44.09643" lon="4.05762">
        <ele>152.51</ele>
        <time>2011-12-10T13:21:23Z</time>
      </trkpt>
      <trkpt lat="44.09641" lon="4.05759">
        <ele>153.47</ele>
        <time>2011-12-10T13:21:24Z</time>
      </trkpt>
      <trkpt lat="44.09638" lon="4.05756">
        <ele>153.47</ele>
        <time>2011-12-10T13:21:25Z</time>
      </trkpt>
      <trkpt lat="44.09636" lon="4.05753">
        <ele>153.95</ele>
        <time>2011-12-10T13:21:26Z</time>
      </trkpt>
      <trkpt lat="44.09633" lon="4.0575">
        <ele>153.47</ele>
        <time>2011-12-10T13:21:27Z</time>
      </trkpt>
      <trkpt lat="44.09631" lon="4.05747">
        <ele>153.95</ele>
        <time>2011-12-10T13:21:28Z</time>
      </trkpt>
      <trkpt lat="44.09629" lon="4.05744">
        <ele>153.95</ele>
        <time>2011-12-10T13:21:29Z</time>
      </trkpt>
      <trkpt lat="44.09626" lon="4.05741">
        <ele>153.95</ele>
        <time>2011-12-10T13:21:30Z</time>
      </trkpt>
      <trkpt lat="44.09624" lon="4.05737">
        <ele>154.43</ele>
        <time>2011-12-10T13:21:31Z</time>
      </trkpt>
      <trkpt lat="44.09589" lon="4.05691">
        <ele>155.39</ele>
        <time>2011-12-10T13:21:46Z</time>
      </trkpt>
      <trkpt lat="44.0955" lon="4.05658">
        <ele>155.39</ele>
        <time>2011-12-10T13:21:59Z</time>
      </trkpt>
      <trkpt lat="44.09522" lon="4.05643">
        <ele>157.31</ele>
        <time>2011-12-10T13:22:10Z</time>
      </trkpt>
      <trkpt lat="44.09501" lon="4.05627">
        <ele>158.75</ele>
        <time>2011-12-10T13:22:21Z</time>
      </trkpt>
      <trkpt lat="44.09495" lon="4.05621">
        <ele>160.2</ele>
        <time>2011-12-10T13:22:25Z</time>
      </trkpt>
      <trkpt lat="44.09493" lon="4.05618">
        <ele>160.2</ele>
        <time>2011-12-10T13:22:26Z</time>
      </trkpt>
      <trkpt lat="44.09492" lon="4.05617">
        <ele>160.2</ele>
        <time>2011-12-10T13:22:27Z</time>
      </trkpt>
      <trkpt lat="44.09488" lon="4.05612">
        <ele>161.64</ele>
        <time>2011-12-10T13:22:30Z</time>
      </trkpt>
      <trkpt lat="44.09475" lon="4.05598">
        <ele>163.56</ele>
        <time>2011-12-10T13:22:40Z</time>
      </trkpt>
      <trkpt lat="44.09474" lon="4.05597">
        <ele>163.56</ele>
        <time>2011-12-10T13:22:41Z</time>
      </trkpt>
      <trkpt lat="44.09456" lon="4.05578">
        <ele>165.48</ele>
        <time>2011-12-10T13:22:50Z</time>
      </trkpt>
      <trkpt lat="44.09439" lon="4.05565">
        <ele>167.89</ele>
        <time>2011-12-10T13:22:59Z</time>
      </trkpt>
      <trkpt lat="44.09416" lon="4.05543">
        <ele>170.77</ele>
        <time>2011-12-10T13:23:12Z</time>
      </trkpt>
      <trkpt lat="44.09411" lon="4.05538">
        <ele>171.25</ele>
        <time>2011-12-10T13:23:15Z</time>
      </trkpt>
      <trkpt lat="44.09405" lon="4.05536">
        <ele>171.73</ele>
        <time>2011-12-10T13:23:18Z</time>
      </trkpt>
      <trkpt lat="44.09398" lon="4.05532">
        <ele>172.21</ele>
        <time>2011-12-10T13:23:22Z</time>
      </trkpt>
      <trkpt lat="44.09389" lon="4.05527">
        <ele>172.21</ele>
        <time>2011-12-10T13:23:26Z</time>
      </trkpt>
      <trkpt lat="44.09386" lon="4.05526">
        <ele>172.21</ele>
        <time>2011-12-10T13:23:28Z</time>
      </trkpt>
      <trkpt lat="44.09369" lon="4.05516">
        <ele>172.69</ele>
        <time>2011-12-10T13:23:36Z</time>
      </trkpt>
      <trkpt lat="44.0936" lon="4.05518">
        <ele>173.17</ele>
        <time>2011-12-10T13:23:40Z</time>
      </trkpt>
      <trkpt lat="44.0933" lon="4.05519">
        <ele>172.69</ele>
        <time>2011-12-10T13:23:51Z</time>
      </trkpt>
      <trkpt lat="44.09319" lon="4.0552">
        <ele>172.21</ele>
        <time>2011-12-10T13:23:54Z</time>
      </trkpt>
      <trkpt lat="44.09288" lon="4.05527">
        <ele>170.29</ele>
        <time>2011-12-10T13:24:01Z</time>
      </trkpt>
      <trkpt lat="44.09276" lon="4.05528">
        <ele>168.85</ele>
        <time>2011-12-10T13:24:04Z</time>
      </trkpt>
      <trkpt lat="44.09238" lon="4.05534">
        <ele>166.93</ele>
        <time>2011-12-10T13:24:12Z</time>
      </trkpt>
      <trkpt lat="44.09229" lon="4.05533">
        <ele>166.93</ele>
        <time>2011-12-10T13:24:14Z</time>
      </trkpt>
      <trkpt lat="44.09224" lon="4.05532">
        <ele>166.45</ele>
        <time>2011-12-10T13:24:15Z</time>
      </trkpt>
      <trkpt lat="44.09209" lon="4.0553">
        <ele>165.48</ele>
        <time>2011-12-10T13:24:18Z</time>
      </trkpt>
      <trkpt lat="44.09205" lon="4.0553">
        <ele>165</ele>
        <time>2011-12-10T13:24:19Z</time>
      </trkpt>
      <trkpt lat="44.09199" lon="4.05529">
        <ele>164.52</ele>
        <time>2011-12-10T13:24:20Z</time>
      </trkpt>
      <trkpt lat="44.09194" lon="4.05527">
        <ele>164.04</ele>
        <time>2011-12-10T13:24:21Z</time>
      </trkpt>
      <trkpt lat="44.09188" lon="4.05526">
        <ele>164.04</ele>
        <time>2011-12-10T13:24:22Z</time>
      </trkpt>
      <trkpt lat="44.09182" lon="4.05526">
        <ele>163.56</ele>
        <time>2011-12-10T13:24:23Z</time>
      </trkpt>
      <trkpt lat="44.09176" lon="4.05525">
        <ele>163.08</ele>
        <time>2011-12-10T13:24:24Z</time>
      </trkpt>
      <trkpt lat="44.0917" lon="4.05524">
        <ele>162.6</ele>
        <time>2011-12-10T13:24:25Z</time>
      </trkpt>
      <trkpt lat="44.09163" lon="4.05524">
        <ele>162.6</ele>
        <time>2011-12-10T13:24:26Z</time>
      </trkpt>
      <trkpt lat="44.09157" lon="4.05525">
        <ele>161.64</ele>
        <time>2011-12-10T13:24:27Z</time>
      </trkpt>
      <trkpt lat="44.09144" lon="4.05528">
        <ele>160.68</ele>
        <time>2011-12-10T13:24:29Z</time>
      </trkpt>
      <trkpt lat="44.09127" lon="4.05528">
        <ele>159.24</ele>
        <time>2011-12-10T13:24:32Z</time>
      </trkpt>
      <trkpt lat="44.09122" lon="4.05525">
        <ele>159.24</ele>
        <time>2011-12-10T13:24:33Z</time>
      </trkpt>
      <trkpt lat="44.09119" lon="4.05521">
        <ele>159.24</ele>
        <time>2011-12-10T13:24:34Z</time>
      </trkpt>
      <trkpt lat="44.09118" lon="4.05518">
        <ele>159.72</ele>
        <time>2011-12-10T13:24:35Z</time>
      </trkpt>
      <trkpt lat="44.09115" lon="4.05497">
        <ele>159.72</ele>
        <time>2011-12-10T13:24:45Z</time>
      </trkpt>
      <trkpt lat="44.09114" lon="4.05496">
        <ele>160.2</ele>
        <time>2011-12-10T13:24:46Z</time>
      </trkpt>
      <trkpt lat="44.09112" lon="4.05496">
        <ele>159.72</ele>
        <time>2011-12-10T13:24:47Z</time>
      </trkpt>
      <trkpt lat="44.09112" lon="4.05496">
        <ele>160.2</ele>
        <time>2011-12-10T13:24:59Z</time>
      </trkpt>
      <trkpt lat="44.09112" lon="4.05496">
        <ele>159.24</ele>
        <time>2011-12-10T13:25:23Z</time>
      </trkpt>
      <trkpt lat="44.09112" lon="4.05491">
        <ele>159.72</ele>
        <time>2011-12-10T13:25:33Z</time>
      </trkpt>
      <trkpt lat="44.09112" lon="4.05489">
        <ele>159.72</ele>
        <time>2011-12-10T13:25:34Z</time>
      </trkpt>
      <trkpt lat="44.09113" lon="4.05487">
        <ele>160.2</ele>
        <time>2011-12-10T13:25:35Z</time>
      </trkpt>
      <trkpt lat="44.09118" lon="4.05464">
        <ele>160.2</ele>
        <time>2011-12-10T13:25:43Z</time>
      </trkpt>
      <trkpt lat="44.09118" lon="4.05461">
        <ele>159.72</ele>
        <time>2011-12-10T13:25:44Z</time>
      </trkpt>
      <trkpt lat="44.09113" lon="4.05428">
        <ele>162.6</ele>
        <time>2011-12-10T13:25:57Z</time>
      </trkpt>
      <trkpt lat="44.09107" lon="4.05392">
        <ele>164.52</ele>
        <time>2011-12-10T13:26:10Z</time>
      </trkpt>
      <trkpt lat="44.09101" lon="4.0536">
        <ele>166.93</ele>
        <time>2011-12-10T13:26:23Z</time>
      </trkpt>
      <trkpt lat="44.09099" lon="4.05352">
        <ele>166.93</ele>
        <time>2011-12-10T13:26:33Z</time>
      </trkpt>
      <trkpt lat="44.09098" lon="4.05346">
        <ele>167.41</ele>
        <time>2011-12-10T13:26:41Z</time>
      </trkpt>
      <trkpt lat="44.09098" lon="4.05342">
        <ele>168.37</ele>
        <time>2011-12-10T13:26:43Z</time>
      </trkpt>
      <trkpt lat="44.09098" lon="4.05339">
        <ele>168.85</ele>
        <time>2011-12-10T13:26:44Z</time>
      </trkpt>
      <trkpt lat="44.09102" lon="4.05307">
        <ele>169.81</ele>
        <time>2011-12-10T13:26:55Z</time>
      </trkpt>
      <trkpt lat="44.09105" lon="4.05281">
        <ele>171.25</ele>
        <time>2011-12-10T13:27:04Z</time>
      </trkpt>
      <trkpt lat="44.09106" lon="4.05278">
        <ele>171.73</ele>
        <time>2011-12-10T13:27:05Z</time>
      </trkpt>
      <trkpt lat="44.09106" lon="4.05272">
        <ele>171.73</ele>
        <time>2011-12-10T13:27:07Z</time>
      </trkpt>
      <trkpt lat="44.09106" lon="4.05269">
        <ele>171.25</ele>
        <time>2011-12-10T13:27:08Z</time>
      </trkpt>
      <trkpt lat="44.09106" lon="4.0525">
        <ele>171.73</ele>
        <time>2011-12-10T13:27:14Z</time>
      </trkpt>
      <trkpt lat="44.09106" lon="4.05247">
        <ele>172.21</ele>
        <time>2011-12-10T13:27:15Z</time>
      </trkpt>
      <trkpt lat="44.09106" lon="4.05243">
        <ele>172.21</ele>
        <time>2011-12-10T13:27:16Z</time>
      </trkpt>
      <trkpt lat="44.09106" lon="4.05239">
        <ele>172.69</ele>
        <time>2011-12-10T13:27:17Z</time>
      </trkpt>
      <trkpt lat="44.09106" lon="4.05236">
        <ele>172.21</ele>
        <time>2011-12-10T13:27:18Z</time>
      </trkpt>
      <trkpt lat="44.09107" lon="4.05233">
        <ele>172.69</ele>
        <time>2011-12-10T13:27:19Z</time>
      </trkpt>
      <trkpt lat="44.09108" lon="4.05229">
        <ele>172.69</ele>
        <time>2011-12-10T13:27:20Z</time>
      </trkpt>
      <trkpt lat="44.09108" lon="4.05225">
        <ele>172.69</ele>
        <time>2011-12-10T13:27:21Z</time>
      </trkpt>
      <trkpt lat="44.09109" lon="4.05221">
        <ele>172.69</ele>
        <time>2011-12-10T13:27:22Z</time>
      </trkpt>
      <trkpt lat="44.09109" lon="4.05205">
        <ele>172.21</ele>
        <time>2011-12-10T13:27:25Z</time>
      </trkpt>
      <trkpt lat="44.09112" lon="4.05155">
        <ele>173.66</ele>
        <time>2011-12-10T13:27:35Z</time>
      </trkpt>
      <trkpt lat="44.09113" lon="4.0512">
        <ele>174.62</ele>
        <time>2011-12-10T13:27:47Z</time>
      </trkpt>
      <trkpt lat="44.09112" lon="4.0511">
        <ele>174.62</ele>
        <time>2011-12-10T13:27:51Z</time>
      </trkpt>
      <trkpt lat="44.09114" lon="4.051">
        <ele>174.62</ele>
        <time>2011-12-10T13:27:55Z</time>
      </trkpt>
      <trkpt lat="44.09115" lon="4.05094">
        <ele>174.62</ele>
        <time>2011-12-10T13:27:59Z</time>
      </trkpt>
      <trkpt lat="44.09115" lon="4.05079">
        <ele>176.54</ele>
        <time>2011-12-10T13:28:07Z</time>
      </trkpt>
      <trkpt lat="44.09114" lon="4.05069">
        <ele>177.02</ele>
        <time>2011-12-10T13:28:15Z</time>
      </trkpt>
      <trkpt lat="44.09113" lon="4.05067">
        <ele>177.02</ele>
        <time>2011-12-10T13:28:16Z</time>
      </trkpt>
      <trkpt lat="44.09112" lon="4.05064">
        <ele>177.5</ele>
        <time>2011-12-10T13:28:17Z</time>
      </trkpt>
      <trkpt lat="44.09111" lon="4.05061">
        <ele>177.5</ele>
        <time>2011-12-10T13:28:18Z</time>
      </trkpt>
      <trkpt lat="44.0911" lon="4.05055">
        <ele>177.98</ele>
        <time>2011-12-10T13:28:21Z</time>
      </trkpt>
      <trkpt lat="44.09109" lon="4.05052">
        <ele>177.98</ele>
        <time>2011-12-10T13:28:22Z</time>
      </trkpt>
      <trkpt lat="44.09108" lon="4.05049">
        <ele>178.46</ele>
        <time>2011-12-10T13:28:23Z</time>
      </trkpt>
      <trkpt lat="44.09106" lon="4.0504">
        <ele>178.46</ele>
        <time>2011-12-10T13:28:26Z</time>
      </trkpt>
      <trkpt lat="44.09107" lon="4.05037">
        <ele>178.94</ele>
        <time>2011-12-10T13:28:27Z</time>
      </trkpt>
      <trkpt lat="44.09107" lon="4.05034">
        <ele>178.94</ele>
        <time>2011-12-10T13:28:28Z</time>
      </trkpt>
      <trkpt lat="44.09108" lon="4.05031">
        <ele>178.94</ele>
        <time>2011-12-10T13:28:29Z</time>
      </trkpt>
      <trkpt lat="44.09108" lon="4.05029">
        <ele>179.42</ele>
        <time>2011-12-10T13:28:30Z</time>
      </trkpt>
      <trkpt lat="44.09108" lon="4.05026">
        <ele>179.42</ele>
        <time>2011-12-10T13:28:31Z</time>
      </trkpt>
      <trkpt lat="44.09108" lon="4.05024">
        <ele>179.42</ele>
        <time>2011-12-10T13:28:32Z</time>
      </trkpt>
      <trkpt lat="44.09108" lon="4.05012">
        <ele>180.38</ele>
        <time>2011-12-10T13:28:36Z</time>
      </trkpt>
      <trkpt lat="44.09109" lon="4.05008">
        <ele>179.9</ele>
        <time>2011-12-10T13:28:37Z</time>
      </trkpt>
      <trkpt lat="44.09111" lon="4.05006">
        <ele>179.9</ele>
        <time>2011-12-10T13:28:38Z</time>
      </trkpt>
      <trkpt lat="44.09112" lon="4.05005">
        <ele>180.38</ele>
        <time>2011-12-10T13:28:39Z</time>
      </trkpt>
      <trkpt lat="44.09114" lon="4.05005">
        <ele>180.38</ele>
        <time>2011-12-10T13:28:40Z</time>
      </trkpt>
      <trkpt lat="44.09116" lon="4.05005">
        <ele>180.38</ele>
        <time>2011-12-10T13:28:41Z</time>
      </trkpt>
      <trkpt lat="44.09118" lon="4.05004">
        <ele>179.9</ele>
        <time>2011-12-10T13:28:42Z</time>
      </trkpt>
      <trkpt lat="44.09119" lon="4.05002">
        <ele>179.9</ele>
        <time>2011-12-10T13:28:43Z</time>
      </trkpt>
      <trkpt lat="44.0912" lon="4.04999">
        <ele>180.87</ele>
        <time>2011-12-10T13:28:44Z</time>
      </trkpt>
      <trkpt lat="44.0912" lon="4.04995">
        <ele>180.87</ele>
        <time>2011-12-10T13:28:45Z</time>
      </trkpt>
      <trkpt lat="44.09121" lon="4.04992">
        <ele>181.35</ele>
        <time>2011-12-10T13:28:46Z</time>
      </trkpt>
      <trkpt lat="44.09123" lon="4.04989">
        <ele>180.38</ele>
        <time>2011-12-10T13:28:47Z</time>
      </trkpt>
      <trkpt lat="44.09124" lon="4.04987">
        <ele>180.87</ele>
        <time>2011-12-10T13:28:48Z</time>
      </trkpt>
      <trkpt lat="44.09125" lon="4.04983">
        <ele>180.87</ele>
        <time>2011-12-10T13:28:49Z</time>
      </trkpt>
      <trkpt lat="44.09126" lon="4.04981">
        <ele>181.35</ele>
        <time>2011-12-10T13:28:50Z</time>
      </trkpt>
      <trkpt lat="44.09128" lon="4.04979">
        <ele>181.35</ele>
        <time>2011-12-10T13:28:51Z</time>
      </trkpt>
      <trkpt lat="44.09128" lon="4.04976">
        <ele>181.83</ele>
        <time>2011-12-10T13:28:52Z</time>
      </trkpt>
      <trkpt lat="44.09128" lon="4.04974">
        <ele>181.35</ele>
        <time>2011-12-10T13:28:53Z</time>
      </trkpt>
      <trkpt lat="44.09128" lon="4.04972">
        <ele>181.83</ele>
        <time>2011-12-10T13:28:54Z</time>
      </trkpt>
      <trkpt lat="44.09128" lon="4.04969">
        <ele>181.83</ele>
        <time>2011-12-10T13:28:55Z</time>
      </trkpt>
      <trkpt lat="44.09129" lon="4.04966">
        <ele>181.83</ele>
        <time>2011-12-10T13:28:56Z</time>
      </trkpt>
      <trkpt lat="44.09129" lon="4.04963">
        <ele>182.79</ele>
        <time>2011-12-10T13:28:57Z</time>
      </trkpt>
      <trkpt lat="44.0913" lon="4.04961">
        <ele>182.31</ele>
        <time>2011-12-10T13:28:58Z</time>
      </trkpt>
      <trkpt lat="44.09137" lon="4.0494">
        <ele>183.27</ele>
        <time>2011-12-10T13:29:06Z</time>
      </trkpt>
      <trkpt lat="44.09146" lon="4.04922">
        <ele>183.75</ele>
        <time>2011-12-10T13:29:13Z</time>
      </trkpt>
      <trkpt lat="44.09146" lon="4.0492">
        <ele>183.75</ele>
        <time>2011-12-10T13:29:14Z</time>
      </trkpt>
      <trkpt lat="44.09147" lon="4.04917">
        <ele>183.75</ele>
        <time>2011-12-10T13:29:15Z</time>
      </trkpt>
      <trkpt lat="44.09147" lon="4.0491">
        <ele>183.75</ele>
        <time>2011-12-10T13:29:17Z</time>
      </trkpt>
      <trkpt lat="44.09148" lon="4.04906">
        <ele>183.75</ele>
        <time>2011-12-10T13:29:18Z</time>
      </trkpt>
      <trkpt lat="44.09148" lon="4.04902">
        <ele>184.23</ele>
        <time>2011-12-10T13:29:19Z</time>
      </trkpt>
      <trkpt lat="44.09148" lon="4.04898">
        <ele>184.23</ele>
        <time>2011-12-10T13:29:20Z</time>
      </trkpt>
      <trkpt lat="44.09148" lon="4.04894">
        <ele>184.23</ele>
        <time>2011-12-10T13:29:21Z</time>
      </trkpt>
      <trkpt lat="44.09154" lon="4.04862">
        <ele>184.71</ele>
        <time>2011-12-10T13:29:30Z</time>
      </trkpt>
      <trkpt lat="44.09154" lon="4.0486">
        <ele>185.19</ele>
        <time>2011-12-10T13:29:31Z</time>
      </trkpt>
      <trkpt lat="44.09155" lon="4.04858">
        <ele>185.19</ele>
        <time>2011-12-10T13:29:32Z</time>
      </trkpt>
      <trkpt lat="44.09156" lon="4.04849">
        <ele>185.19</ele>
        <time>2011-12-10T13:29:35Z</time>
      </trkpt>
      <trkpt lat="44.09156" lon="4.04847">
        <ele>185.19</ele>
        <time>2011-12-10T13:29:36Z</time>
      </trkpt>
      <trkpt lat="44.09156" lon="4.04845">
        <ele>184.71</ele>
        <time>2011-12-10T13:29:37Z</time>
      </trkpt>
      <trkpt lat="44.09156" lon="4.04842">
        <ele>185.19</ele>
        <time>2011-12-10T13:29:38Z</time>
      </trkpt>
      <trkpt lat="44.09155" lon="4.04839">
        <ele>185.19</ele>
        <time>2011-12-10T13:29:39Z</time>
      </trkpt>
      <trkpt lat="44.09155" lon="4.04836">
        <ele>185.19</ele>
        <time>2011-12-10T13:29:40Z</time>
      </trkpt>
      <trkpt lat="44.09156" lon="4.04829">
        <ele>185.19</ele>
        <time>2011-12-10T13:29:49Z</time>
      </trkpt>
      <trkpt lat="44.09157" lon="4.04827">
        <ele>185.67</ele>
        <time>2011-12-10T13:29:50Z</time>
      </trkpt>
      <trkpt lat="44.09157" lon="4.04825">
        <ele>185.19</ele>
        <time>2011-12-10T13:29:51Z</time>
      </trkpt>
      <trkpt lat="44.09157" lon="4.04822">
        <ele>185.19</ele>
        <time>2011-12-10T13:29:52Z</time>
      </trkpt>
      <trkpt lat="44.09157" lon="4.04819">
        <ele>184.71</ele>
        <time>2011-12-10T13:29:53Z</time>
      </trkpt>
      <trkpt lat="44.09157" lon="4.04817">
        <ele>186.15</ele>
        <time>2011-12-10T13:29:54Z</time>
      </trkpt>
      <trkpt lat="44.09157" lon="4.04814">
        <ele>185.67</ele>
        <time>2011-12-10T13:29:55Z</time>
      </trkpt>
      <trkpt lat="44.09158" lon="4.04811">
        <ele>185.67</ele>
        <time>2011-12-10T13:29:56Z</time>
      </trkpt>
      <trkpt lat="44.0916" lon="4.04802">
        <ele>185.19</ele>
        <time>2011-12-10T13:30:00Z</time>
      </trkpt>
      <trkpt lat="44.0916" lon="4.04799">
        <ele>185.67</ele>
        <time>2011-12-10T13:30:01Z</time>
      </trkpt>
      <trkpt lat="44.09161" lon="4.04796">
        <ele>185.67</ele>
        <time>2011-12-10T13:30:02Z</time>
      </trkpt>
      <trkpt lat="44.09162" lon="4.04793">
        <ele>185.67</ele>
        <time>2011-12-10T13:30:03Z</time>
      </trkpt>
      <trkpt lat="44.09162" lon="4.0479">
        <ele>185.67</ele>
        <time>2011-12-10T13:30:04Z</time>
      </trkpt>
      <trkpt lat="44.09162" lon="4.04787">
        <ele>186.15</ele>
        <time>2011-12-10T13:30:05Z</time>
      </trkpt>
      <trkpt lat="44.09161" lon="4.04785">
        <ele>185.67</ele>
        <time>2011-12-10T13:30:06Z</time>
      </trkpt>
      <trkpt lat="44.09162" lon="4.04783">
        <ele>185.67</ele>
        <time>2011-12-10T13:30:07Z</time>
      </trkpt>
      <trkpt lat="44.09163" lon="4.04781">
        <ele>185.67</ele>
        <time>2011-12-10T13:30:08Z</time>
      </trkpt>
      <trkpt lat="44.09165" lon="4.04779">
        <ele>186.15</ele>
        <time>2011-12-10T13:30:09Z</time>
      </trkpt>
      <trkpt lat="44.09168" lon="4.04772">
        <ele>185.67</ele>
        <time>2011-12-10T13:30:13Z</time>
      </trkpt>
      <trkpt lat="44.09173" lon="4.0477">
        <ele>186.63</ele>
        <time>2011-12-10T13:30:16Z</time>
      </trkpt>
      <trkpt lat="44.09176" lon="4.04768">
        <ele>187.59</ele>
        <time>2011-12-10T13:30:18Z</time>
      </trkpt>
      <trkpt lat="44.09179" lon="4.04751">
        <ele>188.08</ele>
        <time>2011-12-10T13:30:26Z</time>
      </trkpt>
      <trkpt lat="44.09174" lon="4.04728">
        <ele>187.59</ele>
        <time>2011-12-10T13:30:33Z</time>
      </trkpt>
      <trkpt lat="44.09172" lon="4.04717">
        <ele>188.08</ele>
        <time>2011-12-10T13:30:37Z</time>
      </trkpt>
      <trkpt lat="44.09172" lon="4.04707">
        <ele>189.04</ele>
        <time>2011-12-10T13:30:41Z</time>
      </trkpt>
      <trkpt lat="44.09174" lon="4.04691">
        <ele>190.48</ele>
        <time>2011-12-10T13:30:48Z</time>
      </trkpt>
      <trkpt lat="44.09174" lon="4.0465">
        <ele>190.96</ele>
        <time>2011-12-10T13:31:02Z</time>
      </trkpt>
      <trkpt lat="44.09169" lon="4.04617">
        <ele>193.36</ele>
        <time>2011-12-10T13:31:13Z</time>
      </trkpt>
      <trkpt lat="44.09153" lon="4.04585">
        <ele>195.77</ele>
        <time>2011-12-10T13:31:24Z</time>
      </trkpt>
      <trkpt lat="44.09135" lon="4.04573">
        <ele>198.17</ele>
        <time>2011-12-10T13:31:35Z</time>
      </trkpt>
      <trkpt lat="44.09129" lon="4.04579">
        <ele>199.13</ele>
        <time>2011-12-10T13:31:44Z</time>
      </trkpt>
      <trkpt lat="44.0913" lon="4.04569">
        <ele>198.17</ele>
        <time>2011-12-10T13:31:53Z</time>
      </trkpt>
      <trkpt lat="44.0913" lon="4.04569">
        <ele>198.17</ele>
        <time>2011-12-10T13:32:13Z</time>
      </trkpt>
      <trkpt lat="44.09131" lon="4.04569">
        <ele>198.17</ele>
        <time>2011-12-10T13:32:48Z</time>
      </trkpt>
      <trkpt lat="44.09131" lon="4.04569">
        <ele>198.65</ele>
        <time>2011-12-10T13:33:19Z</time>
      </trkpt>
      <trkpt lat="44.09131" lon="4.04569">
        <ele>198.65</ele>
        <time>2011-12-10T13:33:46Z</time>
      </trkpt>
      <trkpt lat="44.09131" lon="4.04569">
        <ele>198.17</ele>
        <time>2011-12-10T13:34:10Z</time>
      </trkpt>
      <trkpt lat="44.09131" lon="4.04569">
        <ele>198.17</ele>
        <time>2011-12-10T13:34:41Z</time>
      </trkpt>
      <trkpt lat="44.09131" lon="4.04569">
        <ele>199.13</ele>
        <time>2011-12-10T13:34:56Z</time>
      </trkpt>
      <trkpt lat="44.09129" lon="4.04562">
        <ele>198.17</ele>
        <time>2011-12-10T13:35:00Z</time>
      </trkpt>
      <trkpt lat="44.0913" lon="4.04545">
        <ele>198.17</ele>
        <time>2011-12-10T13:35:07Z</time>
      </trkpt>
      <trkpt lat="44.09134" lon="4.04538">
        <ele>197.69</ele>
        <time>2011-12-10T13:35:13Z</time>
      </trkpt>
      <trkpt lat="44.09138" lon="4.04537">
        <ele>197.21</ele>
        <time>2011-12-10T13:35:21Z</time>
      </trkpt>
      <trkpt lat="44.09143" lon="4.04538">
        <ele>196.73</ele>
        <time>2011-12-10T13:35:25Z</time>
      </trkpt>
      <trkpt lat="44.09162" lon="4.04535">
        <ele>200.09</ele>
        <time>2011-12-10T13:35:36Z</time>
      </trkpt>
      <trkpt lat="44.09179" lon="4.04535">
        <ele>201.05</ele>
        <time>2011-12-10T13:35:47Z</time>
      </trkpt>
      <trkpt lat="44.09204" lon="4.04523">
        <ele>200.57</ele>
        <time>2011-12-10T13:35:59Z</time>
      </trkpt>
      <trkpt lat="44.09228" lon="4.04507">
        <ele>200.09</ele>
        <time>2011-12-10T13:36:08Z</time>
      </trkpt>
      <trkpt lat="44.09234" lon="4.04506">
        <ele>200.57</ele>
        <time>2011-12-10T13:36:10Z</time>
      </trkpt>
      <trkpt lat="44.09243" lon="4.04508">
        <ele>200.57</ele>
        <time>2011-12-10T13:36:14Z</time>
      </trkpt>
      <trkpt lat="44.0926" lon="4.04512">
        <ele>201.53</ele>
        <time>2011-12-10T13:36:25Z</time>
      </trkpt>
      <trkpt lat="44.09267" lon="4.04513">
        <ele>202.01</ele>
        <time>2011-12-10T13:36:34Z</time>
      </trkpt>
      <trkpt lat="44.09268" lon="4.04513">
        <ele>202.01</ele>
        <time>2011-12-10T13:36:35Z</time>
      </trkpt>
      <trkpt lat="44.09278" lon="4.04516">
        <ele>203.94</ele>
        <time>2011-12-10T13:36:48Z</time>
      </trkpt>
      <trkpt lat="44.09281" lon="4.04518">
        <ele>203.94</ele>
        <time>2011-12-10T13:36:59Z</time>
      </trkpt>
      <trkpt lat="44.09287" lon="4.04518">
        <ele>204.9</ele>
        <time>2011-12-10T13:37:05Z</time>
      </trkpt>
      <trkpt lat="44.09288" lon="4.04519">
        <ele>205.38</ele>
        <time>2011-12-10T13:37:06Z</time>
      </trkpt>
      <trkpt lat="44.09304" lon="4.04526">
        <ele>207.3</ele>
        <time>2011-12-10T13:37:16Z</time>
      </trkpt>
      <trkpt lat="44.09317" lon="4.0453">
        <ele>209.22</ele>
        <time>2011-12-10T13:37:24Z</time>
      </trkpt>
      <trkpt lat="44.09337" lon="4.0453">
        <ele>210.19</ele>
        <time>2011-12-10T13:37:35Z</time>
      </trkpt>
      <trkpt lat="44.09356" lon="4.04531">
        <ele>212.59</ele>
        <time>2011-12-10T13:37:46Z</time>
      </trkpt>
      <trkpt lat="44.09374" lon="4.04522">
        <ele>214.99</ele>
        <time>2011-12-10T13:37:59Z</time>
      </trkpt>
      <trkpt lat="44.09379" lon="4.04517">
        <ele>215.95</ele>
        <time>2011-12-10T13:38:11Z</time>
      </trkpt>
      <trkpt lat="44.09379" lon="4.04517">
        <ele>215.47</ele>
        <time>2011-12-10T13:38:17Z</time>
      </trkpt>
      <trkpt lat="44.09381" lon="4.04511">
        <ele>216.43</ele>
        <time>2011-12-10T13:38:21Z</time>
      </trkpt>
      <trkpt lat="44.09386" lon="4.045">
        <ele>217.88</ele>
        <time>2011-12-10T13:38:27Z</time>
      </trkpt>
      <trkpt lat="44.09388" lon="4.04497">
        <ele>218.36</ele>
        <time>2011-12-10T13:38:30Z</time>
      </trkpt>
      <trkpt lat="44.09387" lon="4.04492">
        <ele>219.8</ele>
        <time>2011-12-10T13:38:33Z</time>
      </trkpt>
      <trkpt lat="44.09381" lon="4.04478">
        <ele>222.2</ele>
        <time>2011-12-10T13:38:41Z</time>
      </trkpt>
      <trkpt lat="44.09376" lon="4.0447">
        <ele>223.16</ele>
        <time>2011-12-10T13:38:46Z</time>
      </trkpt>
      <trkpt lat="44.09374" lon="4.04467">
        <ele>223.16</ele>
        <time>2011-12-10T13:38:48Z</time>
      </trkpt>
      <trkpt lat="44.09368" lon="4.04464">
        <ele>224.12</ele>
        <time>2011-12-10T13:38:53Z</time>
      </trkpt>
      <trkpt lat="44.09365" lon="4.04459">
        <ele>225.09</ele>
        <time>2011-12-10T13:38:56Z</time>
      </trkpt>
      <trkpt lat="44.09361" lon="4.04448">
        <ele>225.57</ele>
        <time>2011-12-10T13:39:01Z</time>
      </trkpt>
      <trkpt lat="44.09361" lon="4.04444">
        <ele>225.57</ele>
        <time>2011-12-10T13:39:03Z</time>
      </trkpt>
      <trkpt lat="44.09358" lon="4.04439">
        <ele>226.53</ele>
        <time>2011-12-10T13:39:06Z</time>
      </trkpt>
      <trkpt lat="44.09351" lon="4.04438">
        <ele>226.05</ele>
        <time>2011-12-10T13:39:10Z</time>
      </trkpt>
      <trkpt lat="44.09343" lon="4.04429">
        <ele>227.49</ele>
        <time>2011-12-10T13:39:19Z</time>
      </trkpt>
      <trkpt lat="44.09343" lon="4.04429">
        <ele>227.49</ele>
        <time>2011-12-10T13:39:45Z</time>
      </trkpt>
      <trkpt lat="44.09343" lon="4.04429">
        <ele>227.97</ele>
        <time>2011-12-10T13:40:12Z</time>
      </trkpt>
      <trkpt lat="44.0934" lon="4.04421">
        <ele>228.45</ele>
        <time>2011-12-10T13:40:32Z</time>
      </trkpt>
      <trkpt lat="44.09337" lon="4.04405">
        <ele>227.49</ele>
        <time>2011-12-10T13:40:36Z</time>
      </trkpt>
      <trkpt lat="44.09331" lon="4.04394">
        <ele>225.57</ele>
        <time>2011-12-10T13:40:39Z</time>
      </trkpt>
      <trkpt lat="44.0932" lon="4.04373">
        <ele>223.16</ele>
        <time>2011-12-10T13:40:45Z</time>
      </trkpt>
      <trkpt lat="44.09313" lon="4.04363">
        <ele>220.76</ele>
        <time>2011-12-10T13:40:48Z</time>
      </trkpt>
      <trkpt lat="44.09292" lon="4.0435">
        <ele>218.84</ele>
        <time>2011-12-10T13:40:55Z</time>
      </trkpt>
      <trkpt lat="44.09274" lon="4.0435">
        <ele>216.43</ele>
        <time>2011-12-10T13:41:00Z</time>
      </trkpt>
      <trkpt lat="44.09255" lon="4.04362">
        <ele>216.91</ele>
        <time>2011-12-10T13:41:06Z</time>
      </trkpt>
      <trkpt lat="44.09252" lon="4.04365">
        <ele>216.91</ele>
        <time>2011-12-10T13:41:07Z</time>
      </trkpt>
      <trkpt lat="44.09248" lon="4.04366">
        <ele>216.43</ele>
        <time>2011-12-10T13:41:08Z</time>
      </trkpt>
      <trkpt lat="44.09244" lon="4.04365">
        <ele>215.95</ele>
        <time>2011-12-10T13:41:09Z</time>
      </trkpt>
      <trkpt lat="44.09241" lon="4.04364">
        <ele>215.47</ele>
        <time>2011-12-10T13:41:10Z</time>
      </trkpt>
      <trkpt lat="44.09238" lon="4.0436">
        <ele>214.51</ele>
        <time>2011-12-10T13:41:11Z</time>
      </trkpt>
      <trkpt lat="44.09237" lon="4.04356">
        <ele>213.55</ele>
        <time>2011-12-10T13:41:12Z</time>
      </trkpt>
      <trkpt lat="44.09233" lon="4.04347">
        <ele>211.63</ele>
        <time>2011-12-10T13:41:14Z</time>
      </trkpt>
      <trkpt lat="44.09232" lon="4.04343">
        <ele>210.19</ele>
        <time>2011-12-10T13:41:15Z</time>
      </trkpt>
      <trkpt lat="44.0923" lon="4.04341">
        <ele>209.22</ele>
        <time>2011-12-10T13:41:16Z</time>
      </trkpt>
      <trkpt lat="44.09227" lon="4.0434">
        <ele>209.22</ele>
        <time>2011-12-10T13:41:17Z</time>
      </trkpt>
      <trkpt lat="44.09224" lon="4.04341">
        <ele>208.26</ele>
        <time>2011-12-10T13:41:18Z</time>
      </trkpt>
      <trkpt lat="44.09221" lon="4.04344">
        <ele>208.74</ele>
        <time>2011-12-10T13:41:19Z</time>
      </trkpt>
      <trkpt lat="44.09219" lon="4.04348">
        <ele>208.26</ele>
        <time>2011-12-10T13:41:20Z</time>
      </trkpt>
      <trkpt lat="44.09217" lon="4.04353">
        <ele>208.26</ele>
        <time>2011-12-10T13:41:21Z</time>
      </trkpt>
      <trkpt lat="44.09215" lon="4.04359">
        <ele>208.74</ele>
        <time>2011-12-10T13:41:22Z</time>
      </trkpt>
      <trkpt lat="44.0921" lon="4.04373">
        <ele>207.3</ele>
        <time>2011-12-10T13:41:24Z</time>
      </trkpt>
      <trkpt lat="44.09206" lon="4.04379">
        <ele>207.3</ele>
        <time>2011-12-10T13:41:25Z</time>
      </trkpt>
      <trkpt lat="44.0919" lon="4.04401">
        <ele>203.94</ele>
        <time>2011-12-10T13:41:29Z</time>
      </trkpt>
      <trkpt lat="44.09187" lon="4.04406">
        <ele>203.46</ele>
        <time>2011-12-10T13:41:30Z</time>
      </trkpt>
      <trkpt lat="44.09179" lon="4.04423">
        <ele>202.98</ele>
        <time>2011-12-10T13:41:34Z</time>
      </trkpt>
      <trkpt lat="44.09177" lon="4.04428">
        <ele>202.49</ele>
        <time>2011-12-10T13:41:35Z</time>
      </trkpt>
      <trkpt lat="44.09174" lon="4.04433">
        <ele>202.01</ele>
        <time>2011-12-10T13:41:36Z</time>
      </trkpt>
      <trkpt lat="44.09172" lon="4.04438">
        <ele>201.05</ele>
        <time>2011-12-10T13:41:37Z</time>
      </trkpt>
      <trkpt lat="44.0917" lon="4.04442">
        <ele>200.57</ele>
        <time>2011-12-10T13:41:38Z</time>
      </trkpt>
      <trkpt lat="44.09169" lon="4.04448">
        <ele>200.57</ele>
        <time>2011-12-10T13:41:39Z</time>
      </trkpt>
      <trkpt lat="44.09167" lon="4.04454">
        <ele>201.05</ele>
        <time>2011-12-10T13:41:40Z</time>
      </trkpt>
      <trkpt lat="44.09165" lon="4.0446">
        <ele>200.57</ele>
        <time>2011-12-10T13:41:41Z</time>
      </trkpt>
      <trkpt lat="44.09162" lon="4.04466">
        <ele>199.61</ele>
        <time>2011-12-10T13:41:42Z</time>
      </trkpt>
      <trkpt lat="44.0916" lon="4.04473">
        <ele>199.13</ele>
        <time>2011-12-10T13:41:43Z</time>
      </trkpt>
      <trkpt lat="44.09158" lon="4.0448">
        <ele>199.13</ele>
        <time>2011-12-10T13:41:44Z</time>
      </trkpt>
      <trkpt lat="44.09156" lon="4.04487">
        <ele>198.65</ele>
        <time>2011-12-10T13:41:45Z</time>
      </trkpt>
      <trkpt lat="44.09156" lon="4.04495">
        <ele>198.65</ele>
        <time>2011-12-10T13:41:46Z</time>
      </trkpt>
      <trkpt lat="44.09155" lon="4.04502">
        <ele>198.17</ele>
        <time>2011-12-10T13:41:47Z</time>
      </trkpt>
      <trkpt lat="44.09154" lon="4.0451">
        <ele>198.17</ele>
        <time>2011-12-10T13:41:48Z</time>
      </trkpt>
      <trkpt lat="44.09152" lon="4.04516">
        <ele>197.69</ele>
        <time>2011-12-10T13:41:49Z</time>
      </trkpt>
      <trkpt lat="44.0915" lon="4.04531">
        <ele>196.73</ele>
        <time>2011-12-10T13:41:55Z</time>
      </trkpt>
      <trkpt lat="44.09145" lon="4.04535">
        <ele>195.77</ele>
        <time>2011-12-10T13:42:03Z</time>
      </trkpt>
      <trkpt lat="44.09143" lon="4.04534">
        <ele>195.28</ele>
        <time>2011-12-10T13:42:04Z</time>
      </trkpt>
      <trkpt lat="44.09141" lon="4.04534">
        <ele>195.77</ele>
        <time>2011-12-10T13:42:05Z</time>
      </trkpt>
      <trkpt lat="44.09139" lon="4.04534">
        <ele>196.25</ele>
        <time>2011-12-10T13:42:07Z</time>
      </trkpt>
      <trkpt lat="44.09138" lon="4.04533">
        <ele>196.73</ele>
        <time>2011-12-10T13:42:08Z</time>
      </trkpt>
      <trkpt lat="44.09137" lon="4.04532">
        <ele>197.21</ele>
        <time>2011-12-10T13:42:09Z</time>
      </trkpt>
      <trkpt lat="44.09136" lon="4.04531">
        <ele>197.21</ele>
        <time>2011-12-10T13:42:22Z</time>
      </trkpt>
      <trkpt lat="44.09136" lon="4.0453">
        <ele>197.21</ele>
        <time>2011-12-10T13:42:31Z</time>
      </trkpt>
      <trkpt lat="44.09136" lon="4.04528">
        <ele>196.73</ele>
        <time>2011-12-10T13:42:32Z</time>
      </trkpt>
      <trkpt lat="44.09136" lon="4.04527">
        <ele>197.21</ele>
        <time>2011-12-10T13:42:33Z</time>
      </trkpt>
      <trkpt lat="44.09136" lon="4.04525">
        <ele>197.21</ele>
        <time>2011-12-10T13:42:34Z</time>
      </trkpt>
      <trkpt lat="44.09136" lon="4.04522">
        <ele>197.21</ele>
        <time>2011-12-10T13:42:35Z</time>
      </trkpt>
      <trkpt lat="44.09136" lon="4.0452">
        <ele>197.69</ele>
        <time>2011-12-10T13:42:36Z</time>
      </trkpt>
      <trkpt lat="44.09138" lon="4.04516">
        <ele>198.17</ele>
        <time>2011-12-10T13:42:40Z</time>
      </trkpt>
      <trkpt lat="44.09139" lon="4.04515">
        <ele>197.69</ele>
        <time>2011-12-10T13:42:56Z</time>
      </trkpt>
      <trkpt lat="44.0914" lon="4.04509">
        <ele>197.69</ele>
        <time>2011-12-10T13:43:00Z</time>
      </trkpt>
      <trkpt lat="44.09147" lon="4.04479">
        <ele>199.13</ele>
        <time>2011-12-10T13:43:10Z</time>
      </trkpt>
      <trkpt lat="44.09153" lon="4.04442">
        <ele>202.49</ele>
        <time>2011-12-10T13:43:22Z</time>
      </trkpt>
      <trkpt lat="44.09153" lon="4.04435">
        <ele>203.46</ele>
        <time>2011-12-10T13:43:24Z</time>
      </trkpt>
      <trkpt lat="44.09157" lon="4.04419">
        <ele>205.38</ele>
        <time>2011-12-10T13:43:29Z</time>
      </trkpt>
      <trkpt lat="44.09175" lon="4.04393">
        <ele>206.82</ele>
        <time>2011-12-10T13:43:39Z</time>
      </trkpt>
      <trkpt lat="44.09189" lon="4.04368">
        <ele>206.34</ele>
        <time>2011-12-10T13:43:46Z</time>
      </trkpt>
      <trkpt lat="44.0919" lon="4.04352">
        <ele>207.78</ele>
        <time>2011-12-10T13:43:50Z</time>
      </trkpt>
      <trkpt lat="44.09211" lon="4.04315">
        <ele>210.19</ele>
        <time>2011-12-10T13:44:03Z</time>
      </trkpt>
      <trkpt lat="44.09234" lon="4.04309">
        <ele>209.7</ele>
        <time>2011-12-10T13:44:14Z</time>
      </trkpt>
      <trkpt lat="44.09245" lon="4.04305">
        <ele>211.15</ele>
        <time>2011-12-10T13:44:23Z</time>
      </trkpt>
      <trkpt lat="44.09258" lon="4.04297">
        <ele>212.11</ele>
        <time>2011-12-10T13:44:33Z</time>
      </trkpt>
      <trkpt lat="44.09262" lon="4.04293">
        <ele>211.63</ele>
        <time>2011-12-10T13:44:44Z</time>
      </trkpt>
      <trkpt lat="44.09262" lon="4.04293">
        <ele>212.11</ele>
        <time>2011-12-10T13:44:46Z</time>
      </trkpt>
      <trkpt lat="44.09267" lon="4.04287">
        <ele>213.07</ele>
        <time>2011-12-10T13:44:55Z</time>
      </trkpt>
      <trkpt lat="44.09278" lon="4.04281">
        <ele>215.47</ele>
        <time>2011-12-10T13:45:07Z</time>
      </trkpt>
      <trkpt lat="44.09282" lon="4.04273">
        <ele>216.43</ele>
        <time>2011-12-10T13:45:15Z</time>
      </trkpt>
      <trkpt lat="44.09285" lon="4.04267">
        <ele>216.91</ele>
        <time>2011-12-10T13:45:20Z</time>
      </trkpt>
      <trkpt lat="44.09288" lon="4.04254">
        <ele>217.88</ele>
        <time>2011-12-10T13:45:29Z</time>
      </trkpt>
      <trkpt lat="44.09289" lon="4.04249">
        <ele>217.88</ele>
        <time>2011-12-10T13:45:32Z</time>
      </trkpt>
      <trkpt lat="44.09285" lon="4.04225">
        <ele>219.8</ele>
        <time>2011-12-10T13:45:43Z</time>
      </trkpt>
      <trkpt lat="44.0928" lon="4.04208">
        <ele>221.24</ele>
        <time>2011-12-10T13:45:53Z</time>
      </trkpt>
      <trkpt lat="44.09279" lon="4.04204">
        <ele>222.68</ele>
        <time>2011-12-10T13:45:56Z</time>
      </trkpt>
      <trkpt lat="44.09274" lon="4.04196">
        <ele>224.61</ele>
        <time>2011-12-10T13:46:04Z</time>
      </trkpt>
      <trkpt lat="44.09272" lon="4.04188">
        <ele>226.53</ele>
        <time>2011-12-10T13:46:16Z</time>
      </trkpt>
      <trkpt lat="44.09272" lon="4.04186">
        <ele>226.53</ele>
        <time>2011-12-10T13:46:19Z</time>
      </trkpt>
      <trkpt lat="44.09271" lon="4.04179">
        <ele>228.93</ele>
        <time>2011-12-10T13:46:24Z</time>
      </trkpt>
      <trkpt lat="44.09274" lon="4.04171">
        <ele>229.41</ele>
        <time>2011-12-10T13:46:29Z</time>
      </trkpt>
      <trkpt lat="44.09273" lon="4.04167">
        <ele>230.37</ele>
        <time>2011-12-10T13:46:32Z</time>
      </trkpt>
      <trkpt lat="44.09271" lon="4.04162">
        <ele>229.89</ele>
        <time>2011-12-10T13:46:36Z</time>
      </trkpt>
      <trkpt lat="44.09266" lon="4.04149">
        <ele>231.81</ele>
        <time>2011-12-10T13:46:48Z</time>
      </trkpt>
      <trkpt lat="44.09266" lon="4.04146">
        <ele>232.3</ele>
        <time>2011-12-10T13:46:50Z</time>
      </trkpt>
      <trkpt lat="44.09261" lon="4.04133">
        <ele>234.22</ele>
        <time>2011-12-10T13:47:03Z</time>
      </trkpt>
      <trkpt lat="44.09261" lon="4.04133">
        <ele>233.26</ele>
        <time>2011-12-10T13:47:24Z</time>
      </trkpt>
      <trkpt lat="44.09261" lon="4.04133">
        <ele>233.74</ele>
        <time>2011-12-10T13:47:45Z</time>
      </trkpt>
      <trkpt lat="44.09261" lon="4.04132">
        <ele>233.26</ele>
        <time>2011-12-10T13:48:09Z</time>
      </trkpt>
      <trkpt lat="44.09261" lon="4.04132">
        <ele>233.74</ele>
        <time>2011-12-10T13:48:36Z</time>
      </trkpt>
      <trkpt lat="44.09261" lon="4.04132">
        <ele>233.74</ele>
        <time>2011-12-10T13:48:46Z</time>
      </trkpt>
      <trkpt lat="44.09257" lon="4.04125">
        <ele>234.7</ele>
        <time>2011-12-10T13:48:52Z</time>
      </trkpt>
      <trkpt lat="44.0925" lon="4.04121">
        <ele>235.18</ele>
        <time>2011-12-10T13:48:57Z</time>
      </trkpt>
      <trkpt lat="44.0924" lon="4.04108">
        <ele>237.1</ele>
        <time>2011-12-10T13:49:05Z</time>
      </trkpt>
      <trkpt lat="44.09237" lon="4.04103">
        <ele>238.54</ele>
        <time>2011-12-10T13:49:08Z</time>
      </trkpt>
      <trkpt lat="44.09228" lon="4.04084">
        <ele>239.51</ele>
        <time>2011-12-10T13:49:19Z</time>
      </trkpt>
      <trkpt lat="44.09218" lon="4.04064">
        <ele>240.95</ele>
        <time>2011-12-10T13:49:30Z</time>
      </trkpt>
      <trkpt lat="44.09209" lon="4.04051">
        <ele>242.87</ele>
        <time>2011-12-10T13:49:37Z</time>
      </trkpt>
      <trkpt lat="44.09203" lon="4.04039">
        <ele>244.31</ele>
        <time>2011-12-10T13:49:44Z</time>
      </trkpt>
      <trkpt lat="44.09199" lon="4.04034">
        <ele>244.79</ele>
        <time>2011-12-10T13:49:48Z</time>
      </trkpt>
      <trkpt lat="44.09189" lon="4.04027">
        <ele>248.16</ele>
        <time>2011-12-10T13:49:57Z</time>
      </trkpt>
      <trkpt lat="44.09188" lon="4.04027">
        <ele>248.16</ele>
        <time>2011-12-10T13:49:58Z</time>
      </trkpt>
      <trkpt lat="44.09183" lon="4.04023">
        <ele>250.08</ele>
        <time>2011-12-10T13:50:04Z</time>
      </trkpt>
      <trkpt lat="44.09168" lon="4.04007">
        <ele>252.96</ele>
        <time>2011-12-10T13:50:14Z</time>
      </trkpt>
      <trkpt lat="44.09167" lon="4.04007">
        <ele>253.44</ele>
        <time>2011-12-10T13:50:15Z</time>
      </trkpt>
      <trkpt lat="44.09166" lon="4.04005">
        <ele>253.93</ele>
        <time>2011-12-10T13:50:16Z</time>
      </trkpt>
      <trkpt lat="44.09149" lon="4.03983">
        <ele>256.33</ele>
        <time>2011-12-10T13:50:28Z</time>
      </trkpt>
      <trkpt lat="44.09146" lon="4.03978">
        <ele>256.81</ele>
        <time>2011-12-10T13:50:31Z</time>
      </trkpt>
      <trkpt lat="44.09132" lon="4.0396">
        <ele>260.17</ele>
        <time>2011-12-10T13:50:43Z</time>
      </trkpt>
      <trkpt lat="44.09127" lon="4.03954">
        <ele>261.14</ele>
        <time>2011-12-10T13:50:47Z</time>
      </trkpt>
      <trkpt lat="44.09125" lon="4.0395">
        <ele>261.62</ele>
        <time>2011-12-10T13:50:49Z</time>
      </trkpt>
      <trkpt lat="44.09119" lon="4.0394">
        <ele>263.54</ele>
        <time>2011-12-10T13:50:56Z</time>
      </trkpt>
      <trkpt lat="44.09111" lon="4.03931">
        <ele>264.5</ele>
        <time>2011-12-10T13:51:03Z</time>
      </trkpt>
      <trkpt lat="44.09095" lon="4.03917">
        <ele>266.42</ele>
        <time>2011-12-10T13:51:16Z</time>
      </trkpt>
      <trkpt lat="44.09094" lon="4.03916">
        <ele>265.46</ele>
        <time>2011-12-10T13:51:17Z</time>
      </trkpt>
      <trkpt lat="44.09076" lon="4.039">
        <ele>267.86</ele>
        <time>2011-12-10T13:51:31Z</time>
      </trkpt>
      <trkpt lat="44.09073" lon="4.03898">
        <ele>268.35</ele>
        <time>2011-12-10T13:51:33Z</time>
      </trkpt>
      <trkpt lat="44.0906" lon="4.03894">
        <ele>269.79</ele>
        <time>2011-12-10T13:51:40Z</time>
      </trkpt>
      <trkpt lat="44.09056" lon="4.03886">
        <ele>269.79</ele>
        <time>2011-12-10T13:51:45Z</time>
      </trkpt>
      <trkpt lat="44.09052" lon="4.03872">
        <ele>271.23</ele>
        <time>2011-12-10T13:51:58Z</time>
      </trkpt>
      <trkpt lat="44.09052" lon="4.03872">
        <ele>271.23</ele>
        <time>2011-12-10T13:52:17Z</time>
      </trkpt>
      <trkpt lat="44.09051" lon="4.03871">
        <ele>270.75</ele>
        <time>2011-12-10T13:52:31Z</time>
      </trkpt>
      <trkpt lat="44.09045" lon="4.03863">
        <ele>271.23</ele>
        <time>2011-12-10T13:52:35Z</time>
      </trkpt>
      <trkpt lat="44.09012" lon="4.03843">
        <ele>270.27</ele>
        <time>2011-12-10T13:52:48Z</time>
      </trkpt>
      <trkpt lat="44.08985" lon="4.03828">
        <ele>270.75</ele>
        <time>2011-12-10T13:52:57Z</time>
      </trkpt>
      <trkpt lat="44.08982" lon="4.03825">
        <ele>271.23</ele>
        <time>2011-12-10T13:52:58Z</time>
      </trkpt>
      <trkpt lat="44.08965" lon="4.03808">
        <ele>271.23</ele>
        <time>2011-12-10T13:53:03Z</time>
      </trkpt>
      <trkpt lat="44.08955" lon="4.03802">
        <ele>271.71</ele>
        <time>2011-12-10T13:53:06Z</time>
      </trkpt>
      <trkpt lat="44.08951" lon="4.03801">
        <ele>271.71</ele>
        <time>2011-12-10T13:53:07Z</time>
      </trkpt>
      <trkpt lat="44.08948" lon="4.03798">
        <ele>271.71</ele>
        <time>2011-12-10T13:53:08Z</time>
      </trkpt>
      <trkpt lat="44.08945" lon="4.03794">
        <ele>272.19</ele>
        <time>2011-12-10T13:53:09Z</time>
      </trkpt>
      <trkpt lat="44.08942" lon="4.0379">
        <ele>271.71</ele>
        <time>2011-12-10T13:53:10Z</time>
      </trkpt>
      <trkpt lat="44.08938" lon="4.03785">
        <ele>271.23</ele>
        <time>2011-12-10T13:53:11Z</time>
      </trkpt>
      <trkpt lat="44.08934" lon="4.0378">
        <ele>270.75</ele>
        <time>2011-12-10T13:53:12Z</time>
      </trkpt>
      <trkpt lat="44.0893" lon="4.03777">
        <ele>270.75</ele>
        <time>2011-12-10T13:53:13Z</time>
      </trkpt>
      <trkpt lat="44.08925" lon="4.03774">
        <ele>270.75</ele>
        <time>2011-12-10T13:53:14Z</time>
      </trkpt>
      <trkpt lat="44.08913" lon="4.03764">
        <ele>271.23</ele>
        <time>2011-12-10T13:53:17Z</time>
      </trkpt>
      <trkpt lat="44.08911" lon="4.0376">
        <ele>271.23</ele>
        <time>2011-12-10T13:53:18Z</time>
      </trkpt>
      <trkpt lat="44.08908" lon="4.03756">
        <ele>271.23</ele>
        <time>2011-12-10T13:53:19Z</time>
      </trkpt>
      <trkpt lat="44.08904" lon="4.03753">
        <ele>271.23</ele>
        <time>2011-12-10T13:53:20Z</time>
      </trkpt>
      <trkpt lat="44.089" lon="4.03749">
        <ele>271.23</ele>
        <time>2011-12-10T13:53:21Z</time>
      </trkpt>
      <trkpt lat="44.08897" lon="4.03744">
        <ele>270.75</ele>
        <time>2011-12-10T13:53:22Z</time>
      </trkpt>
      <trkpt lat="44.08893" lon="4.0374">
        <ele>270.27</ele>
        <time>2011-12-10T13:53:23Z</time>
      </trkpt>
      <trkpt lat="44.08889" lon="4.03736">
        <ele>270.75</ele>
        <time>2011-12-10T13:53:24Z</time>
      </trkpt>
      <trkpt lat="44.08864" lon="4.03705">
        <ele>273.63</ele>
        <time>2011-12-10T13:53:33Z</time>
      </trkpt>
      <trkpt lat="44.08842" lon="4.03682">
        <ele>275.07</ele>
        <time>2011-12-10T13:53:43Z</time>
      </trkpt>
      <trkpt lat="44.08821" lon="4.03653">
        <ele>276.04</ele>
        <time>2011-12-10T13:53:53Z</time>
      </trkpt>
      <trkpt lat="44.08806" lon="4.03629">
        <ele>276.04</ele>
        <time>2011-12-10T13:53:59Z</time>
      </trkpt>
      <trkpt lat="44.08805" lon="4.03624">
        <ele>276.04</ele>
        <time>2011-12-10T13:54:00Z</time>
      </trkpt>
      <trkpt lat="44.088" lon="4.03586">
        <ele>276.52</ele>
        <time>2011-12-10T13:54:07Z</time>
      </trkpt>
      <trkpt lat="44.08801" lon="4.0357">
        <ele>277</ele>
        <time>2011-12-10T13:54:10Z</time>
      </trkpt>
      <trkpt lat="44.08802" lon="4.03539">
        <ele>276.04</ele>
        <time>2011-12-10T13:54:15Z</time>
      </trkpt>
      <trkpt lat="44.08802" lon="4.03533">
        <ele>277</ele>
        <time>2011-12-10T13:54:16Z</time>
      </trkpt>
      <trkpt lat="44.08803" lon="4.03527">
        <ele>276.04</ele>
        <time>2011-12-10T13:54:17Z</time>
      </trkpt>
      <trkpt lat="44.08813" lon="4.03461">
        <ele>277.48</ele>
        <time>2011-12-10T13:54:28Z</time>
      </trkpt>
      <trkpt lat="44.08815" lon="4.03456">
        <ele>277.96</ele>
        <time>2011-12-10T13:54:29Z</time>
      </trkpt>
      <trkpt lat="44.08815" lon="4.03449">
        <ele>278.44</ele>
        <time>2011-12-10T13:54:30Z</time>
      </trkpt>
      <trkpt lat="44.08815" lon="4.03444">
        <ele>278.44</ele>
        <time>2011-12-10T13:54:31Z</time>
      </trkpt>
      <trkpt lat="44.08814" lon="4.03438">
        <ele>278.44</ele>
        <time>2011-12-10T13:54:32Z</time>
      </trkpt>
      <trkpt lat="44.08814" lon="4.03432">
        <ele>277.96</ele>
        <time>2011-12-10T13:54:33Z</time>
      </trkpt>
      <trkpt lat="44.08814" lon="4.03427">
        <ele>277.96</ele>
        <time>2011-12-10T13:54:34Z</time>
      </trkpt>
      <trkpt lat="44.08814" lon="4.03421">
        <ele>277.96</ele>
        <time>2011-12-10T13:54:35Z</time>
      </trkpt>
      <trkpt lat="44.08815" lon="4.03388">
        <ele>278.92</ele>
        <time>2011-12-10T13:54:41Z</time>
      </trkpt>
      <trkpt lat="44.08815" lon="4.03382">
        <ele>279.4</ele>
        <time>2011-12-10T13:54:42Z</time>
      </trkpt>
      <trkpt lat="44.08818" lon="4.03363">
        <ele>278.44</ele>
        <time>2011-12-10T13:54:45Z</time>
      </trkpt>
      <trkpt lat="44.08823" lon="4.03333">
        <ele>279.4</ele>
        <time>2011-12-10T13:54:50Z</time>
      </trkpt>
      <trkpt lat="44.08824" lon="4.03327">
        <ele>279.4</ele>
        <time>2011-12-10T13:54:51Z</time>
      </trkpt>
      <trkpt lat="44.08824" lon="4.0332">
        <ele>280.36</ele>
        <time>2011-12-10T13:54:52Z</time>
      </trkpt>
      <trkpt lat="44.08825" lon="4.03314">
        <ele>280.36</ele>
        <time>2011-12-10T13:54:53Z</time>
      </trkpt>
      <trkpt lat="44.08824" lon="4.03308">
        <ele>280.84</ele>
        <time>2011-12-10T13:54:54Z</time>
      </trkpt>
      <trkpt lat="44.08823" lon="4.03302">
        <ele>280.84</ele>
        <time>2011-12-10T13:54:55Z</time>
      </trkpt>
      <trkpt lat="44.08821" lon="4.03296">
        <ele>280.84</ele>
        <time>2011-12-10T13:54:56Z</time>
      </trkpt>
      <trkpt lat="44.08817" lon="4.03284">
        <ele>280.84</ele>
        <time>2011-12-10T13:54:58Z</time>
      </trkpt>
      <trkpt lat="44.08812" lon="4.03274">
        <ele>281.32</ele>
        <time>2011-12-10T13:55:00Z</time>
      </trkpt>
      <trkpt lat="44.08812" lon="4.03269">
        <ele>281.32</ele>
        <time>2011-12-10T13:55:01Z</time>
      </trkpt>
      <trkpt lat="44.08812" lon="4.03263">
        <ele>281.32</ele>
        <time>2011-12-10T13:55:02Z</time>
      </trkpt>
      <trkpt lat="44.08814" lon="4.03235">
        <ele>283.25</ele>
        <time>2011-12-10T13:55:07Z</time>
      </trkpt>
      <trkpt lat="44.08813" lon="4.0323">
        <ele>283.25</ele>
        <time>2011-12-10T13:55:08Z</time>
      </trkpt>
      <trkpt lat="44.08811" lon="4.03226">
        <ele>283.73</ele>
        <time>2011-12-10T13:55:09Z</time>
      </trkpt>
      <trkpt lat="44.08809" lon="4.03222">
        <ele>283.25</ele>
        <time>2011-12-10T13:55:10Z</time>
      </trkpt>
      <trkpt lat="44.08807" lon="4.03219">
        <ele>283.73</ele>
        <time>2011-12-10T13:55:11Z</time>
      </trkpt>
      <trkpt lat="44.08804" lon="4.03216">
        <ele>283.73</ele>
        <time>2011-12-10T13:55:12Z</time>
      </trkpt>
      <trkpt lat="44.08803" lon="4.03212">
        <ele>283.73</ele>
        <time>2011-12-10T13:55:13Z</time>
      </trkpt>
      <trkpt lat="44.08801" lon="4.03207">
        <ele>284.21</ele>
        <time>2011-12-10T13:55:14Z</time>
      </trkpt>
      <trkpt lat="44.088" lon="4.03204">
        <ele>283.73</ele>
        <time>2011-12-10T13:55:15Z</time>
      </trkpt>
      <trkpt lat="44.088" lon="4.032">
        <ele>283.73</ele>
        <time>2011-12-10T13:55:16Z</time>
      </trkpt>
      <trkpt lat="44.08786" lon="4.03165">
        <ele>285.65</ele>
        <time>2011-12-10T13:55:26Z</time>
      </trkpt>
      <trkpt lat="44.08774" lon="4.03124">
        <ele>287.09</ele>
        <time>2011-12-10T13:55:37Z</time>
      </trkpt>
      <trkpt lat="44.08762" lon="4.0308">
        <ele>288.53</ele>
        <time>2011-12-10T13:55:47Z</time>
      </trkpt>
      <trkpt lat="44.08749" lon="4.03058">
        <ele>289.01</ele>
        <time>2011-12-10T13:55:52Z</time>
      </trkpt>
      <trkpt lat="44.08747" lon="4.03053">
        <ele>289.01</ele>
        <time>2011-12-10T13:55:53Z</time>
      </trkpt>
      <trkpt lat="44.08746" lon="4.03047">
        <ele>289.01</ele>
        <time>2011-12-10T13:55:54Z</time>
      </trkpt>
      <trkpt lat="44.08744" lon="4.03042">
        <ele>289.49</ele>
        <time>2011-12-10T13:55:55Z</time>
      </trkpt>
      <trkpt lat="44.08743" lon="4.03037">
        <ele>289.49</ele>
        <time>2011-12-10T13:55:56Z</time>
      </trkpt>
      <trkpt lat="44.08719" lon="4.03008">
        <ele>290.94</ele>
        <time>2011-12-10T13:56:06Z</time>
      </trkpt>
      <trkpt lat="44.08695" lon="4.02985">
        <ele>292.86</ele>
        <time>2011-12-10T13:56:16Z</time>
      </trkpt>
      <trkpt lat="44.08662" lon="4.02957">
        <ele>295.26</ele>
        <time>2011-12-10T13:56:28Z</time>
      </trkpt>
      <trkpt lat="44.08628" lon="4.02938">
        <ele>296.7</ele>
        <time>2011-12-10T13:56:41Z</time>
      </trkpt>
      <trkpt lat="44.08621" lon="4.0293">
        <ele>297.67</ele>
        <time>2011-12-10T13:56:45Z</time>
      </trkpt>
      <trkpt lat="44.08621" lon="4.02928">
        <ele>297.18</ele>
        <time>2011-12-10T13:56:46Z</time>
      </trkpt>
      <trkpt lat="44.08621" lon="4.02925">
        <ele>297.18</ele>
        <time>2011-12-10T13:56:47Z</time>
      </trkpt>
      <trkpt lat="44.08622" lon="4.02923">
        <ele>297.67</ele>
        <time>2011-12-10T13:56:48Z</time>
      </trkpt>
      <trkpt lat="44.08622" lon="4.02922">
        <ele>297.67</ele>
        <time>2011-12-10T13:56:49Z</time>
      </trkpt>
      <trkpt lat="44.08629" lon="4.02912">
        <ele>298.63</ele>
        <time>2011-12-10T13:57:02Z</time>
      </trkpt>
      <trkpt lat="44.0863" lon="4.02911">
        <ele>298.63</ele>
        <time>2011-12-10T13:57:03Z</time>
      </trkpt>
      <trkpt lat="44.08637" lon="4.02905">
        <ele>299.11</ele>
        <time>2011-12-10T13:57:13Z</time>
      </trkpt>
      <trkpt lat="44.08638" lon="4.02905">
        <ele>299.59</ele>
        <time>2011-12-10T13:57:14Z</time>
      </trkpt>
      <trkpt lat="44.08639" lon="4.02904">
        <ele>299.11</ele>
        <time>2011-12-10T13:57:15Z</time>
      </trkpt>
      <trkpt lat="44.0864" lon="4.02903">
        <ele>299.59</ele>
        <time>2011-12-10T13:57:16Z</time>
      </trkpt>
      <trkpt lat="44.08642" lon="4.02903">
        <ele>299.11</ele>
        <time>2011-12-10T13:57:18Z</time>
      </trkpt>
      <trkpt lat="44.08643" lon="4.02903">
        <ele>299.11</ele>
        <time>2011-12-10T13:57:19Z</time>
      </trkpt>
      <trkpt lat="44.08644" lon="4.02903">
        <ele>299.11</ele>
        <time>2011-12-10T13:57:20Z</time>
      </trkpt>
      <trkpt lat="44.08647" lon="4.02903">
        <ele>300.07</ele>
        <time>2011-12-10T13:57:24Z</time>
      </trkpt>
      <trkpt lat="44.08648" lon="4.02902">
        <ele>300.07</ele>
        <time>2011-12-10T13:57:25Z</time>
      </trkpt>
      <trkpt lat="44.08649" lon="4.02902">
        <ele>300.55</ele>
        <time>2011-12-10T13:57:26Z</time>
      </trkpt>
      <trkpt lat="44.0865" lon="4.02902">
        <ele>300.55</ele>
        <time>2011-12-10T13:57:27Z</time>
      </trkpt>
      <trkpt lat="44.08651" lon="4.02903">
        <ele>300.07</ele>
        <time>2011-12-10T13:57:28Z</time>
      </trkpt>
      <trkpt lat="44.08658" lon="4.02905">
        <ele>301.03</ele>
        <time>2011-12-10T13:57:36Z</time>
      </trkpt>
      <trkpt lat="44.08675" lon="4.02896">
        <ele>302.47</ele>
        <time>2011-12-10T13:57:47Z</time>
      </trkpt>
      <trkpt lat="44.08675" lon="4.02894">
        <ele>302.47</ele>
        <time>2011-12-10T13:57:48Z</time>
      </trkpt>
      <trkpt lat="44.08673" lon="4.02889">
        <ele>302.47</ele>
        <time>2011-12-10T13:57:50Z</time>
      </trkpt>
      <trkpt lat="44.08672" lon="4.02888">
        <ele>302.47</ele>
        <time>2011-12-10T13:57:51Z</time>
      </trkpt>
      <trkpt lat="44.08671" lon="4.02887">
        <ele>302.95</ele>
        <time>2011-12-10T13:57:52Z</time>
      </trkpt>
      <trkpt lat="44.0867" lon="4.02886">
        <ele>302.95</ele>
        <time>2011-12-10T13:57:53Z</time>
      </trkpt>
      <trkpt lat="44.08669" lon="4.02886">
        <ele>303.43</ele>
        <time>2011-12-10T13:57:54Z</time>
      </trkpt>
      <trkpt lat="44.08667" lon="4.02886">
        <ele>302.95</ele>
        <time>2011-12-10T13:57:55Z</time>
      </trkpt>
      <trkpt lat="44.08666" lon="4.02886">
        <ele>303.91</ele>
        <time>2011-12-10T13:57:56Z</time>
      </trkpt>
      <trkpt lat="44.08644" lon="4.02887">
        <ele>304.88</ele>
        <time>2011-12-10T13:58:07Z</time>
      </trkpt>
      <trkpt lat="44.08617" lon="4.02868">
        <ele>307.28</ele>
        <time>2011-12-10T13:58:21Z</time>
      </trkpt>
      <trkpt lat="44.0861" lon="4.0286">
        <ele>308.24</ele>
        <time>2011-12-10T13:58:26Z</time>
      </trkpt>
      <trkpt lat="44.08609" lon="4.02857">
        <ele>309.68</ele>
        <time>2011-12-10T13:58:27Z</time>
      </trkpt>
      <trkpt lat="44.0861" lon="4.02855">
        <ele>309.68</ele>
        <time>2011-12-10T13:58:28Z</time>
      </trkpt>
      <trkpt lat="44.08611" lon="4.02853">
        <ele>309.2</ele>
        <time>2011-12-10T13:58:29Z</time>
      </trkpt>
      <trkpt lat="44.08613" lon="4.02852">
        <ele>309.2</ele>
        <time>2011-12-10T13:58:30Z</time>
      </trkpt>
      <trkpt lat="44.08615" lon="4.02852">
        <ele>310.16</ele>
        <time>2011-12-10T13:58:31Z</time>
      </trkpt>
      <trkpt lat="44.08617" lon="4.02851">
        <ele>310.64</ele>
        <time>2011-12-10T13:58:33Z</time>
      </trkpt>
      <trkpt lat="44.08632" lon="4.02857">
        <ele>312.09</ele>
        <time>2011-12-10T13:58:43Z</time>
      </trkpt>
      <trkpt lat="44.08647" lon="4.02856">
        <ele>314.97</ele>
        <time>2011-12-10T13:58:51Z</time>
      </trkpt>
      <trkpt lat="44.0866" lon="4.02853">
        <ele>316.89</ele>
        <time>2011-12-10T13:58:59Z</time>
      </trkpt>
      <trkpt lat="44.08662" lon="4.02853">
        <ele>317.37</ele>
        <time>2011-12-10T13:59:00Z</time>
      </trkpt>
      <trkpt lat="44.08664" lon="4.02853">
        <ele>317.37</ele>
        <time>2011-12-10T13:59:01Z</time>
      </trkpt>
      <trkpt lat="44.08665" lon="4.02852">
        <ele>317.85</ele>
        <time>2011-12-10T13:59:02Z</time>
      </trkpt>
      <trkpt lat="44.08667" lon="4.02851">
        <ele>318.81</ele>
        <time>2011-12-10T13:59:03Z</time>
      </trkpt>
      <trkpt lat="44.08669" lon="4.0285">
        <ele>317.85</ele>
        <time>2011-12-10T13:59:04Z</time>
      </trkpt>
      <trkpt lat="44.08671" lon="4.02849">
        <ele>319.3</ele>
        <time>2011-12-10T13:59:05Z</time>
      </trkpt>
      <trkpt lat="44.08684" lon="4.02841">
        <ele>320.74</ele>
        <time>2011-12-10T13:59:13Z</time>
      </trkpt>
      <trkpt lat="44.08685" lon="4.0284">
        <ele>321.22</ele>
        <time>2011-12-10T13:59:14Z</time>
      </trkpt>
      <trkpt lat="44.08686" lon="4.02839">
        <ele>321.22</ele>
        <time>2011-12-10T13:59:15Z</time>
      </trkpt>
      <trkpt lat="44.08687" lon="4.02838">
        <ele>321.7</ele>
        <time>2011-12-10T13:59:16Z</time>
      </trkpt>
      <trkpt lat="44.08689" lon="4.02836">
        <ele>321.22</ele>
        <time>2011-12-10T13:59:17Z</time>
      </trkpt>
      <trkpt lat="44.08689" lon="4.02835">
        <ele>322.18</ele>
        <time>2011-12-10T13:59:18Z</time>
      </trkpt>
      <trkpt lat="44.0869" lon="4.02833">
        <ele>321.7</ele>
        <time>2011-12-10T13:59:19Z</time>
      </trkpt>
      <trkpt lat="44.0869" lon="4.02797">
        <ele>324.1</ele>
        <time>2011-12-10T13:59:34Z</time>
      </trkpt>
      <trkpt lat="44.08687" lon="4.02763">
        <ele>325.54</ele>
        <time>2011-12-10T13:59:44Z</time>
      </trkpt>
      <trkpt lat="44.08679" lon="4.02718">
        <ele>326.99</ele>
        <time>2011-12-10T13:59:57Z</time>
      </trkpt>
      <trkpt lat="44.08666" lon="4.02665">
        <ele>328.91</ele>
        <time>2011-12-10T14:00:11Z</time>
      </trkpt>
      <trkpt lat="44.08659" lon="4.02629">
        <ele>328.43</ele>
        <time>2011-12-10T14:00:18Z</time>
      </trkpt>
      <trkpt lat="44.08656" lon="4.0259">
        <ele>328.91</ele>
        <time>2011-12-10T14:00:24Z</time>
      </trkpt>
      <trkpt lat="44.08655" lon="4.02584">
        <ele>328.91</ele>
        <time>2011-12-10T14:00:25Z</time>
      </trkpt>
      <trkpt lat="44.08654" lon="4.02579">
        <ele>329.39</ele>
        <time>2011-12-10T14:00:26Z</time>
      </trkpt>
      <trkpt lat="44.08652" lon="4.02573">
        <ele>329.39</ele>
        <time>2011-12-10T14:00:27Z</time>
      </trkpt>
      <trkpt lat="44.0865" lon="4.02568">
        <ele>329.39</ele>
        <time>2011-12-10T14:00:28Z</time>
      </trkpt>
      <trkpt lat="44.08648" lon="4.02562">
        <ele>329.39</ele>
        <time>2011-12-10T14:00:29Z</time>
      </trkpt>
      <trkpt lat="44.08645" lon="4.02556">
        <ele>328.43</ele>
        <time>2011-12-10T14:00:30Z</time>
      </trkpt>
      <trkpt lat="44.08641" lon="4.02549">
        <ele>327.95</ele>
        <time>2011-12-10T14:00:31Z</time>
      </trkpt>
      <trkpt lat="44.08636" lon="4.02542">
        <ele>326.99</ele>
        <time>2011-12-10T14:00:32Z</time>
      </trkpt>
      <trkpt lat="44.0863" lon="4.02534">
        <ele>326.5</ele>
        <time>2011-12-10T14:00:33Z</time>
      </trkpt>
      <trkpt lat="44.08619" lon="4.02519">
        <ele>325.54</ele>
        <time>2011-12-10T14:00:35Z</time>
      </trkpt>
      <trkpt lat="44.08614" lon="4.02511">
        <ele>325.54</ele>
        <time>2011-12-10T14:00:36Z</time>
      </trkpt>
      <trkpt lat="44.08612" lon="4.02503">
        <ele>325.06</ele>
        <time>2011-12-10T14:00:37Z</time>
      </trkpt>
      <trkpt lat="44.08611" lon="4.02495">
        <ele>326.02</ele>
        <time>2011-12-10T14:00:38Z</time>
      </trkpt>
      <trkpt lat="44.08612" lon="4.02469">
        <ele>325.06</ele>
        <time>2011-12-10T14:00:41Z</time>
      </trkpt>
      <trkpt lat="44.08616" lon="4.0244">
        <ele>322.66</ele>
        <time>2011-12-10T14:00:44Z</time>
      </trkpt>
      <trkpt lat="44.08617" lon="4.02429">
        <ele>321.7</ele>
        <time>2011-12-10T14:00:45Z</time>
      </trkpt>
      <trkpt lat="44.08617" lon="4.02417">
        <ele>320.74</ele>
        <time>2011-12-10T14:00:46Z</time>
      </trkpt>
      <trkpt lat="44.08619" lon="4.02404">
        <ele>318.81</ele>
        <time>2011-12-10T14:00:47Z</time>
      </trkpt>
      <trkpt lat="44.0862" lon="4.02392">
        <ele>318.33</ele>
        <time>2011-12-10T14:00:48Z</time>
      </trkpt>
      <trkpt lat="44.08621" lon="4.02379">
        <ele>317.37</ele>
        <time>2011-12-10T14:00:49Z</time>
      </trkpt>
      <trkpt lat="44.08623" lon="4.02365">
        <ele>314.97</ele>
        <time>2011-12-10T14:00:50Z</time>
      </trkpt>
      <trkpt lat="44.08626" lon="4.02339">
        <ele>311.6</ele>
        <time>2011-12-10T14:00:52Z</time>
      </trkpt>
      <trkpt lat="44.08626" lon="4.02328">
        <ele>310.64</ele>
        <time>2011-12-10T14:00:53Z</time>
      </trkpt>
      <trkpt lat="44.08623" lon="4.02307">
        <ele>309.68</ele>
        <time>2011-12-10T14:00:55Z</time>
      </trkpt>
      <trkpt lat="44.08619" lon="4.02298">
        <ele>309.2</ele>
        <time>2011-12-10T14:00:56Z</time>
      </trkpt>
      <trkpt lat="44.08614" lon="4.0229">
        <ele>308.24</ele>
        <time>2011-12-10T14:00:57Z</time>
      </trkpt>
      <trkpt lat="44.08609" lon="4.02282">
        <ele>307.28</ele>
        <time>2011-12-10T14:00:58Z</time>
      </trkpt>
      <trkpt lat="44.08603" lon="4.02274">
        <ele>307.28</ele>
        <time>2011-12-10T14:00:59Z</time>
      </trkpt>
      <trkpt lat="44.08587" lon="4.02245">
        <ele>304.88</ele>
        <time>2011-12-10T14:01:02Z</time>
      </trkpt>
      <trkpt lat="44.08584" lon="4.02235">
        <ele>303.91</ele>
        <time>2011-12-10T14:01:03Z</time>
      </trkpt>
      <trkpt lat="44.08582" lon="4.02224">
        <ele>303.43</ele>
        <time>2011-12-10T14:01:04Z</time>
      </trkpt>
      <trkpt lat="44.0858" lon="4.02215">
        <ele>303.43</ele>
        <time>2011-12-10T14:01:05Z</time>
      </trkpt>
      <trkpt lat="44.08577" lon="4.02205">
        <ele>303.43</ele>
        <time>2011-12-10T14:01:06Z</time>
      </trkpt>
      <trkpt lat="44.08574" lon="4.02195">
        <ele>302.47</ele>
        <time>2011-12-10T14:01:07Z</time>
      </trkpt>
      <trkpt lat="44.0857" lon="4.02185">
        <ele>301.99</ele>
        <time>2011-12-10T14:01:08Z</time>
      </trkpt>
      <trkpt lat="44.08566" lon="4.02175">
        <ele>301.03</ele>
        <time>2011-12-10T14:01:09Z</time>
      </trkpt>
      <trkpt lat="44.08556" lon="4.02143">
        <ele>297.67</ele>
        <time>2011-12-10T14:01:12Z</time>
      </trkpt>
      <trkpt lat="44.08552" lon="4.0213">
        <ele>296.22</ele>
        <time>2011-12-10T14:01:14Z</time>
      </trkpt>
      <trkpt lat="44.08553" lon="4.02125">
        <ele>295.74</ele>
        <time>2011-12-10T14:01:15Z</time>
      </trkpt>
      <trkpt lat="44.08554" lon="4.02122">
        <ele>296.22</ele>
        <time>2011-12-10T14:01:16Z</time>
      </trkpt>
      <trkpt lat="44.08556" lon="4.0212">
        <ele>295.74</ele>
        <time>2011-12-10T14:01:17Z</time>
      </trkpt>
      <trkpt lat="44.08559" lon="4.02118">
        <ele>295.26</ele>
        <time>2011-12-10T14:01:18Z</time>
      </trkpt>
      <trkpt lat="44.08562" lon="4.02117">
        <ele>294.78</ele>
        <time>2011-12-10T14:01:19Z</time>
      </trkpt>
      <trkpt lat="44.08564" lon="4.02117">
        <ele>294.3</ele>
        <time>2011-12-10T14:01:20Z</time>
      </trkpt>
      <trkpt lat="44.08565" lon="4.02116">
        <ele>294.3</ele>
        <time>2011-12-10T14:01:21Z</time>
      </trkpt>
      <trkpt lat="44.08566" lon="4.02115">
        <ele>294.3</ele>
        <time>2011-12-10T14:01:29Z</time>
      </trkpt>
      <trkpt lat="44.08569" lon="4.02116">
        <ele>293.82</ele>
        <time>2011-12-10T14:01:30Z</time>
      </trkpt>
      <trkpt lat="44.0858" lon="4.02114">
        <ele>292.86</ele>
        <time>2011-12-10T14:01:33Z</time>
      </trkpt>
      <trkpt lat="44.08613" lon="4.02105">
        <ele>289.97</ele>
        <time>2011-12-10T14:01:39Z</time>
      </trkpt>
      <trkpt lat="44.0862" lon="4.02103">
        <ele>289.49</ele>
        <time>2011-12-10T14:01:40Z</time>
      </trkpt>
      <trkpt lat="44.08641" lon="4.02098">
        <ele>288.53</ele>
        <time>2011-12-10T14:01:43Z</time>
      </trkpt>
      <trkpt lat="44.08648" lon="4.02097">
        <ele>288.53</ele>
        <time>2011-12-10T14:01:44Z</time>
      </trkpt>
      <trkpt lat="44.08716" lon="4.02089">
        <ele>287.57</ele>
        <time>2011-12-10T14:01:55Z</time>
      </trkpt>
      <trkpt lat="44.08722" lon="4.0209">
        <ele>287.57</ele>
        <time>2011-12-10T14:01:56Z</time>
      </trkpt>
      <trkpt lat="44.08728" lon="4.02092">
        <ele>287.57</ele>
        <time>2011-12-10T14:01:57Z</time>
      </trkpt>
      <trkpt lat="44.08734" lon="4.02094">
        <ele>287.09</ele>
        <time>2011-12-10T14:01:58Z</time>
      </trkpt>
      <trkpt lat="44.0874" lon="4.02097">
        <ele>286.61</ele>
        <time>2011-12-10T14:01:59Z</time>
      </trkpt>
      <trkpt lat="44.08746" lon="4.02101">
        <ele>286.61</ele>
        <time>2011-12-10T14:02:00Z</time>
      </trkpt>
      <trkpt lat="44.08778" lon="4.02116">
        <ele>285.65</ele>
        <time>2011-12-10T14:02:05Z</time>
      </trkpt>
      <trkpt lat="44.08786" lon="4.02116">
        <ele>285.17</ele>
        <time>2011-12-10T14:02:06Z</time>
      </trkpt>
      <trkpt lat="44.08793" lon="4.02115">
        <ele>284.69</ele>
        <time>2011-12-10T14:02:07Z</time>
      </trkpt>
      <trkpt lat="44.088" lon="4.02112">
        <ele>284.21</ele>
        <time>2011-12-10T14:02:08Z</time>
      </trkpt>
      <trkpt lat="44.08807" lon="4.02108">
        <ele>284.69</ele>
        <time>2011-12-10T14:02:09Z</time>
      </trkpt>
      <trkpt lat="44.0882" lon="4.02099">
        <ele>284.21</ele>
        <time>2011-12-10T14:02:11Z</time>
      </trkpt>
      <trkpt lat="44.08825" lon="4.02093">
        <ele>283.73</ele>
        <time>2011-12-10T14:02:12Z</time>
      </trkpt>
      <trkpt lat="44.08829" lon="4.02087">
        <ele>283.73</ele>
        <time>2011-12-10T14:02:13Z</time>
      </trkpt>
      <trkpt lat="44.08833" lon="4.0208">
        <ele>283.73</ele>
        <time>2011-12-10T14:02:14Z</time>
      </trkpt>
      <trkpt lat="44.08836" lon="4.02074">
        <ele>283.73</ele>
        <time>2011-12-10T14:02:15Z</time>
      </trkpt>
      <trkpt lat="44.08839" lon="4.02066">
        <ele>284.21</ele>
        <time>2011-12-10T14:02:16Z</time>
      </trkpt>
      <trkpt lat="44.08858" lon="4.02011">
        <ele>282.77</ele>
        <time>2011-12-10T14:02:23Z</time>
      </trkpt>
      <trkpt lat="44.08869" lon="4.01989">
        <ele>282.77</ele>
        <time>2011-12-10T14:02:26Z</time>
      </trkpt>
      <trkpt lat="44.08894" lon="4.01957">
        <ele>282.77</ele>
        <time>2011-12-10T14:02:32Z</time>
      </trkpt>
      <trkpt lat="44.08898" lon="4.01954">
        <ele>283.25</ele>
        <time>2011-12-10T14:02:33Z</time>
      </trkpt>
      <trkpt lat="44.08904" lon="4.01952">
        <ele>282.77</ele>
        <time>2011-12-10T14:02:34Z</time>
      </trkpt>
      <trkpt lat="44.08909" lon="4.0195">
        <ele>282.77</ele>
        <time>2011-12-10T14:02:35Z</time>
      </trkpt>
      <trkpt lat="44.08914" lon="4.01948">
        <ele>282.28</ele>
        <time>2011-12-10T14:02:36Z</time>
      </trkpt>
      <trkpt lat="44.08919" lon="4.01947">
        <ele>282.77</ele>
        <time>2011-12-10T14:02:37Z</time>
      </trkpt>
      <trkpt lat="44.08924" lon="4.01945">
        <ele>282.77</ele>
        <time>2011-12-10T14:02:38Z</time>
      </trkpt>
      <trkpt lat="44.08929" lon="4.01944">
        <ele>282.77</ele>
        <time>2011-12-10T14:02:39Z</time>
      </trkpt>
      <trkpt lat="44.08938" lon="4.01942">
        <ele>283.73</ele>
        <time>2011-12-10T14:02:41Z</time>
      </trkpt>
      <trkpt lat="44.08943" lon="4.01941">
        <ele>282.77</ele>
        <time>2011-12-10T14:02:42Z</time>
      </trkpt>
      <trkpt lat="44.08953" lon="4.0194">
        <ele>281.32</ele>
        <time>2011-12-10T14:02:44Z</time>
      </trkpt>
      <trkpt lat="44.08966" lon="4.0194">
        <ele>280.36</ele>
        <time>2011-12-10T14:02:46Z</time>
      </trkpt>
      <trkpt lat="44.08978" lon="4.01939">
        <ele>278.92</ele>
        <time>2011-12-10T14:02:48Z</time>
      </trkpt>
      <trkpt lat="44.08984" lon="4.0194">
        <ele>278.44</ele>
        <time>2011-12-10T14:02:49Z</time>
      </trkpt>
      <trkpt lat="44.0899" lon="4.01944">
        <ele>277.48</ele>
        <time>2011-12-10T14:02:50Z</time>
      </trkpt>
      <trkpt lat="44.08996" lon="4.01949">
        <ele>277</ele>
        <time>2011-12-10T14:02:51Z</time>
      </trkpt>
      <trkpt lat="44.09002" lon="4.01954">
        <ele>276.52</ele>
        <time>2011-12-10T14:02:52Z</time>
      </trkpt>
      <trkpt lat="44.09008" lon="4.0196">
        <ele>275.56</ele>
        <time>2011-12-10T14:02:53Z</time>
      </trkpt>
      <trkpt lat="44.09028" lon="4.0198">
        <ele>272.19</ele>
        <time>2011-12-10T14:02:56Z</time>
      </trkpt>
      <trkpt lat="44.09038" lon="4.01991">
        <ele>270.75</ele>
        <time>2011-12-10T14:02:58Z</time>
      </trkpt>
      <trkpt lat="44.09049" lon="4.01999">
        <ele>268.35</ele>
        <time>2011-12-10T14:03:01Z</time>
      </trkpt>
      <trkpt lat="44.09076" lon="4.01989">
        <ele>266.42</ele>
        <time>2011-12-10T14:03:10Z</time>
      </trkpt>
      <trkpt lat="44.0908" lon="4.01989">
        <ele>265.94</ele>
        <time>2011-12-10T14:03:11Z</time>
      </trkpt>
      <trkpt lat="44.09084" lon="4.0199">
        <ele>264.98</ele>
        <time>2011-12-10T14:03:12Z</time>
      </trkpt>
      <trkpt lat="44.09089" lon="4.01992">
        <ele>265.46</ele>
        <time>2011-12-10T14:03:13Z</time>
      </trkpt>
      <trkpt lat="44.09093" lon="4.01996">
        <ele>264.98</ele>
        <time>2011-12-10T14:03:14Z</time>
      </trkpt>
      <trkpt lat="44.09096" lon="4.02">
        <ele>264.02</ele>
        <time>2011-12-10T14:03:15Z</time>
      </trkpt>
      <trkpt lat="44.091" lon="4.02004">
        <ele>264.02</ele>
        <time>2011-12-10T14:03:16Z</time>
      </trkpt>
      <trkpt lat="44.09103" lon="4.02008">
        <ele>264.02</ele>
        <time>2011-12-10T14:03:17Z</time>
      </trkpt>
      <trkpt lat="44.09107" lon="4.02011">
        <ele>264.5</ele>
        <time>2011-12-10T14:03:18Z</time>
      </trkpt>
      <trkpt lat="44.0911" lon="4.02013">
        <ele>264.02</ele>
        <time>2011-12-10T14:03:19Z</time>
      </trkpt>
      <trkpt lat="44.09112" lon="4.02015">
        <ele>263.06</ele>
        <time>2011-12-10T14:03:20Z</time>
      </trkpt>
      <trkpt lat="44.09115" lon="4.02018">
        <ele>264.02</ele>
        <time>2011-12-10T14:03:23Z</time>
      </trkpt>
      <trkpt lat="44.09117" lon="4.02018">
        <ele>263.54</ele>
        <time>2011-12-10T14:03:24Z</time>
      </trkpt>
      <trkpt lat="44.09118" lon="4.02016">
        <ele>263.54</ele>
        <time>2011-12-10T14:03:25Z</time>
      </trkpt>
      <trkpt lat="44.09119" lon="4.02015">
        <ele>263.54</ele>
        <time>2011-12-10T14:03:26Z</time>
      </trkpt>
      <trkpt lat="44.0912" lon="4.02014">
        <ele>263.54</ele>
        <time>2011-12-10T14:03:27Z</time>
      </trkpt>
      <trkpt lat="44.09126" lon="4.02014">
        <ele>263.54</ele>
        <time>2011-12-10T14:03:38Z</time>
      </trkpt>
      <trkpt lat="44.09127" lon="4.02014">
        <ele>264.02</ele>
        <time>2011-12-10T14:03:57Z</time>
      </trkpt>
      <trkpt lat="44.09129" lon="4.02013">
        <ele>264.02</ele>
        <time>2011-12-10T14:04:16Z</time>
      </trkpt>
      <trkpt lat="44.0913" lon="4.02012">
        <ele>263.54</ele>
        <time>2011-12-10T14:04:20Z</time>
      </trkpt>
      <trkpt lat="44.09129" lon="4.02013">
        <ele>264.02</ele>
        <time>2011-12-10T14:04:25Z</time>
      </trkpt>
      <trkpt lat="44.09126" lon="4.02013">
        <ele>264.02</ele>
        <time>2011-12-10T14:04:29Z</time>
      </trkpt>
      <trkpt lat="44.09125" lon="4.02012">
        <ele>263.54</ele>
        <time>2011-12-10T14:04:30Z</time>
      </trkpt>
      <trkpt lat="44.09124" lon="4.02011">
        <ele>263.54</ele>
        <time>2011-12-10T14:04:31Z</time>
      </trkpt>
      <trkpt lat="44.09122" lon="4.02009">
        <ele>263.06</ele>
        <time>2011-12-10T14:04:32Z</time>
      </trkpt>
      <trkpt lat="44.09121" lon="4.02007">
        <ele>263.06</ele>
        <time>2011-12-10T14:04:33Z</time>
      </trkpt>
      <trkpt lat="44.09119" lon="4.02004">
        <ele>263.06</ele>
        <time>2011-12-10T14:04:35Z</time>
      </trkpt>
      <trkpt lat="44.09118" lon="4.02003">
        <ele>263.06</ele>
        <time>2011-12-10T14:04:36Z</time>
      </trkpt>
      <trkpt lat="44.09118" lon="4.02001">
        <ele>263.06</ele>
        <time>2011-12-10T14:04:37Z</time>
      </trkpt>
      <trkpt lat="44.09118" lon="4.02">
        <ele>263.06</ele>
        <time>2011-12-10T14:04:38Z</time>
      </trkpt>
      <trkpt lat="44.0912" lon="4.01996">
        <ele>263.54</ele>
        <time>2011-12-10T14:04:46Z</time>
      </trkpt>
      <trkpt lat="44.09121" lon="4.0199">
        <ele>262.58</ele>
        <time>2011-12-10T14:04:48Z</time>
      </trkpt>
      <trkpt lat="44.09133" lon="4.01985">
        <ele>261.14</ele>
        <time>2011-12-10T14:04:58Z</time>
      </trkpt>
      <trkpt lat="44.09137" lon="4.01984">
        <ele>259.69</ele>
        <time>2011-12-10T14:05:00Z</time>
      </trkpt>
      <trkpt lat="44.09137" lon="4.01984">
        <ele>259.21</ele>
        <time>2011-12-10T14:05:01Z</time>
      </trkpt>
      <trkpt lat="44.09148" lon="4.01979">
        <ele>255.37</ele>
        <time>2011-12-10T14:05:07Z</time>
      </trkpt>
      <trkpt lat="44.09151" lon="4.01979">
        <ele>253.93</ele>
        <time>2011-12-10T14:05:08Z</time>
      </trkpt>
      <trkpt lat="44.09154" lon="4.01979">
        <ele>253.44</ele>
        <time>2011-12-10T14:05:09Z</time>
      </trkpt>
      <trkpt lat="44.09155" lon="4.01979">
        <ele>253.44</ele>
        <time>2011-12-10T14:05:10Z</time>
      </trkpt>
      <trkpt lat="44.09158" lon="4.01978">
        <ele>252.96</ele>
        <time>2011-12-10T14:05:11Z</time>
      </trkpt>
      <trkpt lat="44.09166" lon="4.0197">
        <ele>249.12</ele>
        <time>2011-12-10T14:05:15Z</time>
      </trkpt>
      <trkpt lat="44.09168" lon="4.01967">
        <ele>248.64</ele>
        <time>2011-12-10T14:05:16Z</time>
      </trkpt>
      <trkpt lat="44.09169" lon="4.01965">
        <ele>248.64</ele>
        <time>2011-12-10T14:05:17Z</time>
      </trkpt>
      <trkpt lat="44.09173" lon="4.01962">
        <ele>248.16</ele>
        <time>2011-12-10T14:05:21Z</time>
      </trkpt>
      <trkpt lat="44.09174" lon="4.01961">
        <ele>248.16</ele>
        <time>2011-12-10T14:05:22Z</time>
      </trkpt>
      <trkpt lat="44.09192" lon="4.01955">
        <ele>251.52</ele>
        <time>2011-12-10T14:05:33Z</time>
      </trkpt>
      <trkpt lat="44.09194" lon="4.01953">
        <ele>252</ele>
        <time>2011-12-10T14:05:49Z</time>
      </trkpt>
      <trkpt lat="44.09196" lon="4.01953">
        <ele>252.96</ele>
        <time>2011-12-10T14:05:58Z</time>
      </trkpt>
      <trkpt lat="44.09197" lon="4.01952">
        <ele>254.41</ele>
        <time>2011-12-10T14:06:10Z</time>
      </trkpt>
      <trkpt lat="44.09198" lon="4.0195">
        <ele>254.41</ele>
        <time>2011-12-10T14:06:11Z</time>
      </trkpt>
      <trkpt lat="44.092" lon="4.01948">
        <ele>254.89</ele>
        <time>2011-12-10T14:06:12Z</time>
      </trkpt>
      <trkpt lat="44.09201" lon="4.01946">
        <ele>255.85</ele>
        <time>2011-12-10T14:06:13Z</time>
      </trkpt>
      <trkpt lat="44.09202" lon="4.01945">
        <ele>255.85</ele>
        <time>2011-12-10T14:06:14Z</time>
      </trkpt>
      <trkpt lat="44.09207" lon="4.01946">
        <ele>257.77</ele>
        <time>2011-12-10T14:06:22Z</time>
      </trkpt>
      <trkpt lat="44.09212" lon="4.01943">
        <ele>259.21</ele>
        <time>2011-12-10T14:06:34Z</time>
      </trkpt>
      <trkpt lat="44.09215" lon="4.01942">
        <ele>259.69</ele>
        <time>2011-12-10T14:06:45Z</time>
      </trkpt>
      <trkpt lat="44.09222" lon="4.01937">
        <ele>259.21</ele>
        <time>2011-12-10T14:06:49Z</time>
      </trkpt>
      <trkpt lat="44.09224" lon="4.01935">
        <ele>259.21</ele>
        <time>2011-12-10T14:06:50Z</time>
      </trkpt>
      <trkpt lat="44.09225" lon="4.01933">
        <ele>259.69</ele>
        <time>2011-12-10T14:06:51Z</time>
      </trkpt>
      <trkpt lat="44.09226" lon="4.01931">
        <ele>259.69</ele>
        <time>2011-12-10T14:06:52Z</time>
      </trkpt>
      <trkpt lat="44.09228" lon="4.01929">
        <ele>259.21</ele>
        <time>2011-12-10T14:06:53Z</time>
      </trkpt>
      <trkpt lat="44.09229" lon="4.01928">
        <ele>259.21</ele>
        <time>2011-12-10T14:06:54Z</time>
      </trkpt>
      <trkpt lat="44.09229" lon="4.01926">
        <ele>259.69</ele>
        <time>2011-12-10T14:06:55Z</time>
      </trkpt>
      <trkpt lat="44.09233" lon="4.0192">
        <ele>259.69</ele>
        <time>2011-12-10T14:07:05Z</time>
      </trkpt>
      <trkpt lat="44.09243" lon="4.01903">
        <ele>260.17</ele>
        <time>2011-12-10T14:07:19Z</time>
      </trkpt>
      <trkpt lat="44.09268" lon="4.01859">
        <ele>259.21</ele>
        <time>2011-12-10T14:07:32Z</time>
      </trkpt>
      <trkpt lat="44.09296" lon="4.01811">
        <ele>260.65</ele>
        <time>2011-12-10T14:07:46Z</time>
      </trkpt>
      <trkpt lat="44.09308" lon="4.01764">
        <ele>263.06</ele>
        <time>2011-12-10T14:07:59Z</time>
      </trkpt>
      <trkpt lat="44.09309" lon="4.01759">
        <ele>263.06</ele>
        <time>2011-12-10T14:08:00Z</time>
      </trkpt>
      <trkpt lat="44.09329" lon="4.01715">
        <ele>264.98</ele>
        <time>2011-12-10T14:08:11Z</time>
      </trkpt>
      <trkpt lat="44.09357" lon="4.01676">
        <ele>265.46</ele>
        <time>2011-12-10T14:08:23Z</time>
      </trkpt>
      <trkpt lat="44.09383" lon="4.01621">
        <ele>267.86</ele>
        <time>2011-12-10T14:08:38Z</time>
      </trkpt>
      <trkpt lat="44.09413" lon="4.01596">
        <ele>270.27</ele>
        <time>2011-12-10T14:08:49Z</time>
      </trkpt>
      <trkpt lat="44.09456" lon="4.01562">
        <ele>272.19</ele>
        <time>2011-12-10T14:09:05Z</time>
      </trkpt>
      <trkpt lat="44.09487" lon="4.01548">
        <ele>275.07</ele>
        <time>2011-12-10T14:09:16Z</time>
      </trkpt>
      <trkpt lat="44.09505" lon="4.01517">
        <ele>277.48</ele>
        <time>2011-12-10T14:09:27Z</time>
      </trkpt>
      <trkpt lat="44.0952" lon="4.01482">
        <ele>280.36</ele>
        <time>2011-12-10T14:09:39Z</time>
      </trkpt>
      <trkpt lat="44.09541" lon="4.0145">
        <ele>284.69</ele>
        <time>2011-12-10T14:09:51Z</time>
      </trkpt>
      <trkpt lat="44.09552" lon="4.01414">
        <ele>285.17</ele>
        <time>2011-12-10T14:10:01Z</time>
      </trkpt>
      <trkpt lat="44.09565" lon="4.01376">
        <ele>286.61</ele>
        <time>2011-12-10T14:10:11Z</time>
      </trkpt>
      <trkpt lat="44.09571" lon="4.01366">
        <ele>287.09</ele>
        <time>2011-12-10T14:10:14Z</time>
      </trkpt>
      <trkpt lat="44.09573" lon="4.01362">
        <ele>287.57</ele>
        <time>2011-12-10T14:10:15Z</time>
      </trkpt>
      <trkpt lat="44.09575" lon="4.01358">
        <ele>287.57</ele>
        <time>2011-12-10T14:10:16Z</time>
      </trkpt>
      <trkpt lat="44.09598" lon="4.01318">
        <ele>289.97</ele>
        <time>2011-12-10T14:10:28Z</time>
      </trkpt>
      <trkpt lat="44.09611" lon="4.01286">
        <ele>293.34</ele>
        <time>2011-12-10T14:10:39Z</time>
      </trkpt>
      <trkpt lat="44.0962" lon="4.01255">
        <ele>296.7</ele>
        <time>2011-12-10T14:10:49Z</time>
      </trkpt>
      <trkpt lat="44.0962" lon="4.01252">
        <ele>296.7</ele>
        <time>2011-12-10T14:10:50Z</time>
      </trkpt>
      <trkpt lat="44.09618" lon="4.01218">
        <ele>299.59</ele>
        <time>2011-12-10T14:11:02Z</time>
      </trkpt>
      <trkpt lat="44.09613" lon="4.01198">
        <ele>300.55</ele>
        <time>2011-12-10T14:11:09Z</time>
      </trkpt>
      <trkpt lat="44.09616" lon="4.01184">
        <ele>301.99</ele>
        <time>2011-12-10T14:11:17Z</time>
      </trkpt>
      <trkpt lat="44.09617" lon="4.01182">
        <ele>302.47</ele>
        <time>2011-12-10T14:11:18Z</time>
      </trkpt>
      <trkpt lat="44.09621" lon="4.01175">
        <ele>302.95</ele>
        <time>2011-12-10T14:11:24Z</time>
      </trkpt>
      <trkpt lat="44.09623" lon="4.01175">
        <ele>302.95</ele>
        <time>2011-12-10T14:11:25Z</time>
      </trkpt>
      <trkpt lat="44.09624" lon="4.01174">
        <ele>302.95</ele>
        <time>2011-12-10T14:11:38Z</time>
      </trkpt>
      <trkpt lat="44.09624" lon="4.01174">
        <ele>302.47</ele>
        <time>2011-12-10T14:12:00Z</time>
      </trkpt>
      <trkpt lat="44.09637" lon="4.01172">
        <ele>302.47</ele>
        <time>2011-12-10T14:12:12Z</time>
      </trkpt>
      <trkpt lat="44.09638" lon="4.01171">
        <ele>302.95</ele>
        <time>2011-12-10T14:12:13Z</time>
      </trkpt>
      <trkpt lat="44.09642" lon="4.01172">
        <ele>303.43</ele>
        <time>2011-12-10T14:12:16Z</time>
      </trkpt>
      <trkpt lat="44.09643" lon="4.01171">
        <ele>303.91</ele>
        <time>2011-12-10T14:12:17Z</time>
      </trkpt>
      <trkpt lat="44.09645" lon="4.0117">
        <ele>304.39</ele>
        <time>2011-12-10T14:12:18Z</time>
      </trkpt>
      <trkpt lat="44.09647" lon="4.01169">
        <ele>303.91</ele>
        <time>2011-12-10T14:12:19Z</time>
      </trkpt>
      <trkpt lat="44.09649" lon="4.01168">
        <ele>304.39</ele>
        <time>2011-12-10T14:12:20Z</time>
      </trkpt>
      <trkpt lat="44.09651" lon="4.01167">
        <ele>304.39</ele>
        <time>2011-12-10T14:12:21Z</time>
      </trkpt>
      <trkpt lat="44.09652" lon="4.01166">
        <ele>303.91</ele>
        <time>2011-12-10T14:12:22Z</time>
      </trkpt>
      <trkpt lat="44.09654" lon="4.01165">
        <ele>304.39</ele>
        <time>2011-12-10T14:12:23Z</time>
      </trkpt>
      <trkpt lat="44.09656" lon="4.01164">
        <ele>304.88</ele>
        <time>2011-12-10T14:12:24Z</time>
      </trkpt>
      <trkpt lat="44.09657" lon="4.01163">
        <ele>304.88</ele>
        <time>2011-12-10T14:12:25Z</time>
      </trkpt>
      <trkpt lat="44.09659" lon="4.01162">
        <ele>305.36</ele>
        <time>2011-12-10T14:12:26Z</time>
      </trkpt>
      <trkpt lat="44.09661" lon="4.01161">
        <ele>305.84</ele>
        <time>2011-12-10T14:12:27Z</time>
      </trkpt>
      <trkpt lat="44.09691" lon="4.01144">
        <ele>307.28</ele>
        <time>2011-12-10T14:12:40Z</time>
      </trkpt>
      <trkpt lat="44.09713" lon="4.01139">
        <ele>308.24</ele>
        <time>2011-12-10T14:12:50Z</time>
      </trkpt>
      <trkpt lat="44.09721" lon="4.01139">
        <ele>307.76</ele>
        <time>2011-12-10T14:12:56Z</time>
      </trkpt>
      <trkpt lat="44.09745" lon="4.01136">
        <ele>308.24</ele>
        <time>2011-12-10T14:13:08Z</time>
      </trkpt>
      <trkpt lat="44.09762" lon="4.0113">
        <ele>310.16</ele>
        <time>2011-12-10T14:13:17Z</time>
      </trkpt>
      <trkpt lat="44.09785" lon="4.01131">
        <ele>311.12</ele>
        <time>2011-12-10T14:13:30Z</time>
      </trkpt>
      <trkpt lat="44.09788" lon="4.01132">
        <ele>311.12</ele>
        <time>2011-12-10T14:13:32Z</time>
      </trkpt>
      <trkpt lat="44.09789" lon="4.01132">
        <ele>311.6</ele>
        <time>2011-12-10T14:13:33Z</time>
      </trkpt>
      <trkpt lat="44.09799" lon="4.01139">
        <ele>310.64</ele>
        <time>2011-12-10T14:13:39Z</time>
      </trkpt>
      <trkpt lat="44.09802" lon="4.0114">
        <ele>310.64</ele>
        <time>2011-12-10T14:13:40Z</time>
      </trkpt>
      <trkpt lat="44.09804" lon="4.0114">
        <ele>311.12</ele>
        <time>2011-12-10T14:13:41Z</time>
      </trkpt>
      <trkpt lat="44.09806" lon="4.01139">
        <ele>311.12</ele>
        <time>2011-12-10T14:13:42Z</time>
      </trkpt>
      <trkpt lat="44.09808" lon="4.01138">
        <ele>311.12</ele>
        <time>2011-12-10T14:13:43Z</time>
      </trkpt>
      <trkpt lat="44.0981" lon="4.01137">
        <ele>311.12</ele>
        <time>2011-12-10T14:13:44Z</time>
      </trkpt>
      <trkpt lat="44.0982" lon="4.01134">
        <ele>310.16</ele>
        <time>2011-12-10T14:13:47Z</time>
      </trkpt>
      <trkpt lat="44.09823" lon="4.01134">
        <ele>310.16</ele>
        <time>2011-12-10T14:13:48Z</time>
      </trkpt>
      <trkpt lat="44.09828" lon="4.01134">
        <ele>308.72</ele>
        <time>2011-12-10T14:13:49Z</time>
      </trkpt>
      <trkpt lat="44.09832" lon="4.01133">
        <ele>308.24</ele>
        <time>2011-12-10T14:13:50Z</time>
      </trkpt>
      <trkpt lat="44.09837" lon="4.01131">
        <ele>307.76</ele>
        <time>2011-12-10T14:13:51Z</time>
      </trkpt>
      <trkpt lat="44.09842" lon="4.01131">
        <ele>307.28</ele>
        <time>2011-12-10T14:13:52Z</time>
      </trkpt>
      <trkpt lat="44.09847" lon="4.01131">
        <ele>307.28</ele>
        <time>2011-12-10T14:13:53Z</time>
      </trkpt>
      <trkpt lat="44.09851" lon="4.01131">
        <ele>307.28</ele>
        <time>2011-12-10T14:13:54Z</time>
      </trkpt>
      <trkpt lat="44.0987" lon="4.0114">
        <ele>307.76</ele>
        <time>2011-12-10T14:13:58Z</time>
      </trkpt>
      <trkpt lat="44.09874" lon="4.01142">
        <ele>307.76</ele>
        <time>2011-12-10T14:13:59Z</time>
      </trkpt>
      <trkpt lat="44.09882" lon="4.01147">
        <ele>308.24</ele>
        <time>2011-12-10T14:14:01Z</time>
      </trkpt>
      <trkpt lat="44.09886" lon="4.01148">
        <ele>308.24</ele>
        <time>2011-12-10T14:14:02Z</time>
      </trkpt>
      <trkpt lat="44.09891" lon="4.0115">
        <ele>307.28</ele>
        <time>2011-12-10T14:14:03Z</time>
      </trkpt>
      <trkpt lat="44.09896" lon="4.01154">
        <ele>307.28</ele>
        <time>2011-12-10T14:14:04Z</time>
      </trkpt>
      <trkpt lat="44.099" lon="4.01157">
        <ele>307.28</ele>
        <time>2011-12-10T14:14:05Z</time>
      </trkpt>
      <trkpt lat="44.09904" lon="4.01159">
        <ele>307.28</ele>
        <time>2011-12-10T14:14:06Z</time>
      </trkpt>
      <trkpt lat="44.09908" lon="4.01162">
        <ele>306.8</ele>
        <time>2011-12-10T14:14:07Z</time>
      </trkpt>
      <trkpt lat="44.0991" lon="4.01167">
        <ele>306.8</ele>
        <time>2011-12-10T14:14:08Z</time>
      </trkpt>
      <trkpt lat="44.09914" lon="4.01171">
        <ele>306.8</ele>
        <time>2011-12-10T14:14:09Z</time>
      </trkpt>
      <trkpt lat="44.09917" lon="4.01175">
        <ele>305.84</ele>
        <time>2011-12-10T14:14:10Z</time>
      </trkpt>
      <trkpt lat="44.09921" lon="4.0118">
        <ele>305.84</ele>
        <time>2011-12-10T14:14:11Z</time>
      </trkpt>
      <trkpt lat="44.09924" lon="4.01185">
        <ele>306.32</ele>
        <time>2011-12-10T14:14:12Z</time>
      </trkpt>
      <trkpt lat="44.09927" lon="4.0119">
        <ele>305.84</ele>
        <time>2011-12-10T14:14:13Z</time>
      </trkpt>
      <trkpt lat="44.09932" lon="4.01194">
        <ele>305.36</ele>
        <time>2011-12-10T14:14:14Z</time>
      </trkpt>
      <trkpt lat="44.09937" lon="4.01199">
        <ele>304.88</ele>
        <time>2011-12-10T14:14:15Z</time>
      </trkpt>
      <trkpt lat="44.0994" lon="4.01204">
        <ele>304.39</ele>
        <time>2011-12-10T14:14:16Z</time>
      </trkpt>
      <trkpt lat="44.09942" lon="4.01208">
        <ele>304.39</ele>
        <time>2011-12-10T14:14:17Z</time>
      </trkpt>
      <trkpt lat="44.09945" lon="4.0121">
        <ele>304.39</ele>
        <time>2011-12-10T14:14:18Z</time>
      </trkpt>
      <trkpt lat="44.09949" lon="4.01211">
        <ele>303.91</ele>
        <time>2011-12-10T14:14:19Z</time>
      </trkpt>
      <trkpt lat="44.09952" lon="4.01213">
        <ele>303.43</ele>
        <time>2011-12-10T14:14:20Z</time>
      </trkpt>
      <trkpt lat="44.09955" lon="4.01217">
        <ele>302.95</ele>
        <time>2011-12-10T14:14:21Z</time>
      </trkpt>
      <trkpt lat="44.09958" lon="4.0122">
        <ele>302.47</ele>
        <time>2011-12-10T14:14:22Z</time>
      </trkpt>
      <trkpt lat="44.09961" lon="4.01223">
        <ele>302.47</ele>
        <time>2011-12-10T14:14:23Z</time>
      </trkpt>
      <trkpt lat="44.09964" lon="4.01226">
        <ele>301.51</ele>
        <time>2011-12-10T14:14:24Z</time>
      </trkpt>
      <trkpt lat="44.0997" lon="4.01232">
        <ele>300.07</ele>
        <time>2011-12-10T14:14:26Z</time>
      </trkpt>
      <trkpt lat="44.09971" lon="4.01237">
        <ele>298.63</ele>
        <time>2011-12-10T14:14:27Z</time>
      </trkpt>
      <trkpt lat="44.09972" lon="4.01241">
        <ele>298.63</ele>
        <time>2011-12-10T14:14:28Z</time>
      </trkpt>
      <trkpt lat="44.09973" lon="4.0125">
        <ele>297.67</ele>
        <time>2011-12-10T14:14:32Z</time>
      </trkpt>
      <trkpt lat="44.09973" lon="4.01253">
        <ele>297.18</ele>
        <time>2011-12-10T14:14:33Z</time>
      </trkpt>
      <trkpt lat="44.09975" lon="4.01255">
        <ele>297.18</ele>
        <time>2011-12-10T14:14:40Z</time>
      </trkpt>
      <trkpt lat="44.09977" lon="4.01255">
        <ele>296.22</ele>
        <time>2011-12-10T14:14:43Z</time>
      </trkpt>
      <trkpt lat="44.09978" lon="4.01272">
        <ele>296.7</ele>
        <time>2011-12-10T14:14:51Z</time>
      </trkpt>
      <trkpt lat="44.09977" lon="4.01282">
        <ele>296.7</ele>
        <time>2011-12-10T14:14:55Z</time>
      </trkpt>
      <trkpt lat="44.09985" lon="4.01297">
        <ele>295.26</ele>
        <time>2011-12-10T14:15:00Z</time>
      </trkpt>
      <trkpt lat="44.0999" lon="4.01302">
        <ele>293.34</ele>
        <time>2011-12-10T14:15:02Z</time>
      </trkpt>
      <trkpt lat="44.09994" lon="4.01309">
        <ele>291.42</ele>
        <time>2011-12-10T14:15:05Z</time>
      </trkpt>
      <trkpt lat="44.1" lon="4.01328">
        <ele>289.49</ele>
        <time>2011-12-10T14:15:11Z</time>
      </trkpt>
      <trkpt lat="44.10002" lon="4.01334">
        <ele>289.01</ele>
        <time>2011-12-10T14:15:12Z</time>
      </trkpt>
      <trkpt lat="44.10008" lon="4.01342">
        <ele>288.05</ele>
        <time>2011-12-10T14:15:14Z</time>
      </trkpt>
      <trkpt lat="44.10012" lon="4.01346">
        <ele>287.09</ele>
        <time>2011-12-10T14:15:15Z</time>
      </trkpt>
      <trkpt lat="44.10015" lon="4.01351">
        <ele>285.65</ele>
        <time>2011-12-10T14:15:16Z</time>
      </trkpt>
      <trkpt lat="44.10016" lon="4.01356">
        <ele>285.17</ele>
        <time>2011-12-10T14:15:17Z</time>
      </trkpt>
      <trkpt lat="44.10017" lon="4.01361">
        <ele>284.21</ele>
        <time>2011-12-10T14:15:18Z</time>
      </trkpt>
      <trkpt lat="44.10017" lon="4.01366">
        <ele>284.69</ele>
        <time>2011-12-10T14:15:19Z</time>
      </trkpt>
      <trkpt lat="44.10018" lon="4.0137">
        <ele>284.21</ele>
        <time>2011-12-10T14:15:20Z</time>
      </trkpt>
      <trkpt lat="44.1002" lon="4.01374">
        <ele>283.73</ele>
        <time>2011-12-10T14:15:21Z</time>
      </trkpt>
      <trkpt lat="44.10024" lon="4.01382">
        <ele>282.28</ele>
        <time>2011-12-10T14:15:24Z</time>
      </trkpt>
      <trkpt lat="44.10026" lon="4.01383">
        <ele>281.8</ele>
        <time>2011-12-10T14:15:25Z</time>
      </trkpt>
      <trkpt lat="44.10026" lon="4.01384">
        <ele>280.84</ele>
        <time>2011-12-10T14:15:27Z</time>
      </trkpt>
      <trkpt lat="44.10027" lon="4.01387">
        <ele>280.84</ele>
        <time>2011-12-10T14:15:36Z</time>
      </trkpt>
      <trkpt lat="44.10028" lon="4.0139">
        <ele>280.36</ele>
        <time>2011-12-10T14:15:39Z</time>
      </trkpt>
      <trkpt lat="44.10029" lon="4.01391">
        <ele>279.88</ele>
        <time>2011-12-10T14:15:40Z</time>
      </trkpt>
      <trkpt lat="44.1003" lon="4.01393">
        <ele>279.88</ele>
        <time>2011-12-10T14:15:41Z</time>
      </trkpt>
      <trkpt lat="44.10031" lon="4.01397">
        <ele>279.4</ele>
        <time>2011-12-10T14:15:43Z</time>
      </trkpt>
      <trkpt lat="44.10031" lon="4.01399">
        <ele>279.4</ele>
        <time>2011-12-10T14:15:44Z</time>
      </trkpt>
      <trkpt lat="44.1003" lon="4.01401">
        <ele>278.92</ele>
        <time>2011-12-10T14:15:45Z</time>
      </trkpt>
      <trkpt lat="44.10029" lon="4.01404">
        <ele>279.4</ele>
        <time>2011-12-10T14:15:46Z</time>
      </trkpt>
      <trkpt lat="44.10027" lon="4.01409">
        <ele>279.88</ele>
        <time>2011-12-10T14:15:47Z</time>
      </trkpt>
      <trkpt lat="44.10025" lon="4.01414">
        <ele>279.4</ele>
        <time>2011-12-10T14:15:48Z</time>
      </trkpt>
      <trkpt lat="44.10023" lon="4.0142">
        <ele>279.88</ele>
        <time>2011-12-10T14:15:49Z</time>
      </trkpt>
      <trkpt lat="44.10023" lon="4.01427">
        <ele>280.36</ele>
        <time>2011-12-10T14:15:50Z</time>
      </trkpt>
      <trkpt lat="44.10023" lon="4.01435">
        <ele>279.88</ele>
        <time>2011-12-10T14:15:51Z</time>
      </trkpt>
      <trkpt lat="44.10024" lon="4.0145">
        <ele>279.4</ele>
        <time>2011-12-10T14:15:53Z</time>
      </trkpt>
      <trkpt lat="44.10026" lon="4.01457">
        <ele>279.88</ele>
        <time>2011-12-10T14:15:54Z</time>
      </trkpt>
      <trkpt lat="44.10028" lon="4.01463">
        <ele>279.88</ele>
        <time>2011-12-10T14:15:55Z</time>
      </trkpt>
      <trkpt lat="44.10033" lon="4.01473">
        <ele>279.88</ele>
        <time>2011-12-10T14:15:57Z</time>
      </trkpt>
      <trkpt lat="44.10035" lon="4.01479">
        <ele>280.36</ele>
        <time>2011-12-10T14:15:58Z</time>
      </trkpt>
      <trkpt lat="44.10037" lon="4.01486">
        <ele>279.88</ele>
        <time>2011-12-10T14:15:59Z</time>
      </trkpt>
      <trkpt lat="44.10038" lon="4.01494">
        <ele>279.88</ele>
        <time>2011-12-10T14:16:00Z</time>
      </trkpt>
      <trkpt lat="44.1004" lon="4.01502">
        <ele>278.92</ele>
        <time>2011-12-10T14:16:01Z</time>
      </trkpt>
      <trkpt lat="44.10042" lon="4.01509">
        <ele>278.92</ele>
        <time>2011-12-10T14:16:02Z</time>
      </trkpt>
      <trkpt lat="44.10044" lon="4.01517">
        <ele>278.92</ele>
        <time>2011-12-10T14:16:03Z</time>
      </trkpt>
      <trkpt lat="44.10045" lon="4.01526">
        <ele>278.92</ele>
        <time>2011-12-10T14:16:04Z</time>
      </trkpt>
      <trkpt lat="44.10047" lon="4.01535">
        <ele>278.44</ele>
        <time>2011-12-10T14:16:05Z</time>
      </trkpt>
      <trkpt lat="44.10049" lon="4.01543">
        <ele>278.44</ele>
        <time>2011-12-10T14:16:06Z</time>
      </trkpt>
      <trkpt lat="44.1005" lon="4.01551">
        <ele>277.48</ele>
        <time>2011-12-10T14:16:07Z</time>
      </trkpt>
      <trkpt lat="44.10051" lon="4.01559">
        <ele>277.96</ele>
        <time>2011-12-10T14:16:08Z</time>
      </trkpt>
      <trkpt lat="44.10051" lon="4.01566">
        <ele>277.96</ele>
        <time>2011-12-10T14:16:09Z</time>
      </trkpt>
      <trkpt lat="44.10051" lon="4.01574">
        <ele>277.48</ele>
        <time>2011-12-10T14:16:10Z</time>
      </trkpt>
      <trkpt lat="44.10049" lon="4.0158">
        <ele>277.48</ele>
        <time>2011-12-10T14:16:11Z</time>
      </trkpt>
      <trkpt lat="44.10047" lon="4.01584">
        <ele>277.48</ele>
        <time>2011-12-10T14:16:12Z</time>
      </trkpt>
      <trkpt lat="44.10045" lon="4.01587">
        <ele>277.48</ele>
        <time>2011-12-10T14:16:13Z</time>
      </trkpt>
      <trkpt lat="44.10043" lon="4.01588">
        <ele>277.48</ele>
        <time>2011-12-10T14:16:14Z</time>
      </trkpt>
      <trkpt lat="44.10042" lon="4.0159">
        <ele>277.96</ele>
        <time>2011-12-10T14:16:25Z</time>
      </trkpt>
      <trkpt lat="44.10042" lon="4.0159">
        <ele>277.48</ele>
        <time>2011-12-10T14:16:45Z</time>
      </trkpt>
      <trkpt lat="44.10041" lon="4.01591">
        <ele>277</ele>
        <time>2011-12-10T14:17:08Z</time>
      </trkpt>
      <trkpt lat="44.10041" lon="4.01592">
        <ele>277</ele>
        <time>2011-12-10T14:17:23Z</time>
      </trkpt>
      <trkpt lat="44.1004" lon="4.01592">
        <ele>277</ele>
        <time>2011-12-10T14:17:51Z</time>
      </trkpt>
      <trkpt lat="44.1004" lon="4.01592">
        <ele>277</ele>
        <time>2011-12-10T14:18:18Z</time>
      </trkpt>
      <trkpt lat="44.1004" lon="4.01594">
        <ele>277.48</ele>
        <time>2011-12-10T14:18:33Z</time>
      </trkpt>
      <trkpt lat="44.10039" lon="4.01595">
        <ele>277</ele>
        <time>2011-12-10T14:18:34Z</time>
      </trkpt>
      <trkpt lat="44.10037" lon="4.01597">
        <ele>277.48</ele>
        <time>2011-12-10T14:18:35Z</time>
      </trkpt>
      <trkpt lat="44.10035" lon="4.01599">
        <ele>277.48</ele>
        <time>2011-12-10T14:18:36Z</time>
      </trkpt>
      <trkpt lat="44.10033" lon="4.01601">
        <ele>277</ele>
        <time>2011-12-10T14:18:37Z</time>
      </trkpt>
      <trkpt lat="44.10031" lon="4.01604">
        <ele>276.52</ele>
        <time>2011-12-10T14:18:38Z</time>
      </trkpt>
      <trkpt lat="44.10029" lon="4.01606">
        <ele>277</ele>
        <time>2011-12-10T14:18:39Z</time>
      </trkpt>
      <trkpt lat="44.10012" lon="4.01625">
        <ele>277</ele>
        <time>2011-12-10T14:18:47Z</time>
      </trkpt>
      <trkpt lat="44.1001" lon="4.01628">
        <ele>276.04</ele>
        <time>2011-12-10T14:18:48Z</time>
      </trkpt>
      <trkpt lat="44.10008" lon="4.01632">
        <ele>276.04</ele>
        <time>2011-12-10T14:18:49Z</time>
      </trkpt>
      <trkpt lat="44.10001" lon="4.0165">
        <ele>274.59</ele>
        <time>2011-12-10T14:18:53Z</time>
      </trkpt>
      <trkpt lat="44.09996" lon="4.01659">
        <ele>273.63</ele>
        <time>2011-12-10T14:18:57Z</time>
      </trkpt>
      <trkpt lat="44.09979" lon="4.01694">
        <ele>272.19</ele>
        <time>2011-12-10T14:19:06Z</time>
      </trkpt>
      <trkpt lat="44.09974" lon="4.01703">
        <ele>271.71</ele>
        <time>2011-12-10T14:19:08Z</time>
      </trkpt>
      <trkpt lat="44.09971" lon="4.01708">
        <ele>271.71</ele>
        <time>2011-12-10T14:19:09Z</time>
      </trkpt>
      <trkpt lat="44.09969" lon="4.01712">
        <ele>271.23</ele>
        <time>2011-12-10T14:19:10Z</time>
      </trkpt>
      <trkpt lat="44.09965" lon="4.01723">
        <ele>271.23</ele>
        <time>2011-12-10T14:19:12Z</time>
      </trkpt>
      <trkpt lat="44.09962" lon="4.01727">
        <ele>271.23</ele>
        <time>2011-12-10T14:19:13Z</time>
      </trkpt>
      <trkpt lat="44.09958" lon="4.0173">
        <ele>271.71</ele>
        <time>2011-12-10T14:19:14Z</time>
      </trkpt>
      <trkpt lat="44.09954" lon="4.01733">
        <ele>271.23</ele>
        <time>2011-12-10T14:19:15Z</time>
      </trkpt>
      <trkpt lat="44.0995" lon="4.01736">
        <ele>271.23</ele>
        <time>2011-12-10T14:19:16Z</time>
      </trkpt>
      <trkpt lat="44.09946" lon="4.01739">
        <ele>271.71</ele>
        <time>2011-12-10T14:19:17Z</time>
      </trkpt>
      <trkpt lat="44.09918" lon="4.01764">
        <ele>270.27</ele>
        <time>2011-12-10T14:19:24Z</time>
      </trkpt>
      <trkpt lat="44.09913" lon="4.01768">
        <ele>270.75</ele>
        <time>2011-12-10T14:19:25Z</time>
      </trkpt>
      <trkpt lat="44.09908" lon="4.01771">
        <ele>270.27</ele>
        <time>2011-12-10T14:19:26Z</time>
      </trkpt>
      <trkpt lat="44.09902" lon="4.01773">
        <ele>270.75</ele>
        <time>2011-12-10T14:19:27Z</time>
      </trkpt>
      <trkpt lat="44.09897" lon="4.01775">
        <ele>270.27</ele>
        <time>2011-12-10T14:19:28Z</time>
      </trkpt>
      <trkpt lat="44.09892" lon="4.01774">
        <ele>270.27</ele>
        <time>2011-12-10T14:19:29Z</time>
      </trkpt>
      <trkpt lat="44.09887" lon="4.01774">
        <ele>270.27</ele>
        <time>2011-12-10T14:19:30Z</time>
      </trkpt>
      <trkpt lat="44.09883" lon="4.01773">
        <ele>270.75</ele>
        <time>2011-12-10T14:19:31Z</time>
      </trkpt>
      <trkpt lat="44.09879" lon="4.01774">
        <ele>271.23</ele>
        <time>2011-12-10T14:19:32Z</time>
      </trkpt>
      <trkpt lat="44.09875" lon="4.01775">
        <ele>270.75</ele>
        <time>2011-12-10T14:19:33Z</time>
      </trkpt>
      <trkpt lat="44.09868" lon="4.01777">
        <ele>271.71</ele>
        <time>2011-12-10T14:19:35Z</time>
      </trkpt>
      <trkpt lat="44.09864" lon="4.01777">
        <ele>271.71</ele>
        <time>2011-12-10T14:19:36Z</time>
      </trkpt>
      <trkpt lat="44.09859" lon="4.01778">
        <ele>271.71</ele>
        <time>2011-12-10T14:19:37Z</time>
      </trkpt>
      <trkpt lat="44.09855" lon="4.01779">
        <ele>271.71</ele>
        <time>2011-12-10T14:19:38Z</time>
      </trkpt>
      <trkpt lat="44.09851" lon="4.0178">
        <ele>271.71</ele>
        <time>2011-12-10T14:19:39Z</time>
      </trkpt>
      <trkpt lat="44.09846" lon="4.0178">
        <ele>272.19</ele>
        <time>2011-12-10T14:19:40Z</time>
      </trkpt>
      <trkpt lat="44.09841" lon="4.01781">
        <ele>271.71</ele>
        <time>2011-12-10T14:19:41Z</time>
      </trkpt>
      <trkpt lat="44.09836" lon="4.01782">
        <ele>271.71</ele>
        <time>2011-12-10T14:19:42Z</time>
      </trkpt>
      <trkpt lat="44.09826" lon="4.01784">
        <ele>272.19</ele>
        <time>2011-12-10T14:19:44Z</time>
      </trkpt>
      <trkpt lat="44.09822" lon="4.01785">
        <ele>271.71</ele>
        <time>2011-12-10T14:19:45Z</time>
      </trkpt>
      <trkpt lat="44.09818" lon="4.01786">
        <ele>271.71</ele>
        <time>2011-12-10T14:19:46Z</time>
      </trkpt>
      <trkpt lat="44.09814" lon="4.01786">
        <ele>271.71</ele>
        <time>2011-12-10T14:19:47Z</time>
      </trkpt>
      <trkpt lat="44.09811" lon="4.01787">
        <ele>271.71</ele>
        <time>2011-12-10T14:19:48Z</time>
      </trkpt>
      <trkpt lat="44.09807" lon="4.01788">
        <ele>271.71</ele>
        <time>2011-12-10T14:19:49Z</time>
      </trkpt>
      <trkpt lat="44.09803" lon="4.01789">
        <ele>271.71</ele>
        <time>2011-12-10T14:19:50Z</time>
      </trkpt>
      <trkpt lat="44.09799" lon="4.01789">
        <ele>271.71</ele>
        <time>2011-12-10T14:19:51Z</time>
      </trkpt>
      <trkpt lat="44.09795" lon="4.01788">
        <ele>271.23</ele>
        <time>2011-12-10T14:19:52Z</time>
      </trkpt>
      <trkpt lat="44.09791" lon="4.01787">
        <ele>271.23</ele>
        <time>2011-12-10T14:19:53Z</time>
      </trkpt>
      <trkpt lat="44.09751" lon="4.01783">
        <ele>271.23</ele>
        <time>2011-12-10T14:20:04Z</time>
      </trkpt>
      <trkpt lat="44.09742" lon="4.01782">
        <ele>271.23</ele>
        <time>2011-12-10T14:20:16Z</time>
      </trkpt>
      <trkpt lat="44.0974" lon="4.01782">
        <ele>271.71</ele>
        <time>2011-12-10T14:20:20Z</time>
      </trkpt>
      <trkpt lat="44.09734" lon="4.01775">
        <ele>271.71</ele>
        <time>2011-12-10T14:20:24Z</time>
      </trkpt>
      <trkpt lat="44.09729" lon="4.01767">
        <ele>273.15</ele>
        <time>2011-12-10T14:20:28Z</time>
      </trkpt>
      <trkpt lat="44.09728" lon="4.01765">
        <ele>272.67</ele>
        <time>2011-12-10T14:20:29Z</time>
      </trkpt>
      <trkpt lat="44.09726" lon="4.01763">
        <ele>273.15</ele>
        <time>2011-12-10T14:20:30Z</time>
      </trkpt>
      <trkpt lat="44.09724" lon="4.0176">
        <ele>273.15</ele>
        <time>2011-12-10T14:20:31Z</time>
      </trkpt>
      <trkpt lat="44.09722" lon="4.01758">
        <ele>273.63</ele>
        <time>2011-12-10T14:20:32Z</time>
      </trkpt>
      <trkpt lat="44.0972" lon="4.01755">
        <ele>274.59</ele>
        <time>2011-12-10T14:20:33Z</time>
      </trkpt>
      <trkpt lat="44.09717" lon="4.01753">
        <ele>274.11</ele>
        <time>2011-12-10T14:20:34Z</time>
      </trkpt>
      <trkpt lat="44.097" lon="4.01739">
        <ele>276.04</ele>
        <time>2011-12-10T14:20:41Z</time>
      </trkpt>
      <trkpt lat="44.09688" lon="4.01732">
        <ele>277.48</ele>
        <time>2011-12-10T14:20:46Z</time>
      </trkpt>
      <trkpt lat="44.09665" lon="4.01719">
        <ele>279.88</ele>
        <time>2011-12-10T14:20:56Z</time>
      </trkpt>
      <trkpt lat="44.09662" lon="4.01718">
        <ele>280.36</ele>
        <time>2011-12-10T14:20:58Z</time>
      </trkpt>
      <trkpt lat="44.09651" lon="4.01713">
        <ele>280.84</ele>
        <time>2011-12-10T14:21:07Z</time>
      </trkpt>
      <trkpt lat="44.09649" lon="4.01713">
        <ele>281.32</ele>
        <time>2011-12-10T14:21:08Z</time>
      </trkpt>
      <trkpt lat="44.09647" lon="4.01711">
        <ele>281.32</ele>
        <time>2011-12-10T14:21:09Z</time>
      </trkpt>
      <trkpt lat="44.09645" lon="4.0171">
        <ele>281.8</ele>
        <time>2011-12-10T14:21:10Z</time>
      </trkpt>
      <trkpt lat="44.09644" lon="4.01708">
        <ele>281.8</ele>
        <time>2011-12-10T14:21:11Z</time>
      </trkpt>
      <trkpt lat="44.09642" lon="4.01707">
        <ele>281.8</ele>
        <time>2011-12-10T14:21:12Z</time>
      </trkpt>
      <trkpt lat="44.0964" lon="4.01705">
        <ele>281.32</ele>
        <time>2011-12-10T14:21:13Z</time>
      </trkpt>
      <trkpt lat="44.09639" lon="4.01703">
        <ele>281.8</ele>
        <time>2011-12-10T14:21:14Z</time>
      </trkpt>
      <trkpt lat="44.09638" lon="4.01702">
        <ele>282.28</ele>
        <time>2011-12-10T14:21:15Z</time>
      </trkpt>
      <trkpt lat="44.09637" lon="4.017">
        <ele>282.28</ele>
        <time>2011-12-10T14:21:16Z</time>
      </trkpt>
      <trkpt lat="44.09635" lon="4.01698">
        <ele>282.77</ele>
        <time>2011-12-10T14:21:17Z</time>
      </trkpt>
      <trkpt lat="44.09634" lon="4.01697">
        <ele>282.28</ele>
        <time>2011-12-10T14:21:18Z</time>
      </trkpt>
      <trkpt lat="44.09632" lon="4.01695">
        <ele>282.77</ele>
        <time>2011-12-10T14:21:19Z</time>
      </trkpt>
      <trkpt lat="44.09631" lon="4.01694">
        <ele>282.28</ele>
        <time>2011-12-10T14:21:20Z</time>
      </trkpt>
      <trkpt lat="44.0963" lon="4.01692">
        <ele>283.25</ele>
        <time>2011-12-10T14:21:21Z</time>
      </trkpt>
      <trkpt lat="44.09629" lon="4.0169">
        <ele>283.25</ele>
        <time>2011-12-10T14:21:22Z</time>
      </trkpt>
      <trkpt lat="44.09628" lon="4.01688">
        <ele>283.25</ele>
        <time>2011-12-10T14:21:23Z</time>
      </trkpt>
      <trkpt lat="44.09627" lon="4.01685">
        <ele>283.25</ele>
        <time>2011-12-10T14:21:24Z</time>
      </trkpt>
      <trkpt lat="44.09625" lon="4.01682">
        <ele>283.25</ele>
        <time>2011-12-10T14:21:25Z</time>
      </trkpt>
      <trkpt lat="44.0962" lon="4.01675">
        <ele>284.21</ele>
        <time>2011-12-10T14:21:28Z</time>
      </trkpt>
      <trkpt lat="44.09618" lon="4.01673">
        <ele>284.21</ele>
        <time>2011-12-10T14:21:29Z</time>
      </trkpt>
      <trkpt lat="44.09617" lon="4.01671">
        <ele>283.73</ele>
        <time>2011-12-10T14:21:30Z</time>
      </trkpt>
      <trkpt lat="44.09611" lon="4.01661">
        <ele>285.17</ele>
        <time>2011-12-10T14:21:34Z</time>
      </trkpt>
      <trkpt lat="44.0961" lon="4.01659">
        <ele>285.17</ele>
        <time>2011-12-10T14:21:35Z</time>
      </trkpt>
      <trkpt lat="44.09599" lon="4.01642">
        <ele>286.13</ele>
        <time>2011-12-10T14:21:43Z</time>
      </trkpt>
      <trkpt lat="44.09598" lon="4.0164">
        <ele>285.65</ele>
        <time>2011-12-10T14:21:44Z</time>
      </trkpt>
      <trkpt lat="44.09591" lon="4.01624">
        <ele>287.09</ele>
        <time>2011-12-10T14:21:50Z</time>
      </trkpt>
      <trkpt lat="44.0959" lon="4.01622">
        <ele>287.57</ele>
        <time>2011-12-10T14:21:51Z</time>
      </trkpt>
      <trkpt lat="44.09589" lon="4.0162">
        <ele>287.57</ele>
        <time>2011-12-10T14:21:52Z</time>
      </trkpt>
      <trkpt lat="44.09577" lon="4.01589">
        <ele>288.53</ele>
        <time>2011-12-10T14:22:03Z</time>
      </trkpt>
      <trkpt lat="44.09565" lon="4.01564">
        <ele>289.49</ele>
        <time>2011-12-10T14:22:11Z</time>
      </trkpt>
      <trkpt lat="44.09562" lon="4.01556">
        <ele>289.01</ele>
        <time>2011-12-10T14:22:13Z</time>
      </trkpt>
      <trkpt lat="44.09561" lon="4.01552">
        <ele>289.49</ele>
        <time>2011-12-10T14:22:14Z</time>
      </trkpt>
      <trkpt lat="44.09559" lon="4.01549">
        <ele>289.49</ele>
        <time>2011-12-10T14:22:15Z</time>
      </trkpt>
      <trkpt lat="44.09549" lon="4.01515">
        <ele>288.53</ele>
        <time>2011-12-10T14:22:23Z</time>
      </trkpt>
      <trkpt lat="44.09547" lon="4.01509">
        <ele>288.53</ele>
        <time>2011-12-10T14:22:24Z</time>
      </trkpt>
      <trkpt lat="44.09546" lon="4.01503">
        <ele>289.01</ele>
        <time>2011-12-10T14:22:25Z</time>
      </trkpt>
      <trkpt lat="44.09546" lon="4.01497">
        <ele>289.01</ele>
        <time>2011-12-10T14:22:26Z</time>
      </trkpt>
      <trkpt lat="44.09546" lon="4.0149">
        <ele>288.53</ele>
        <time>2011-12-10T14:22:27Z</time>
      </trkpt>
      <trkpt lat="44.09548" lon="4.01464">
        <ele>287.09</ele>
        <time>2011-12-10T14:22:31Z</time>
      </trkpt>
      <trkpt lat="44.09549" lon="4.01457">
        <ele>286.61</ele>
        <time>2011-12-10T14:22:32Z</time>
      </trkpt>
      <trkpt lat="44.0955" lon="4.01451">
        <ele>286.61</ele>
        <time>2011-12-10T14:22:33Z</time>
      </trkpt>
      <trkpt lat="44.0955" lon="4.0144">
        <ele>285.65</ele>
        <time>2011-12-10T14:22:35Z</time>
      </trkpt>
      <trkpt lat="44.0955" lon="4.01429">
        <ele>284.69</ele>
        <time>2011-12-10T14:22:38Z</time>
      </trkpt>
      <trkpt lat="44.09548" lon="4.01427">
        <ele>283.73</ele>
        <time>2011-12-10T14:22:39Z</time>
      </trkpt>
      <trkpt lat="44.09547" lon="4.01428">
        <ele>284.21</ele>
        <time>2011-12-10T14:22:40Z</time>
      </trkpt>
      <trkpt lat="44.09546" lon="4.0143">
        <ele>283.73</ele>
        <time>2011-12-10T14:22:41Z</time>
      </trkpt>
      <trkpt lat="44.09545" lon="4.01432">
        <ele>283.73</ele>
        <time>2011-12-10T14:22:42Z</time>
      </trkpt>
      <trkpt lat="44.09545" lon="4.01435">
        <ele>284.69</ele>
        <time>2011-12-10T14:22:43Z</time>
      </trkpt>
      <trkpt lat="44.09544" lon="4.01437">
        <ele>284.21</ele>
        <time>2011-12-10T14:22:56Z</time>
      </trkpt>
      <trkpt lat="44.09544" lon="4.01437">
        <ele>283.25</ele>
        <time>2011-12-10T14:23:19Z</time>
      </trkpt>
      <trkpt lat="44.09544" lon="4.01437">
        <ele>283.25</ele>
        <time>2011-12-10T14:23:52Z</time>
      </trkpt>
      <trkpt lat="44.09544" lon="4.01437">
        <ele>283.25</ele>
        <time>2011-12-10T14:24:26Z</time>
      </trkpt>
      <trkpt lat="44.09544" lon="4.01437">
        <ele>283.73</ele>
        <time>2011-12-10T14:24:57Z</time>
      </trkpt>
      <trkpt lat="44.09544" lon="4.01437">
        <ele>283.73</ele>
        <time>2011-12-10T14:25:20Z</time>
      </trkpt>
      <trkpt lat="44.09536" lon="4.01458">
        <ele>282.77</ele>
        <time>2011-12-10T14:25:37Z</time>
      </trkpt>
      <trkpt lat="44.09533" lon="4.01464">
        <ele>282.28</ele>
        <time>2011-12-10T14:25:38Z</time>
      </trkpt>
      <trkpt lat="44.09528" lon="4.0147">
        <ele>281.8</ele>
        <time>2011-12-10T14:25:39Z</time>
      </trkpt>
      <trkpt lat="44.09522" lon="4.01476">
        <ele>280.36</ele>
        <time>2011-12-10T14:25:40Z</time>
      </trkpt>
      <trkpt lat="44.09517" lon="4.01483">
        <ele>280.36</ele>
        <time>2011-12-10T14:25:41Z</time>
      </trkpt>
      <trkpt lat="44.09513" lon="4.01492">
        <ele>278.92</ele>
        <time>2011-12-10T14:25:42Z</time>
      </trkpt>
      <trkpt lat="44.09509" lon="4.01502">
        <ele>278.44</ele>
        <time>2011-12-10T14:25:43Z</time>
      </trkpt>
      <trkpt lat="44.09494" lon="4.0154">
        <ele>276.04</ele>
        <time>2011-12-10T14:25:47Z</time>
      </trkpt>
      <trkpt lat="44.09489" lon="4.01545">
        <ele>276.04</ele>
        <time>2011-12-10T14:25:48Z</time>
      </trkpt>
      <trkpt lat="44.09483" lon="4.0155">
        <ele>274.11</ele>
        <time>2011-12-10T14:25:49Z</time>
      </trkpt>
      <trkpt lat="44.09469" lon="4.01557">
        <ele>273.15</ele>
        <time>2011-12-10T14:25:51Z</time>
      </trkpt>
      <trkpt lat="44.09462" lon="4.0156">
        <ele>273.15</ele>
        <time>2011-12-10T14:25:52Z</time>
      </trkpt>
      <trkpt lat="44.09455" lon="4.01562">
        <ele>272.67</ele>
        <time>2011-12-10T14:25:53Z</time>
      </trkpt>
      <trkpt lat="44.09441" lon="4.01568">
        <ele>271.71</ele>
        <time>2011-12-10T14:25:55Z</time>
      </trkpt>
      <trkpt lat="44.09435" lon="4.01572">
        <ele>271.23</ele>
        <time>2011-12-10T14:25:56Z</time>
      </trkpt>
      <trkpt lat="44.09429" lon="4.01578">
        <ele>271.23</ele>
        <time>2011-12-10T14:25:57Z</time>
      </trkpt>
      <trkpt lat="44.09389" lon="4.01612">
        <ele>268.35</ele>
        <time>2011-12-10T14:26:03Z</time>
      </trkpt>
      <trkpt lat="44.09384" lon="4.01618">
        <ele>268.35</ele>
        <time>2011-12-10T14:26:04Z</time>
      </trkpt>
      <trkpt lat="44.09379" lon="4.01627">
        <ele>267.38</ele>
        <time>2011-12-10T14:26:05Z</time>
      </trkpt>
      <trkpt lat="44.09376" lon="4.01636">
        <ele>267.38</ele>
        <time>2011-12-10T14:26:06Z</time>
      </trkpt>
      <trkpt lat="44.09373" lon="4.01646">
        <ele>266.42</ele>
        <time>2011-12-10T14:26:07Z</time>
      </trkpt>
      <trkpt lat="44.09365" lon="4.01665">
        <ele>265.94</ele>
        <time>2011-12-10T14:26:09Z</time>
      </trkpt>
      <trkpt lat="44.0936" lon="4.01672">
        <ele>265.94</ele>
        <time>2011-12-10T14:26:10Z</time>
      </trkpt>
      <trkpt lat="44.0931" lon="4.01748">
        <ele>263.54</ele>
        <time>2011-12-10T14:26:21Z</time>
      </trkpt>
      <trkpt lat="44.09308" lon="4.01756">
        <ele>263.06</ele>
        <time>2011-12-10T14:26:22Z</time>
      </trkpt>
      <trkpt lat="44.09307" lon="4.01764">
        <ele>262.1</ele>
        <time>2011-12-10T14:26:23Z</time>
      </trkpt>
      <trkpt lat="44.09307" lon="4.01772">
        <ele>261.62</ele>
        <time>2011-12-10T14:26:24Z</time>
      </trkpt>
      <trkpt lat="44.09307" lon="4.01781">
        <ele>260.65</ele>
        <time>2011-12-10T14:26:25Z</time>
      </trkpt>
      <trkpt lat="44.09306" lon="4.0179">
        <ele>260.17</ele>
        <time>2011-12-10T14:26:26Z</time>
      </trkpt>
      <trkpt lat="44.09304" lon="4.01799">
        <ele>260.65</ele>
        <time>2011-12-10T14:26:27Z</time>
      </trkpt>
      <trkpt lat="44.093" lon="4.01807">
        <ele>260.17</ele>
        <time>2011-12-10T14:26:28Z</time>
      </trkpt>
      <trkpt lat="44.09294" lon="4.01814">
        <ele>260.17</ele>
        <time>2011-12-10T14:26:29Z</time>
      </trkpt>
      <trkpt lat="44.09284" lon="4.0183">
        <ele>259.21</ele>
        <time>2011-12-10T14:26:31Z</time>
      </trkpt>
      <trkpt lat="44.09279" lon="4.01838">
        <ele>259.69</ele>
        <time>2011-12-10T14:26:32Z</time>
      </trkpt>
      <trkpt lat="44.09271" lon="4.01855">
        <ele>259.21</ele>
        <time>2011-12-10T14:26:34Z</time>
      </trkpt>
      <trkpt lat="44.09267" lon="4.01862">
        <ele>259.21</ele>
        <time>2011-12-10T14:26:35Z</time>
      </trkpt>
      <trkpt lat="44.09258" lon="4.01878">
        <ele>258.73</ele>
        <time>2011-12-10T14:26:37Z</time>
      </trkpt>
      <trkpt lat="44.0925" lon="4.01892">
        <ele>258.73</ele>
        <time>2011-12-10T14:26:39Z</time>
      </trkpt>
      <trkpt lat="44.09237" lon="4.01912">
        <ele>258.73</ele>
        <time>2011-12-10T14:26:42Z</time>
      </trkpt>
      <trkpt lat="44.09233" lon="4.01918">
        <ele>258.73</ele>
        <time>2011-12-10T14:26:43Z</time>
      </trkpt>
      <trkpt lat="44.0923" lon="4.01924">
        <ele>259.21</ele>
        <time>2011-12-10T14:26:44Z</time>
      </trkpt>
      <trkpt lat="44.09226" lon="4.0193">
        <ele>260.17</ele>
        <time>2011-12-10T14:26:45Z</time>
      </trkpt>
      <trkpt lat="44.09222" lon="4.01936">
        <ele>258.73</ele>
        <time>2011-12-10T14:26:46Z</time>
      </trkpt>
      <trkpt lat="44.09218" lon="4.01942">
        <ele>258.73</ele>
        <time>2011-12-10T14:26:47Z</time>
      </trkpt>
      <trkpt lat="44.09215" lon="4.01949">
        <ele>258.73</ele>
        <time>2011-12-10T14:26:48Z</time>
      </trkpt>
      <trkpt lat="44.0919" lon="4.02008">
        <ele>260.17</ele>
        <time>2011-12-10T14:26:57Z</time>
      </trkpt>
      <trkpt lat="44.09187" lon="4.02014">
        <ele>260.17</ele>
        <time>2011-12-10T14:26:58Z</time>
      </trkpt>
      <trkpt lat="44.09184" lon="4.02019">
        <ele>260.65</ele>
        <time>2011-12-10T14:26:59Z</time>
      </trkpt>
      <trkpt lat="44.09152" lon="4.02056">
        <ele>261.14</ele>
        <time>2011-12-10T14:27:08Z</time>
      </trkpt>
      <trkpt lat="44.09149" lon="4.0206">
        <ele>261.62</ele>
        <time>2011-12-10T14:27:09Z</time>
      </trkpt>
      <trkpt lat="44.09147" lon="4.02064">
        <ele>262.58</ele>
        <time>2011-12-10T14:27:10Z</time>
      </trkpt>
      <trkpt lat="44.09145" lon="4.02069">
        <ele>262.1</ele>
        <time>2011-12-10T14:27:11Z</time>
      </trkpt>
      <trkpt lat="44.09143" lon="4.02074">
        <ele>262.1</ele>
        <time>2011-12-10T14:27:12Z</time>
      </trkpt>
      <trkpt lat="44.09127" lon="4.02107">
        <ele>264.98</ele>
        <time>2011-12-10T14:27:20Z</time>
      </trkpt>
      <trkpt lat="44.09117" lon="4.02115">
        <ele>265.46</ele>
        <time>2011-12-10T14:27:24Z</time>
      </trkpt>
      <trkpt lat="44.09114" lon="4.02113">
        <ele>265.46</ele>
        <time>2011-12-10T14:27:25Z</time>
      </trkpt>
      <trkpt lat="44.09111" lon="4.0211">
        <ele>265.46</ele>
        <time>2011-12-10T14:27:26Z</time>
      </trkpt>
      <trkpt lat="44.09109" lon="4.02105">
        <ele>265.94</ele>
        <time>2011-12-10T14:27:27Z</time>
      </trkpt>
      <trkpt lat="44.09107" lon="4.021">
        <ele>265.46</ele>
        <time>2011-12-10T14:27:28Z</time>
      </trkpt>
      <trkpt lat="44.09105" lon="4.02095">
        <ele>265.94</ele>
        <time>2011-12-10T14:27:29Z</time>
      </trkpt>
      <trkpt lat="44.09069" lon="4.02035">
        <ele>266.9</ele>
        <time>2011-12-10T14:27:43Z</time>
      </trkpt>
      <trkpt lat="44.09036" lon="4.0199">
        <ele>268.83</ele>
        <time>2011-12-10T14:27:56Z</time>
      </trkpt>
      <trkpt lat="44.09017" lon="4.01969">
        <ele>272.19</ele>
        <time>2011-12-10T14:28:05Z</time>
      </trkpt>
      <trkpt lat="44.08997" lon="4.01949">
        <ele>275.07</ele>
        <time>2011-12-10T14:28:14Z</time>
      </trkpt>
      <trkpt lat="44.08976" lon="4.01936">
        <ele>277.96</ele>
        <time>2011-12-10T14:28:23Z</time>
      </trkpt>
      <trkpt lat="44.08973" lon="4.01936">
        <ele>278.92</ele>
        <time>2011-12-10T14:28:24Z</time>
      </trkpt>
      <trkpt lat="44.08971" lon="4.01937">
        <ele>278.44</ele>
        <time>2011-12-10T14:28:25Z</time>
      </trkpt>
      <trkpt lat="44.08938" lon="4.0194">
        <ele>281.8</ele>
        <time>2011-12-10T14:28:41Z</time>
      </trkpt>
      <trkpt lat="44.08909" lon="4.01947">
        <ele>281.8</ele>
        <time>2011-12-10T14:28:54Z</time>
      </trkpt>
      <trkpt lat="44.08873" lon="4.01978">
        <ele>281.8</ele>
        <time>2011-12-10T14:29:07Z</time>
      </trkpt>
      <trkpt lat="44.08855" lon="4.0202">
        <ele>281.8</ele>
        <time>2011-12-10T14:29:17Z</time>
      </trkpt>
      <trkpt lat="44.08838" lon="4.02062">
        <ele>283.73</ele>
        <time>2011-12-10T14:29:28Z</time>
      </trkpt>
      <trkpt lat="44.08809" lon="4.02103">
        <ele>283.25</ele>
        <time>2011-12-10T14:29:39Z</time>
      </trkpt>
      <trkpt lat="44.08773" lon="4.02112">
        <ele>283.25</ele>
        <time>2011-12-10T14:29:49Z</time>
      </trkpt>
      <trkpt lat="44.08732" lon="4.02092">
        <ele>286.13</ele>
        <time>2011-12-10T14:30:01Z</time>
      </trkpt>
      <trkpt lat="44.08699" lon="4.0209">
        <ele>287.57</ele>
        <time>2011-12-10T14:30:13Z</time>
      </trkpt>
      <trkpt lat="44.08685" lon="4.02093">
        <ele>288.05</ele>
        <time>2011-12-10T14:30:21Z</time>
      </trkpt>
      <trkpt lat="44.08684" lon="4.02093">
        <ele>287.57</ele>
        <time>2011-12-10T14:30:22Z</time>
      </trkpt>
      <trkpt lat="44.08683" lon="4.02094">
        <ele>287.57</ele>
        <time>2011-12-10T14:30:23Z</time>
      </trkpt>
      <trkpt lat="44.08683" lon="4.02098">
        <ele>288.05</ele>
        <time>2011-12-10T14:30:33Z</time>
      </trkpt>
      <trkpt lat="44.08686" lon="4.02098">
        <ele>288.05</ele>
        <time>2011-12-10T14:30:37Z</time>
      </trkpt>
      <trkpt lat="44.08689" lon="4.02099">
        <ele>288.53</ele>
        <time>2011-12-10T14:30:39Z</time>
      </trkpt>
      <trkpt lat="44.0869" lon="4.02098">
        <ele>289.01</ele>
        <time>2011-12-10T14:30:40Z</time>
      </trkpt>
      <trkpt lat="44.08691" lon="4.02098">
        <ele>288.53</ele>
        <time>2011-12-10T14:30:41Z</time>
      </trkpt>
      <trkpt lat="44.08699" lon="4.02101">
        <ele>289.97</ele>
        <time>2011-12-10T14:30:51Z</time>
      </trkpt>
      <trkpt lat="44.08702" lon="4.02103">
        <ele>289.49</ele>
        <time>2011-12-10T14:30:59Z</time>
      </trkpt>
      <trkpt lat="44.08702" lon="4.02102">
        <ele>289.01</ele>
        <time>2011-12-10T14:31:00Z</time>
      </trkpt>
      <trkpt lat="44.08701" lon="4.02101">
        <ele>289.49</ele>
        <time>2011-12-10T14:31:01Z</time>
      </trkpt>
      <trkpt lat="44.08702" lon="4.02101">
        <ele>289.01</ele>
        <time>2011-12-10T14:31:14Z</time>
      </trkpt>
      <trkpt lat="44.08703" lon="4.02102">
        <ele>289.49</ele>
        <time>2011-12-10T14:31:15Z</time>
      </trkpt>
      <trkpt lat="44.08705" lon="4.02104">
        <ele>289.49</ele>
        <time>2011-12-10T14:31:16Z</time>
      </trkpt>
      <trkpt lat="44.08736" lon="4.02126">
        <ele>289.97</ele>
        <time>2011-12-10T14:31:28Z</time>
      </trkpt>
      <trkpt lat="44.08745" lon="4.02132">
        <ele>290.94</ele>
        <time>2011-12-10T14:31:34Z</time>
      </trkpt>
      <trkpt lat="44.08754" lon="4.02144">
        <ele>291.42</ele>
        <time>2011-12-10T14:31:40Z</time>
      </trkpt>
      <trkpt lat="44.08755" lon="4.02147">
        <ele>291.9</ele>
        <time>2011-12-10T14:31:41Z</time>
      </trkpt>
      <trkpt lat="44.08755" lon="4.0215">
        <ele>291.9</ele>
        <time>2011-12-10T14:31:42Z</time>
      </trkpt>
      <trkpt lat="44.08753" lon="4.02155">
        <ele>292.86</ele>
        <time>2011-12-10T14:31:47Z</time>
      </trkpt>
      <trkpt lat="44.08754" lon="4.02149">
        <ele>291.42</ele>
        <time>2011-12-10T14:31:55Z</time>
      </trkpt>
      <trkpt lat="44.08756" lon="4.0214">
        <ele>290.46</ele>
        <time>2011-12-10T14:32:03Z</time>
      </trkpt>
      <trkpt lat="44.08762" lon="4.02145">
        <ele>290.46</ele>
        <time>2011-12-10T14:32:07Z</time>
      </trkpt>
      <trkpt lat="44.08781" lon="4.02163">
        <ele>289.97</ele>
        <time>2011-12-10T14:32:14Z</time>
      </trkpt>
      <trkpt lat="44.08798" lon="4.0219">
        <ele>289.01</ele>
        <time>2011-12-10T14:32:23Z</time>
      </trkpt>
      <trkpt lat="44.08799" lon="4.02193">
        <ele>288.53</ele>
        <time>2011-12-10T14:32:35Z</time>
      </trkpt>
      <trkpt lat="44.08803" lon="4.02199">
        <ele>288.53</ele>
        <time>2011-12-10T14:32:41Z</time>
      </trkpt>
      <trkpt lat="44.08804" lon="4.02202">
        <ele>289.01</ele>
        <time>2011-12-10T14:32:42Z</time>
      </trkpt>
      <trkpt lat="44.08806" lon="4.02206">
        <ele>288.05</ele>
        <time>2011-12-10T14:32:43Z</time>
      </trkpt>
      <trkpt lat="44.08813" lon="4.02227">
        <ele>288.05</ele>
        <time>2011-12-10T14:32:48Z</time>
      </trkpt>
      <trkpt lat="44.08816" lon="4.02247">
        <ele>287.57</ele>
        <time>2011-12-10T14:32:52Z</time>
      </trkpt>
      <trkpt lat="44.08817" lon="4.02271">
        <ele>286.13</ele>
        <time>2011-12-10T14:32:57Z</time>
      </trkpt>
      <trkpt lat="44.08825" lon="4.02302">
        <ele>287.57</ele>
        <time>2011-12-10T14:33:03Z</time>
      </trkpt>
      <trkpt lat="44.08833" lon="4.02332">
        <ele>287.09</ele>
        <time>2011-12-10T14:33:08Z</time>
      </trkpt>
      <trkpt lat="44.08838" lon="4.02342">
        <ele>286.61</ele>
        <time>2011-12-10T14:33:10Z</time>
      </trkpt>
      <trkpt lat="44.08853" lon="4.02381">
        <ele>283.25</ele>
        <time>2011-12-10T14:33:17Z</time>
      </trkpt>
      <trkpt lat="44.08854" lon="4.02385">
        <ele>282.77</ele>
        <time>2011-12-10T14:33:18Z</time>
      </trkpt>
      <trkpt lat="44.08856" lon="4.02393">
        <ele>281.32</ele>
        <time>2011-12-10T14:33:20Z</time>
      </trkpt>
      <trkpt lat="44.08863" lon="4.02407">
        <ele>279.4</ele>
        <time>2011-12-10T14:33:25Z</time>
      </trkpt>
      <trkpt lat="44.08887" lon="4.02442">
        <ele>279.4</ele>
        <time>2011-12-10T14:33:34Z</time>
      </trkpt>
      <trkpt lat="44.08896" lon="4.0246">
        <ele>278.44</ele>
        <time>2011-12-10T14:33:38Z</time>
      </trkpt>
      <trkpt lat="44.08904" lon="4.02484">
        <ele>273.63</ele>
        <time>2011-12-10T14:33:42Z</time>
      </trkpt>
      <trkpt lat="44.08904" lon="4.02487">
        <ele>273.63</ele>
        <time>2011-12-10T14:33:43Z</time>
      </trkpt>
      <trkpt lat="44.08908" lon="4.02502">
        <ele>270.75</ele>
        <time>2011-12-10T14:33:46Z</time>
      </trkpt>
      <trkpt lat="44.08914" lon="4.02517">
        <ele>267.38</ele>
        <time>2011-12-10T14:33:50Z</time>
      </trkpt>
      <trkpt lat="44.08923" lon="4.0253">
        <ele>264.5</ele>
        <time>2011-12-10T14:33:54Z</time>
      </trkpt>
      <trkpt lat="44.08926" lon="4.02533">
        <ele>263.54</ele>
        <time>2011-12-10T14:33:55Z</time>
      </trkpt>
      <trkpt lat="44.08929" lon="4.0254">
        <ele>262.58</ele>
        <time>2011-12-10T14:33:57Z</time>
      </trkpt>
      <trkpt lat="44.08932" lon="4.02549">
        <ele>261.14</ele>
        <time>2011-12-10T14:33:59Z</time>
      </trkpt>
      <trkpt lat="44.08933" lon="4.02558">
        <ele>260.17</ele>
        <time>2011-12-10T14:34:01Z</time>
      </trkpt>
      <trkpt lat="44.08938" lon="4.0257">
        <ele>259.69</ele>
        <time>2011-12-10T14:34:04Z</time>
      </trkpt>
      <trkpt lat="44.08944" lon="4.02579">
        <ele>258.73</ele>
        <time>2011-12-10T14:34:07Z</time>
      </trkpt>
      <trkpt lat="44.08949" lon="4.02608">
        <ele>254.89</ele>
        <time>2011-12-10T14:34:13Z</time>
      </trkpt>
      <trkpt lat="44.08948" lon="4.02629">
        <ele>251.52</ele>
        <time>2011-12-10T14:34:17Z</time>
      </trkpt>
      <trkpt lat="44.08948" lon="4.02636">
        <ele>250.56</ele>
        <time>2011-12-10T14:34:18Z</time>
      </trkpt>
      <trkpt lat="44.08943" lon="4.0267">
        <ele>247.2</ele>
        <time>2011-12-10T14:34:26Z</time>
      </trkpt>
      <trkpt lat="44.08944" lon="4.02672">
        <ele>247.2</ele>
        <time>2011-12-10T14:34:41Z</time>
      </trkpt>
      <trkpt lat="44.08943" lon="4.02677">
        <ele>247.68</ele>
        <time>2011-12-10T14:34:53Z</time>
      </trkpt>
      <trkpt lat="44.08943" lon="4.02677">
        <ele>247.68</ele>
        <time>2011-12-10T14:35:13Z</time>
      </trkpt>
      <trkpt lat="44.08943" lon="4.02677">
        <ele>247.2</ele>
        <time>2011-12-10T14:35:17Z</time>
      </trkpt>
      <trkpt lat="44.08936" lon="4.02673">
        <ele>246.23</ele>
        <time>2011-12-10T14:35:20Z</time>
      </trkpt>
      <trkpt lat="44.08931" lon="4.02672">
        <ele>245.75</ele>
        <time>2011-12-10T14:35:21Z</time>
      </trkpt>
      <trkpt lat="44.08926" lon="4.02669">
        <ele>245.75</ele>
        <time>2011-12-10T14:35:22Z</time>
      </trkpt>
      <trkpt lat="44.08913" lon="4.02665">
        <ele>244.31</ele>
        <time>2011-12-10T14:35:24Z</time>
      </trkpt>
      <trkpt lat="44.08906" lon="4.02666">
        <ele>243.35</ele>
        <time>2011-12-10T14:35:25Z</time>
      </trkpt>
      <trkpt lat="44.089" lon="4.02669">
        <ele>242.87</ele>
        <time>2011-12-10T14:35:26Z</time>
      </trkpt>
      <trkpt lat="44.08896" lon="4.02675">
        <ele>242.39</ele>
        <time>2011-12-10T14:35:27Z</time>
      </trkpt>
      <trkpt lat="44.08893" lon="4.02683">
        <ele>241.91</ele>
        <time>2011-12-10T14:35:28Z</time>
      </trkpt>
      <trkpt lat="44.08892" lon="4.0269">
        <ele>241.43</ele>
        <time>2011-12-10T14:35:29Z</time>
      </trkpt>
      <trkpt lat="44.08886" lon="4.02703">
        <ele>240.47</ele>
        <time>2011-12-10T14:35:35Z</time>
      </trkpt>
      <trkpt lat="44.08885" lon="4.02706">
        <ele>240.47</ele>
        <time>2011-12-10T14:35:36Z</time>
      </trkpt>
      <trkpt lat="44.08884" lon="4.02709">
        <ele>240.47</ele>
        <time>2011-12-10T14:35:37Z</time>
      </trkpt>
      <trkpt lat="44.08883" lon="4.02713">
        <ele>240.47</ele>
        <time>2011-12-10T14:35:38Z</time>
      </trkpt>
      <trkpt lat="44.08883" lon="4.02717">
        <ele>240.47</ele>
        <time>2011-12-10T14:35:39Z</time>
      </trkpt>
      <trkpt lat="44.08883" lon="4.0272">
        <ele>240.47</ele>
        <time>2011-12-10T14:35:40Z</time>
      </trkpt>
      <trkpt lat="44.08879" lon="4.0277">
        <ele>240.95</ele>
        <time>2011-12-10T14:35:54Z</time>
      </trkpt>
      <trkpt lat="44.08873" lon="4.02799">
        <ele>244.31</ele>
        <time>2011-12-10T14:36:04Z</time>
      </trkpt>
      <trkpt lat="44.08874" lon="4.02823">
        <ele>247.68</ele>
        <time>2011-12-10T14:36:13Z</time>
      </trkpt>
      <trkpt lat="44.08878" lon="4.02846">
        <ele>250.56</ele>
        <time>2011-12-10T14:36:22Z</time>
      </trkpt>
      <trkpt lat="44.08881" lon="4.02874">
        <ele>252</ele>
        <time>2011-12-10T14:36:34Z</time>
      </trkpt>
      <trkpt lat="44.08882" lon="4.02885">
        <ele>252.96</ele>
        <time>2011-12-10T14:36:39Z</time>
      </trkpt>
      <trkpt lat="44.08882" lon="4.02886">
        <ele>253.44</ele>
        <time>2011-12-10T14:36:40Z</time>
      </trkpt>
      <trkpt lat="44.08883" lon="4.02888">
        <ele>253.44</ele>
        <time>2011-12-10T14:36:41Z</time>
      </trkpt>
      <trkpt lat="44.08884" lon="4.0289">
        <ele>253.93</ele>
        <time>2011-12-10T14:36:42Z</time>
      </trkpt>
      <trkpt lat="44.08884" lon="4.02892">
        <ele>254.41</ele>
        <time>2011-12-10T14:36:43Z</time>
      </trkpt>
      <trkpt lat="44.08884" lon="4.02895">
        <ele>254.89</ele>
        <time>2011-12-10T14:36:44Z</time>
      </trkpt>
      <trkpt lat="44.08885" lon="4.02897">
        <ele>254.89</ele>
        <time>2011-12-10T14:36:45Z</time>
      </trkpt>
      <trkpt lat="44.08885" lon="4.02906">
        <ele>255.85</ele>
        <time>2011-12-10T14:36:49Z</time>
      </trkpt>
      <trkpt lat="44.08885" lon="4.02908">
        <ele>256.81</ele>
        <time>2011-12-10T14:36:50Z</time>
      </trkpt>
      <trkpt lat="44.08885" lon="4.0291">
        <ele>257.29</ele>
        <time>2011-12-10T14:36:51Z</time>
      </trkpt>
      <trkpt lat="44.08886" lon="4.02923">
        <ele>258.73</ele>
        <time>2011-12-10T14:36:57Z</time>
      </trkpt>
      <trkpt lat="44.08889" lon="4.02947">
        <ele>260.65</ele>
        <time>2011-12-10T14:37:08Z</time>
      </trkpt>
      <trkpt lat="44.0889" lon="4.02956">
        <ele>262.1</ele>
        <time>2011-12-10T14:37:12Z</time>
      </trkpt>
      <trkpt lat="44.0889" lon="4.02958">
        <ele>262.1</ele>
        <time>2011-12-10T14:37:13Z</time>
      </trkpt>
      <trkpt lat="44.08891" lon="4.0296">
        <ele>262.58</ele>
        <time>2011-12-10T14:37:14Z</time>
      </trkpt>
      <trkpt lat="44.0889" lon="4.02962">
        <ele>262.58</ele>
        <time>2011-12-10T14:37:15Z</time>
      </trkpt>
      <trkpt lat="44.0889" lon="4.02964">
        <ele>262.58</ele>
        <time>2011-12-10T14:37:16Z</time>
      </trkpt>
      <trkpt lat="44.08889" lon="4.02966">
        <ele>263.06</ele>
        <time>2011-12-10T14:37:17Z</time>
      </trkpt>
      <trkpt lat="44.08888" lon="4.02968">
        <ele>263.54</ele>
        <time>2011-12-10T14:37:18Z</time>
      </trkpt>
      <trkpt lat="44.08888" lon="4.0297">
        <ele>263.06</ele>
        <time>2011-12-10T14:37:19Z</time>
      </trkpt>
      <trkpt lat="44.08887" lon="4.02972">
        <ele>263.06</ele>
        <time>2011-12-10T14:37:20Z</time>
      </trkpt>
      <trkpt lat="44.08887" lon="4.02975">
        <ele>263.54</ele>
        <time>2011-12-10T14:37:22Z</time>
      </trkpt>
      <trkpt lat="44.08892" lon="4.02996">
        <ele>264.98</ele>
        <time>2011-12-10T14:37:32Z</time>
      </trkpt>
      <trkpt lat="44.08893" lon="4.02998">
        <ele>264.98</ele>
        <time>2011-12-10T14:37:33Z</time>
      </trkpt>
      <trkpt lat="44.08894" lon="4.02999">
        <ele>265.94</ele>
        <time>2011-12-10T14:37:34Z</time>
      </trkpt>
      <trkpt lat="44.08894" lon="4.03001">
        <ele>265.94</ele>
        <time>2011-12-10T14:37:35Z</time>
      </trkpt>
      <trkpt lat="44.08894" lon="4.03003">
        <ele>266.42</ele>
        <time>2011-12-10T14:37:36Z</time>
      </trkpt>
      <trkpt lat="44.08894" lon="4.03004">
        <ele>266.42</ele>
        <time>2011-12-10T14:37:37Z</time>
      </trkpt>
      <trkpt lat="44.08894" lon="4.03006">
        <ele>266.9</ele>
        <time>2011-12-10T14:37:38Z</time>
      </trkpt>
      <trkpt lat="44.08894" lon="4.03007">
        <ele>267.38</ele>
        <time>2011-12-10T14:37:39Z</time>
      </trkpt>
      <trkpt lat="44.08895" lon="4.0301">
        <ele>267.86</ele>
        <time>2011-12-10T14:37:40Z</time>
      </trkpt>
      <trkpt lat="44.089" lon="4.03023">
        <ele>270.27</ele>
        <time>2011-12-10T14:37:47Z</time>
      </trkpt>
      <trkpt lat="44.089" lon="4.03026">
        <ele>270.27</ele>
        <time>2011-12-10T14:37:48Z</time>
      </trkpt>
      <trkpt lat="44.08899" lon="4.03027">
        <ele>270.75</ele>
        <time>2011-12-10T14:37:49Z</time>
      </trkpt>
      <trkpt lat="44.08898" lon="4.03029">
        <ele>270.27</ele>
        <time>2011-12-10T14:37:50Z</time>
      </trkpt>
      <trkpt lat="44.08896" lon="4.0303">
        <ele>270.75</ele>
        <time>2011-12-10T14:37:51Z</time>
      </trkpt>
      <trkpt lat="44.08894" lon="4.0303">
        <ele>270.75</ele>
        <time>2011-12-10T14:37:53Z</time>
      </trkpt>
      <trkpt lat="44.08893" lon="4.0303">
        <ele>270.75</ele>
        <time>2011-12-10T14:37:54Z</time>
      </trkpt>
      <trkpt lat="44.08893" lon="4.03028">
        <ele>270.75</ele>
        <time>2011-12-10T14:37:55Z</time>
      </trkpt>
      <trkpt lat="44.08892" lon="4.03026">
        <ele>270.75</ele>
        <time>2011-12-10T14:37:56Z</time>
      </trkpt>
      <trkpt lat="44.08892" lon="4.03023">
        <ele>271.23</ele>
        <time>2011-12-10T14:37:57Z</time>
      </trkpt>
      <trkpt lat="44.08891" lon="4.03021">
        <ele>271.71</ele>
        <time>2011-12-10T14:37:58Z</time>
      </trkpt>
      <trkpt lat="44.0889" lon="4.03019">
        <ele>271.71</ele>
        <time>2011-12-10T14:37:59Z</time>
      </trkpt>
      <trkpt lat="44.08889" lon="4.03017">
        <ele>271.71</ele>
        <time>2011-12-10T14:38:00Z</time>
      </trkpt>
      <trkpt lat="44.08888" lon="4.03015">
        <ele>271.71</ele>
        <time>2011-12-10T14:38:01Z</time>
      </trkpt>
      <trkpt lat="44.08887" lon="4.03013">
        <ele>272.19</ele>
        <time>2011-12-10T14:38:02Z</time>
      </trkpt>
      <trkpt lat="44.08885" lon="4.03011">
        <ele>272.67</ele>
        <time>2011-12-10T14:38:03Z</time>
      </trkpt>
      <trkpt lat="44.08875" lon="4.02995">
        <ele>274.59</ele>
        <time>2011-12-10T14:38:12Z</time>
      </trkpt>
      <trkpt lat="44.08874" lon="4.02993">
        <ele>274.59</ele>
        <time>2011-12-10T14:38:13Z</time>
      </trkpt>
      <trkpt lat="44.08873" lon="4.02991">
        <ele>275.07</ele>
        <time>2011-12-10T14:38:14Z</time>
      </trkpt>
      <trkpt lat="44.08872" lon="4.0299">
        <ele>274.59</ele>
        <time>2011-12-10T14:38:15Z</time>
      </trkpt>
      <trkpt lat="44.08872" lon="4.02988">
        <ele>275.56</ele>
        <time>2011-12-10T14:38:16Z</time>
      </trkpt>
      <trkpt lat="44.08871" lon="4.02986">
        <ele>274.59</ele>
        <time>2011-12-10T14:38:17Z</time>
      </trkpt>
      <trkpt lat="44.08857" lon="4.02963">
        <ele>276.52</ele>
        <time>2011-12-10T14:38:28Z</time>
      </trkpt>
      <trkpt lat="44.08836" lon="4.02941">
        <ele>278.92</ele>
        <time>2011-12-10T14:38:39Z</time>
      </trkpt>
      <trkpt lat="44.08825" lon="4.02916">
        <ele>280.84</ele>
        <time>2011-12-10T14:38:49Z</time>
      </trkpt>
      <trkpt lat="44.08824" lon="4.02915">
        <ele>281.8</ele>
        <time>2011-12-10T14:38:50Z</time>
      </trkpt>
      <trkpt lat="44.08823" lon="4.02914">
        <ele>281.8</ele>
        <time>2011-12-10T14:38:51Z</time>
      </trkpt>
      <trkpt lat="44.08802" lon="4.02906">
        <ele>285.17</ele>
        <time>2011-12-10T14:39:04Z</time>
      </trkpt>
      <trkpt lat="44.08794" lon="4.02908">
        <ele>286.13</ele>
        <time>2011-12-10T14:39:08Z</time>
      </trkpt>
      <trkpt lat="44.08793" lon="4.02909">
        <ele>286.13</ele>
        <time>2011-12-10T14:39:09Z</time>
      </trkpt>
      <trkpt lat="44.08791" lon="4.0291">
        <ele>286.61</ele>
        <time>2011-12-10T14:39:10Z</time>
      </trkpt>
      <trkpt lat="44.0879" lon="4.02911">
        <ele>286.61</ele>
        <time>2011-12-10T14:39:11Z</time>
      </trkpt>
      <trkpt lat="44.08789" lon="4.02912">
        <ele>287.09</ele>
        <time>2011-12-10T14:39:12Z</time>
      </trkpt>
      <trkpt lat="44.08786" lon="4.02915">
        <ele>288.05</ele>
        <time>2011-12-10T14:39:15Z</time>
      </trkpt>
      <trkpt lat="44.08785" lon="4.02916">
        <ele>288.53</ele>
        <time>2011-12-10T14:39:16Z</time>
      </trkpt>
      <trkpt lat="44.0878" lon="4.0292">
        <ele>288.53</ele>
        <time>2011-12-10T14:39:20Z</time>
      </trkpt>
      <trkpt lat="44.08779" lon="4.02921">
        <ele>288.05</ele>
        <time>2011-12-10T14:39:21Z</time>
      </trkpt>
      <trkpt lat="44.08776" lon="4.02922">
        <ele>288.05</ele>
        <time>2011-12-10T14:39:22Z</time>
      </trkpt>
      <trkpt lat="44.08742" lon="4.02927">
        <ele>287.57</ele>
        <time>2011-12-10T14:39:35Z</time>
      </trkpt>
      <trkpt lat="44.0871" lon="4.02929">
        <ele>288.53</ele>
        <time>2011-12-10T14:39:48Z</time>
      </trkpt>
      <trkpt lat="44.08704" lon="4.0293">
        <ele>289.97</ele>
        <time>2011-12-10T14:39:50Z</time>
      </trkpt>
      <trkpt lat="44.08674" lon="4.02931">
        <ele>292.38</ele>
        <time>2011-12-10T14:40:00Z</time>
      </trkpt>
      <trkpt lat="44.08645" lon="4.0293">
        <ele>295.74</ele>
        <time>2011-12-10T14:40:10Z</time>
      </trkpt>
      <trkpt lat="44.08625" lon="4.02933">
        <ele>297.67</ele>
        <time>2011-12-10T14:40:20Z</time>
      </trkpt>
      <trkpt lat="44.08618" lon="4.02934">
        <ele>296.7</ele>
        <time>2011-12-10T14:40:31Z</time>
      </trkpt>
      <trkpt lat="44.08618" lon="4.02934">
        <ele>296.7</ele>
        <time>2011-12-10T14:40:53Z</time>
      </trkpt>
      <trkpt lat="44.08617" lon="4.02934">
        <ele>297.18</ele>
        <time>2011-12-10T14:41:25Z</time>
      </trkpt>
      <trkpt lat="44.08617" lon="4.02934">
        <ele>297.18</ele>
        <time>2011-12-10T14:41:49Z</time>
      </trkpt>
      <trkpt lat="44.08613" lon="4.02937">
        <ele>297.18</ele>
        <time>2011-12-10T14:42:04Z</time>
      </trkpt>
      <trkpt lat="44.08612" lon="4.02937">
        <ele>296.7</ele>
        <time>2011-12-10T14:42:05Z</time>
      </trkpt>
      <trkpt lat="44.0861" lon="4.02937">
        <ele>297.18</ele>
        <time>2011-12-10T14:42:06Z</time>
      </trkpt>
      <trkpt lat="44.08608" lon="4.02937">
        <ele>296.7</ele>
        <time>2011-12-10T14:42:07Z</time>
      </trkpt>
      <trkpt lat="44.08606" lon="4.02937">
        <ele>297.18</ele>
        <time>2011-12-10T14:42:08Z</time>
      </trkpt>
      <trkpt lat="44.08603" lon="4.02937">
        <ele>297.18</ele>
        <time>2011-12-10T14:42:09Z</time>
      </trkpt>
      <trkpt lat="44.08584" lon="4.02941">
        <ele>296.22</ele>
        <time>2011-12-10T14:42:14Z</time>
      </trkpt>
      <trkpt lat="44.0858" lon="4.02943">
        <ele>295.74</ele>
        <time>2011-12-10T14:42:15Z</time>
      </trkpt>
      <trkpt lat="44.08576" lon="4.02946">
        <ele>295.26</ele>
        <time>2011-12-10T14:42:16Z</time>
      </trkpt>
      <trkpt lat="44.08571" lon="4.02949">
        <ele>295.26</ele>
        <time>2011-12-10T14:42:17Z</time>
      </trkpt>
      <trkpt lat="44.08567" lon="4.02951">
        <ele>295.26</ele>
        <time>2011-12-10T14:42:18Z</time>
      </trkpt>
      <trkpt lat="44.08562" lon="4.02954">
        <ele>294.78</ele>
        <time>2011-12-10T14:42:19Z</time>
      </trkpt>
      <trkpt lat="44.08557" lon="4.02958">
        <ele>294.3</ele>
        <time>2011-12-10T14:42:20Z</time>
      </trkpt>
      <trkpt lat="44.08501" lon="4.03007">
        <ele>291.42</ele>
        <time>2011-12-10T14:42:30Z</time>
      </trkpt>
      <trkpt lat="44.0849" lon="4.03019">
        <ele>289.97</ele>
        <time>2011-12-10T14:42:32Z</time>
      </trkpt>
      <trkpt lat="44.08482" lon="4.03023">
        <ele>289.49</ele>
        <time>2011-12-10T14:42:33Z</time>
      </trkpt>
      <trkpt lat="44.08475" lon="4.03026">
        <ele>288.53</ele>
        <time>2011-12-10T14:42:34Z</time>
      </trkpt>
      <trkpt lat="44.08467" lon="4.03028">
        <ele>289.01</ele>
        <time>2011-12-10T14:42:35Z</time>
      </trkpt>
      <trkpt lat="44.0846" lon="4.0303">
        <ele>288.05</ele>
        <time>2011-12-10T14:42:36Z</time>
      </trkpt>
      <trkpt lat="44.08453" lon="4.03033">
        <ele>288.05</ele>
        <time>2011-12-10T14:42:37Z</time>
      </trkpt>
      <trkpt lat="44.08447" lon="4.03037">
        <ele>288.05</ele>
        <time>2011-12-10T14:42:38Z</time>
      </trkpt>
      <trkpt lat="44.08442" lon="4.03041">
        <ele>287.09</ele>
        <time>2011-12-10T14:42:39Z</time>
      </trkpt>
      <trkpt lat="44.08438" lon="4.03046">
        <ele>287.57</ele>
        <time>2011-12-10T14:42:40Z</time>
      </trkpt>
      <trkpt lat="44.08434" lon="4.03051">
        <ele>287.57</ele>
        <time>2011-12-10T14:42:41Z</time>
      </trkpt>
      <trkpt lat="44.08421" lon="4.03064">
        <ele>286.13</ele>
        <time>2011-12-10T14:42:46Z</time>
      </trkpt>
      <trkpt lat="44.08409" lon="4.03062">
        <ele>284.69</ele>
        <time>2011-12-10T14:42:51Z</time>
      </trkpt>
      <trkpt lat="44.08404" lon="4.03063">
        <ele>284.21</ele>
        <time>2011-12-10T14:42:52Z</time>
      </trkpt>
      <trkpt lat="44.08399" lon="4.03064">
        <ele>283.73</ele>
        <time>2011-12-10T14:42:53Z</time>
      </trkpt>
      <trkpt lat="44.08394" lon="4.03067">
        <ele>282.77</ele>
        <time>2011-12-10T14:42:54Z</time>
      </trkpt>
      <trkpt lat="44.0839" lon="4.0307">
        <ele>282.77</ele>
        <time>2011-12-10T14:42:55Z</time>
      </trkpt>
      <trkpt lat="44.08385" lon="4.03074">
        <ele>282.28</ele>
        <time>2011-12-10T14:42:56Z</time>
      </trkpt>
      <trkpt lat="44.08379" lon="4.0308">
        <ele>280.84</ele>
        <time>2011-12-10T14:42:57Z</time>
      </trkpt>
      <trkpt lat="44.08374" lon="4.03085">
        <ele>280.84</ele>
        <time>2011-12-10T14:42:58Z</time>
      </trkpt>
      <trkpt lat="44.08369" lon="4.03089">
        <ele>280.84</ele>
        <time>2011-12-10T14:42:59Z</time>
      </trkpt>
      <trkpt lat="44.08364" lon="4.03091">
        <ele>279.88</ele>
        <time>2011-12-10T14:43:00Z</time>
      </trkpt>
      <trkpt lat="44.08359" lon="4.03091">
        <ele>278.92</ele>
        <time>2011-12-10T14:43:01Z</time>
      </trkpt>
      <trkpt lat="44.08356" lon="4.0309">
        <ele>278.44</ele>
        <time>2011-12-10T14:43:02Z</time>
      </trkpt>
      <trkpt lat="44.08352" lon="4.03091">
        <ele>277</ele>
        <time>2011-12-10T14:43:05Z</time>
      </trkpt>
      <trkpt lat="44.08351" lon="4.03092">
        <ele>277</ele>
        <time>2011-12-10T14:43:06Z</time>
      </trkpt>
      <trkpt lat="44.0835" lon="4.03097">
        <ele>277</ele>
        <time>2011-12-10T14:43:08Z</time>
      </trkpt>
      <trkpt lat="44.0835" lon="4.03099">
        <ele>277.48</ele>
        <time>2011-12-10T14:43:09Z</time>
      </trkpt>
      <trkpt lat="44.08349" lon="4.03101">
        <ele>277.48</ele>
        <time>2011-12-10T14:43:10Z</time>
      </trkpt>
      <trkpt lat="44.0835" lon="4.03105">
        <ele>277.48</ele>
        <time>2011-12-10T14:43:13Z</time>
      </trkpt>
      <trkpt lat="44.0835" lon="4.03107">
        <ele>277.48</ele>
        <time>2011-12-10T14:43:14Z</time>
      </trkpt>
      <trkpt lat="44.08349" lon="4.03111">
        <ele>277.48</ele>
        <time>2011-12-10T14:43:16Z</time>
      </trkpt>
      <trkpt lat="44.08336" lon="4.03141">
        <ele>277</ele>
        <time>2011-12-10T14:43:24Z</time>
      </trkpt>
      <trkpt lat="44.08325" lon="4.03155">
        <ele>277.48</ele>
        <time>2011-12-10T14:43:30Z</time>
      </trkpt>
      <trkpt lat="44.08319" lon="4.03161">
        <ele>277.48</ele>
        <time>2011-12-10T14:43:33Z</time>
      </trkpt>
      <trkpt lat="44.08309" lon="4.03183">
        <ele>278.92</ele>
        <time>2011-12-10T14:43:45Z</time>
      </trkpt>
      <trkpt lat="44.08307" lon="4.03192">
        <ele>279.88</ele>
        <time>2011-12-10T14:43:49Z</time>
      </trkpt>
      <trkpt lat="44.08297" lon="4.03231">
        <ele>281.8</ele>
        <time>2011-12-10T14:44:00Z</time>
      </trkpt>
      <trkpt lat="44.0828" lon="4.03269">
        <ele>283.25</ele>
        <time>2011-12-10T14:44:13Z</time>
      </trkpt>
      <trkpt lat="44.08276" lon="4.03272">
        <ele>282.77</ele>
        <time>2011-12-10T14:44:15Z</time>
      </trkpt>
      <trkpt lat="44.08248" lon="4.03234">
        <ele>281.32</ele>
        <time>2011-12-10T14:44:27Z</time>
      </trkpt>
      <trkpt lat="44.08245" lon="4.03217">
        <ele>280.84</ele>
        <time>2011-12-10T14:44:32Z</time>
      </trkpt>
      <trkpt lat="44.08241" lon="4.032">
        <ele>281.32</ele>
        <time>2011-12-10T14:44:39Z</time>
      </trkpt>
      <trkpt lat="44.08236" lon="4.03191">
        <ele>281.8</ele>
        <time>2011-12-10T14:44:43Z</time>
      </trkpt>
      <trkpt lat="44.08226" lon="4.03183">
        <ele>282.77</ele>
        <time>2011-12-10T14:44:47Z</time>
      </trkpt>
      <trkpt lat="44.08195" lon="4.03181">
        <ele>284.69</ele>
        <time>2011-12-10T14:44:58Z</time>
      </trkpt>
      <trkpt lat="44.0819" lon="4.03178">
        <ele>286.13</ele>
        <time>2011-12-10T14:45:02Z</time>
      </trkpt>
      <trkpt lat="44.08184" lon="4.03173">
        <ele>285.65</ele>
        <time>2011-12-10T14:45:15Z</time>
      </trkpt>
      <trkpt lat="44.08184" lon="4.03173">
        <ele>285.65</ele>
        <time>2011-12-10T14:45:35Z</time>
      </trkpt>
      <trkpt lat="44.08177" lon="4.03165">
        <ele>284.69</ele>
        <time>2011-12-10T14:45:40Z</time>
      </trkpt>
      <trkpt lat="44.08145" lon="4.0315">
        <ele>283.25</ele>
        <time>2011-12-10T14:45:50Z</time>
      </trkpt>
      <trkpt lat="44.08114" lon="4.03141">
        <ele>282.28</ele>
        <time>2011-12-10T14:45:59Z</time>
      </trkpt>
      <trkpt lat="44.0811" lon="4.03139">
        <ele>282.77</ele>
        <time>2011-12-10T14:46:00Z</time>
      </trkpt>
      <trkpt lat="44.08107" lon="4.03138">
        <ele>282.28</ele>
        <time>2011-12-10T14:46:01Z</time>
      </trkpt>
      <trkpt lat="44.08103" lon="4.03138">
        <ele>282.28</ele>
        <time>2011-12-10T14:46:02Z</time>
      </trkpt>
      <trkpt lat="44.08099" lon="4.03137">
        <ele>281.8</ele>
        <time>2011-12-10T14:46:03Z</time>
      </trkpt>
      <trkpt lat="44.08091" lon="4.03139">
        <ele>282.77</ele>
        <time>2011-12-10T14:46:06Z</time>
      </trkpt>
      <trkpt lat="44.0809" lon="4.0314">
        <ele>283.25</ele>
        <time>2011-12-10T14:46:07Z</time>
      </trkpt>
      <trkpt lat="44.0809" lon="4.03141">
        <ele>282.77</ele>
        <time>2011-12-10T14:46:08Z</time>
      </trkpt>
      <trkpt lat="44.08089" lon="4.03144">
        <ele>283.25</ele>
        <time>2011-12-10T14:46:09Z</time>
      </trkpt>
      <trkpt lat="44.08089" lon="4.03146">
        <ele>282.77</ele>
        <time>2011-12-10T14:46:10Z</time>
      </trkpt>
      <trkpt lat="44.08088" lon="4.03147">
        <ele>282.77</ele>
        <time>2011-12-10T14:46:11Z</time>
      </trkpt>
      <trkpt lat="44.08087" lon="4.03148">
        <ele>282.77</ele>
        <time>2011-12-10T14:46:12Z</time>
      </trkpt>
      <trkpt lat="44.08086" lon="4.03149">
        <ele>283.73</ele>
        <time>2011-12-10T14:46:13Z</time>
      </trkpt>
      <trkpt lat="44.08084" lon="4.03149">
        <ele>283.73</ele>
        <time>2011-12-10T14:46:14Z</time>
      </trkpt>
      <trkpt lat="44.08082" lon="4.03148">
        <ele>283.73</ele>
        <time>2011-12-10T14:46:15Z</time>
      </trkpt>
      <trkpt lat="44.0808" lon="4.03148">
        <ele>283.73</ele>
        <time>2011-12-10T14:46:16Z</time>
      </trkpt>
      <trkpt lat="44.08077" lon="4.03147">
        <ele>283.73</ele>
        <time>2011-12-10T14:46:17Z</time>
      </trkpt>
      <trkpt lat="44.08075" lon="4.03147">
        <ele>284.21</ele>
        <time>2011-12-10T14:46:18Z</time>
      </trkpt>
      <trkpt lat="44.08071" lon="4.03147">
        <ele>283.73</ele>
        <time>2011-12-10T14:46:19Z</time>
      </trkpt>
      <trkpt lat="44.08067" lon="4.03148">
        <ele>283.73</ele>
        <time>2011-12-10T14:46:20Z</time>
      </trkpt>
      <trkpt lat="44.08063" lon="4.03149">
        <ele>282.77</ele>
        <time>2011-12-10T14:46:21Z</time>
      </trkpt>
      <trkpt lat="44.08059" lon="4.0315">
        <ele>282.77</ele>
        <time>2011-12-10T14:46:22Z</time>
      </trkpt>
      <trkpt lat="44.08054" lon="4.03151">
        <ele>282.28</ele>
        <time>2011-12-10T14:46:23Z</time>
      </trkpt>
      <trkpt lat="44.08048" lon="4.03153">
        <ele>282.28</ele>
        <time>2011-12-10T14:46:24Z</time>
      </trkpt>
      <trkpt lat="44.08044" lon="4.03154">
        <ele>282.28</ele>
        <time>2011-12-10T14:46:25Z</time>
      </trkpt>
      <trkpt lat="44.0804" lon="4.03154">
        <ele>282.77</ele>
        <time>2011-12-10T14:46:26Z</time>
      </trkpt>
      <trkpt lat="44.08036" lon="4.03153">
        <ele>282.77</ele>
        <time>2011-12-10T14:46:27Z</time>
      </trkpt>
      <trkpt lat="44.08032" lon="4.03153">
        <ele>282.77</ele>
        <time>2011-12-10T14:46:28Z</time>
      </trkpt>
      <trkpt lat="44.08028" lon="4.03153">
        <ele>281.8</ele>
        <time>2011-12-10T14:46:29Z</time>
      </trkpt>
      <trkpt lat="44.08024" lon="4.03153">
        <ele>282.28</ele>
        <time>2011-12-10T14:46:30Z</time>
      </trkpt>
      <trkpt lat="44.08019" lon="4.03155">
        <ele>282.28</ele>
        <time>2011-12-10T14:46:31Z</time>
      </trkpt>
      <trkpt lat="44.08015" lon="4.03156">
        <ele>282.28</ele>
        <time>2011-12-10T14:46:32Z</time>
      </trkpt>
      <trkpt lat="44.0801" lon="4.03158">
        <ele>281.8</ele>
        <time>2011-12-10T14:46:33Z</time>
      </trkpt>
      <trkpt lat="44.08005" lon="4.03158">
        <ele>282.28</ele>
        <time>2011-12-10T14:46:34Z</time>
      </trkpt>
      <trkpt lat="44.08" lon="4.03159">
        <ele>281.8</ele>
        <time>2011-12-10T14:46:35Z</time>
      </trkpt>
      <trkpt lat="44.07995" lon="4.03161">
        <ele>282.28</ele>
        <time>2011-12-10T14:46:36Z</time>
      </trkpt>
      <trkpt lat="44.0799" lon="4.03162">
        <ele>281.32</ele>
        <time>2011-12-10T14:46:37Z</time>
      </trkpt>
      <trkpt lat="44.07984" lon="4.03164">
        <ele>281.8</ele>
        <time>2011-12-10T14:46:38Z</time>
      </trkpt>
      <trkpt lat="44.07979" lon="4.03166">
        <ele>281.32</ele>
        <time>2011-12-10T14:46:39Z</time>
      </trkpt>
      <trkpt lat="44.07974" lon="4.03169">
        <ele>281.8</ele>
        <time>2011-12-10T14:46:40Z</time>
      </trkpt>
      <trkpt lat="44.07969" lon="4.03173">
        <ele>282.28</ele>
        <time>2011-12-10T14:46:41Z</time>
      </trkpt>
      <trkpt lat="44.07965" lon="4.03178">
        <ele>282.77</ele>
        <time>2011-12-10T14:46:42Z</time>
      </trkpt>
      <trkpt lat="44.07951" lon="4.03196">
        <ele>282.77</ele>
        <time>2011-12-10T14:46:46Z</time>
      </trkpt>
      <trkpt lat="44.07935" lon="4.03208">
        <ele>281.32</ele>
        <time>2011-12-10T14:46:50Z</time>
      </trkpt>
      <trkpt lat="44.07921" lon="4.0324">
        <ele>280.84</ele>
        <time>2011-12-10T14:46:58Z</time>
      </trkpt>
      <trkpt lat="44.07921" lon="4.03245">
        <ele>281.32</ele>
        <time>2011-12-10T14:46:59Z</time>
      </trkpt>
      <trkpt lat="44.0792" lon="4.0327">
        <ele>282.28</ele>
        <time>2011-12-10T14:47:06Z</time>
      </trkpt>
      <trkpt lat="44.0792" lon="4.03282">
        <ele>284.69</ele>
        <time>2011-12-10T14:47:11Z</time>
      </trkpt>
      <trkpt lat="44.07918" lon="4.03294">
        <ele>286.13</ele>
        <time>2011-12-10T14:47:21Z</time>
      </trkpt>
      <trkpt lat="44.07918" lon="4.03294">
        <ele>285.65</ele>
        <time>2011-12-10T14:47:36Z</time>
      </trkpt>
      <trkpt lat="44.07917" lon="4.03295">
        <ele>286.13</ele>
        <time>2011-12-10T14:47:49Z</time>
      </trkpt>
      <trkpt lat="44.07904" lon="4.03309">
        <ele>283.25</ele>
        <time>2011-12-10T14:47:57Z</time>
      </trkpt>
      <trkpt lat="44.079" lon="4.03314">
        <ele>280.84</ele>
        <time>2011-12-10T14:47:59Z</time>
      </trkpt>
      <trkpt lat="44.07887" lon="4.0334">
        <ele>278.44</ele>
        <time>2011-12-10T14:48:06Z</time>
      </trkpt>
      <trkpt lat="44.07884" lon="4.03377">
        <ele>277.96</ele>
        <time>2011-12-10T14:48:12Z</time>
      </trkpt>
      <trkpt lat="44.07884" lon="4.03416">
        <ele>278.92</ele>
        <time>2011-12-10T14:48:19Z</time>
      </trkpt>
      <trkpt lat="44.07891" lon="4.03458">
        <ele>279.88</ele>
        <time>2011-12-10T14:48:29Z</time>
      </trkpt>
      <trkpt lat="44.07894" lon="4.03468">
        <ele>279.88</ele>
        <time>2011-12-10T14:48:31Z</time>
      </trkpt>
      <trkpt lat="44.07904" lon="4.03488">
        <ele>279.4</ele>
        <time>2011-12-10T14:48:35Z</time>
      </trkpt>
      <trkpt lat="44.07906" lon="4.03492">
        <ele>278.92</ele>
        <time>2011-12-10T14:48:36Z</time>
      </trkpt>
      <trkpt lat="44.07908" lon="4.03495">
        <ele>278.92</ele>
        <time>2011-12-10T14:48:37Z</time>
      </trkpt>
      <trkpt lat="44.0791" lon="4.03498">
        <ele>278.44</ele>
        <time>2011-12-10T14:48:38Z</time>
      </trkpt>
      <trkpt lat="44.07913" lon="4.03502">
        <ele>277.96</ele>
        <time>2011-12-10T14:48:39Z</time>
      </trkpt>
      <trkpt lat="44.07915" lon="4.03507">
        <ele>277.48</ele>
        <time>2011-12-10T14:48:40Z</time>
      </trkpt>
      <trkpt lat="44.07919" lon="4.03515">
        <ele>277</ele>
        <time>2011-12-10T14:48:41Z</time>
      </trkpt>
      <trkpt lat="44.07923" lon="4.03524">
        <ele>276.04</ele>
        <time>2011-12-10T14:48:42Z</time>
      </trkpt>
      <trkpt lat="44.07927" lon="4.03529">
        <ele>277</ele>
        <time>2011-12-10T14:48:43Z</time>
      </trkpt>
      <trkpt lat="44.07932" lon="4.03534">
        <ele>277.96</ele>
        <time>2011-12-10T14:48:44Z</time>
      </trkpt>
      <trkpt lat="44.07935" lon="4.0354">
        <ele>278.44</ele>
        <time>2011-12-10T14:48:45Z</time>
      </trkpt>
      <trkpt lat="44.07936" lon="4.03555">
        <ele>278.92</ele>
        <time>2011-12-10T14:48:48Z</time>
      </trkpt>
      <trkpt lat="44.07936" lon="4.03557">
        <ele>278.92</ele>
        <time>2011-12-10T14:48:49Z</time>
      </trkpt>
      <trkpt lat="44.07936" lon="4.0356">
        <ele>278.92</ele>
        <time>2011-12-10T14:48:50Z</time>
      </trkpt>
      <trkpt lat="44.07936" lon="4.03563">
        <ele>278.92</ele>
        <time>2011-12-10T14:48:51Z</time>
      </trkpt>
      <trkpt lat="44.07935" lon="4.0357">
        <ele>277.96</ele>
        <time>2011-12-10T14:48:53Z</time>
      </trkpt>
      <trkpt lat="44.07947" lon="4.0359">
        <ele>278.92</ele>
        <time>2011-12-10T14:48:59Z</time>
      </trkpt>
      <trkpt lat="44.07952" lon="4.03601">
        <ele>280.36</ele>
        <time>2011-12-10T14:49:04Z</time>
      </trkpt>
      <trkpt lat="44.0796" lon="4.03602">
        <ele>281.32</ele>
        <time>2011-12-10T14:49:09Z</time>
      </trkpt>
      <trkpt lat="44.07969" lon="4.03611">
        <ele>281.32</ele>
        <time>2011-12-10T14:49:15Z</time>
      </trkpt>
      <trkpt lat="44.07976" lon="4.03611">
        <ele>282.77</ele>
        <time>2011-12-10T14:49:18Z</time>
      </trkpt>
      <trkpt lat="44.07981" lon="4.03611">
        <ele>282.28</ele>
        <time>2011-12-10T14:49:20Z</time>
      </trkpt>
      <trkpt lat="44.08002" lon="4.03619">
        <ele>280.84</ele>
        <time>2011-12-10T14:49:25Z</time>
      </trkpt>
      <trkpt lat="44.08018" lon="4.03626">
        <ele>278.92</ele>
        <time>2011-12-10T14:49:29Z</time>
      </trkpt>
      <trkpt lat="44.08023" lon="4.03625">
        <ele>277.96</ele>
        <time>2011-12-10T14:49:30Z</time>
      </trkpt>
      <trkpt lat="44.08029" lon="4.03624">
        <ele>277.96</ele>
        <time>2011-12-10T14:49:31Z</time>
      </trkpt>
      <trkpt lat="44.08035" lon="4.03624">
        <ele>277</ele>
        <time>2011-12-10T14:49:32Z</time>
      </trkpt>
      <trkpt lat="44.08041" lon="4.03626">
        <ele>277</ele>
        <time>2011-12-10T14:49:33Z</time>
      </trkpt>
      <trkpt lat="44.08046" lon="4.03628">
        <ele>277</ele>
        <time>2011-12-10T14:49:34Z</time>
      </trkpt>
      <trkpt lat="44.08051" lon="4.0363">
        <ele>277.48</ele>
        <time>2011-12-10T14:49:35Z</time>
      </trkpt>
      <trkpt lat="44.08056" lon="4.03633">
        <ele>277</ele>
        <time>2011-12-10T14:49:36Z</time>
      </trkpt>
      <trkpt lat="44.08059" lon="4.03636">
        <ele>277</ele>
        <time>2011-12-10T14:49:37Z</time>
      </trkpt>
      <trkpt lat="44.08062" lon="4.03639">
        <ele>276.52</ele>
        <time>2011-12-10T14:49:38Z</time>
      </trkpt>
      <trkpt lat="44.08065" lon="4.03641">
        <ele>277</ele>
        <time>2011-12-10T14:49:39Z</time>
      </trkpt>
      <trkpt lat="44.08067" lon="4.03644">
        <ele>277</ele>
        <time>2011-12-10T14:49:40Z</time>
      </trkpt>
      <trkpt lat="44.08069" lon="4.03648">
        <ele>277</ele>
        <time>2011-12-10T14:49:41Z</time>
      </trkpt>
      <trkpt lat="44.08073" lon="4.0366">
        <ele>276.52</ele>
        <time>2011-12-10T14:49:44Z</time>
      </trkpt>
      <trkpt lat="44.08075" lon="4.03664">
        <ele>276.52</ele>
        <time>2011-12-10T14:49:45Z</time>
      </trkpt>
      <trkpt lat="44.08077" lon="4.03668">
        <ele>275.56</ele>
        <time>2011-12-10T14:49:46Z</time>
      </trkpt>
      <trkpt lat="44.08079" lon="4.03671">
        <ele>275.07</ele>
        <time>2011-12-10T14:49:47Z</time>
      </trkpt>
      <trkpt lat="44.0808" lon="4.03674">
        <ele>274.59</ele>
        <time>2011-12-10T14:49:48Z</time>
      </trkpt>
      <trkpt lat="44.08081" lon="4.03677">
        <ele>273.63</ele>
        <time>2011-12-10T14:49:49Z</time>
      </trkpt>
      <trkpt lat="44.08082" lon="4.03679">
        <ele>273.15</ele>
        <time>2011-12-10T14:49:50Z</time>
      </trkpt>
      <trkpt lat="44.08083" lon="4.03682">
        <ele>272.19</ele>
        <time>2011-12-10T14:49:51Z</time>
      </trkpt>
      <trkpt lat="44.08083" lon="4.03684">
        <ele>272.67</ele>
        <time>2011-12-10T14:49:52Z</time>
      </trkpt>
      <trkpt lat="44.08083" lon="4.03687">
        <ele>271.71</ele>
        <time>2011-12-10T14:49:53Z</time>
      </trkpt>
      <trkpt lat="44.08082" lon="4.03689">
        <ele>271.23</ele>
        <time>2011-12-10T14:49:54Z</time>
      </trkpt>
      <trkpt lat="44.08083" lon="4.03691">
        <ele>270.27</ele>
        <time>2011-12-10T14:49:55Z</time>
      </trkpt>
      <trkpt lat="44.08084" lon="4.03693">
        <ele>270.27</ele>
        <time>2011-12-10T14:49:56Z</time>
      </trkpt>
      <trkpt lat="44.08085" lon="4.03697">
        <ele>268.83</ele>
        <time>2011-12-10T14:49:57Z</time>
      </trkpt>
      <trkpt lat="44.08084" lon="4.03703">
        <ele>269.79</ele>
        <time>2011-12-10T14:49:58Z</time>
      </trkpt>
      <trkpt lat="44.08084" lon="4.03708">
        <ele>269.31</ele>
        <time>2011-12-10T14:49:59Z</time>
      </trkpt>
      <trkpt lat="44.08084" lon="4.03713">
        <ele>268.83</ele>
        <time>2011-12-10T14:50:00Z</time>
      </trkpt>
      <trkpt lat="44.08084" lon="4.03718">
        <ele>268.35</ele>
        <time>2011-12-10T14:50:01Z</time>
      </trkpt>
      <trkpt lat="44.08084" lon="4.03721">
        <ele>268.35</ele>
        <time>2011-12-10T14:50:02Z</time>
      </trkpt>
      <trkpt lat="44.08085" lon="4.03724">
        <ele>267.86</ele>
        <time>2011-12-10T14:50:03Z</time>
      </trkpt>
      <trkpt lat="44.08086" lon="4.03727">
        <ele>268.35</ele>
        <time>2011-12-10T14:50:04Z</time>
      </trkpt>
      <trkpt lat="44.08087" lon="4.03731">
        <ele>267.86</ele>
        <time>2011-12-10T14:50:05Z</time>
      </trkpt>
      <trkpt lat="44.08089" lon="4.03732">
        <ele>267.86</ele>
        <time>2011-12-10T14:50:16Z</time>
      </trkpt>
      <trkpt lat="44.08089" lon="4.03732">
        <ele>267.86</ele>
        <time>2011-12-10T14:50:43Z</time>
      </trkpt>
      <trkpt lat="44.08089" lon="4.03732">
        <ele>267.86</ele>
        <time>2011-12-10T14:51:11Z</time>
      </trkpt>
      <trkpt lat="44.08091" lon="4.03732">
        <ele>267.86</ele>
        <time>2011-12-10T14:51:17Z</time>
      </trkpt>
      <trkpt lat="44.08093" lon="4.03732">
        <ele>268.35</ele>
        <time>2011-12-10T14:51:18Z</time>
      </trkpt>
      <trkpt lat="44.08095" lon="4.0373">
        <ele>268.35</ele>
        <time>2011-12-10T14:51:19Z</time>
      </trkpt>
      <trkpt lat="44.08097" lon="4.03729">
        <ele>267.86</ele>
        <time>2011-12-10T14:51:20Z</time>
      </trkpt>
      <trkpt lat="44.081" lon="4.03728">
        <ele>267.38</ele>
        <time>2011-12-10T14:51:21Z</time>
      </trkpt>
      <trkpt lat="44.08102" lon="4.03728">
        <ele>267.38</ele>
        <time>2011-12-10T14:51:22Z</time>
      </trkpt>
      <trkpt lat="44.08104" lon="4.03728">
        <ele>266.9</ele>
        <time>2011-12-10T14:51:23Z</time>
      </trkpt>
      <trkpt lat="44.08107" lon="4.03729">
        <ele>266.9</ele>
        <time>2011-12-10T14:51:24Z</time>
      </trkpt>
      <trkpt lat="44.08113" lon="4.03731">
        <ele>265.46</ele>
        <time>2011-12-10T14:51:26Z</time>
      </trkpt>
      <trkpt lat="44.08129" lon="4.03742">
        <ele>262.1</ele>
        <time>2011-12-10T14:51:31Z</time>
      </trkpt>
      <trkpt lat="44.08133" lon="4.0375">
        <ele>262.1</ele>
        <time>2011-12-10T14:51:33Z</time>
      </trkpt>
      <trkpt lat="44.0814" lon="4.03771">
        <ele>260.65</ele>
        <time>2011-12-10T14:51:39Z</time>
      </trkpt>
      <trkpt lat="44.08143" lon="4.03776">
        <ele>259.69</ele>
        <time>2011-12-10T14:51:41Z</time>
      </trkpt>
      <trkpt lat="44.08146" lon="4.03791">
        <ele>258.73</ele>
        <time>2011-12-10T14:51:45Z</time>
      </trkpt>
      <trkpt lat="44.08141" lon="4.03807">
        <ele>258.25</ele>
        <time>2011-12-10T14:51:51Z</time>
      </trkpt>
      <trkpt lat="44.08143" lon="4.03825">
        <ele>254.41</ele>
        <time>2011-12-10T14:51:55Z</time>
      </trkpt>
      <trkpt lat="44.08145" lon="4.03831">
        <ele>253.93</ele>
        <time>2011-12-10T14:51:56Z</time>
      </trkpt>
      <trkpt lat="44.08148" lon="4.03839">
        <ele>252</ele>
        <time>2011-12-10T14:51:58Z</time>
      </trkpt>
      <trkpt lat="44.08161" lon="4.03846">
        <ele>249.6</ele>
        <time>2011-12-10T14:52:02Z</time>
      </trkpt>
      <trkpt lat="44.08179" lon="4.03857">
        <ele>246.23</ele>
        <time>2011-12-10T14:52:09Z</time>
      </trkpt>
      <trkpt lat="44.08195" lon="4.03864">
        <ele>243.35</ele>
        <time>2011-12-10T14:52:15Z</time>
      </trkpt>
      <trkpt lat="44.08204" lon="4.03875">
        <ele>240.95</ele>
        <time>2011-12-10T14:52:19Z</time>
      </trkpt>
      <trkpt lat="44.08207" lon="4.03879">
        <ele>239.99</ele>
        <time>2011-12-10T14:52:20Z</time>
      </trkpt>
      <trkpt lat="44.0821" lon="4.0388">
        <ele>238.54</ele>
        <time>2011-12-10T14:52:21Z</time>
      </trkpt>
      <trkpt lat="44.08212" lon="4.03881">
        <ele>238.54</ele>
        <time>2011-12-10T14:52:22Z</time>
      </trkpt>
      <trkpt lat="44.08215" lon="4.03883">
        <ele>238.06</ele>
        <time>2011-12-10T14:52:23Z</time>
      </trkpt>
      <trkpt lat="44.08216" lon="4.03885">
        <ele>238.54</ele>
        <time>2011-12-10T14:52:33Z</time>
      </trkpt>
      <trkpt lat="44.08216" lon="4.03885">
        <ele>238.06</ele>
        <time>2011-12-10T14:52:48Z</time>
      </trkpt>
      <trkpt lat="44.08216" lon="4.03885">
        <ele>238.06</ele>
        <time>2011-12-10T14:53:16Z</time>
      </trkpt>
      <trkpt lat="44.08216" lon="4.03885">
        <ele>238.06</ele>
        <time>2011-12-10T14:53:46Z</time>
      </trkpt>
      <trkpt lat="44.08217" lon="4.03883">
        <ele>238.54</ele>
        <time>2011-12-10T14:54:04Z</time>
      </trkpt>
      <trkpt lat="44.08215" lon="4.03883">
        <ele>238.54</ele>
        <time>2011-12-10T14:54:06Z</time>
      </trkpt>
      <trkpt lat="44.08209" lon="4.03889">
        <ele>239.02</ele>
        <time>2011-12-10T14:54:11Z</time>
      </trkpt>
      <trkpt lat="44.08178" lon="4.03904">
        <ele>241.43</ele>
        <time>2011-12-10T14:54:25Z</time>
      </trkpt>
      <trkpt lat="44.08151" lon="4.03924">
        <ele>243.83</ele>
        <time>2011-12-10T14:54:36Z</time>
      </trkpt>
      <trkpt lat="44.08141" lon="4.03939">
        <ele>244.31</ele>
        <time>2011-12-10T14:54:41Z</time>
      </trkpt>
      <trkpt lat="44.08116" lon="4.03973">
        <ele>246.23</ele>
        <time>2011-12-10T14:54:53Z</time>
      </trkpt>
      <trkpt lat="44.08111" lon="4.04003">
        <ele>248.16</ele>
        <time>2011-12-10T14:55:01Z</time>
      </trkpt>
      <trkpt lat="44.08103" lon="4.04002">
        <ele>249.12</ele>
        <time>2011-12-10T14:55:05Z</time>
      </trkpt>
      <trkpt lat="44.08078" lon="4.03987">
        <ele>251.52</ele>
        <time>2011-12-10T14:55:16Z</time>
      </trkpt>
      <trkpt lat="44.08045" lon="4.03986">
        <ele>254.89</ele>
        <time>2011-12-10T14:55:29Z</time>
      </trkpt>
      <trkpt lat="44.08008" lon="4.03982">
        <ele>255.37</ele>
        <time>2011-12-10T14:55:43Z</time>
      </trkpt>
      <trkpt lat="44.07986" lon="4.03983">
        <ele>254.41</ele>
        <time>2011-12-10T14:55:49Z</time>
      </trkpt>
      <trkpt lat="44.07981" lon="4.03982">
        <ele>253.93</ele>
        <time>2011-12-10T14:55:50Z</time>
      </trkpt>
      <trkpt lat="44.07973" lon="4.03979">
        <ele>254.41</ele>
        <time>2011-12-10T14:55:52Z</time>
      </trkpt>
      <trkpt lat="44.07969" lon="4.03977">
        <ele>253.44</ele>
        <time>2011-12-10T14:55:53Z</time>
      </trkpt>
      <trkpt lat="44.07966" lon="4.03975">
        <ele>253.44</ele>
        <time>2011-12-10T14:55:54Z</time>
      </trkpt>
      <trkpt lat="44.07964" lon="4.03973">
        <ele>253.44</ele>
        <time>2011-12-10T14:55:55Z</time>
      </trkpt>
      <trkpt lat="44.07962" lon="4.03971">
        <ele>253.44</ele>
        <time>2011-12-10T14:55:56Z</time>
      </trkpt>
      <trkpt lat="44.0796" lon="4.0397">
        <ele>253.44</ele>
        <time>2011-12-10T14:55:57Z</time>
      </trkpt>
      <trkpt lat="44.07959" lon="4.0397">
        <ele>252.48</ele>
        <time>2011-12-10T14:55:58Z</time>
      </trkpt>
      <trkpt lat="44.07958" lon="4.03969">
        <ele>252.48</ele>
        <time>2011-12-10T14:55:59Z</time>
      </trkpt>
      <trkpt lat="44.07956" lon="4.03968">
        <ele>252.96</ele>
        <time>2011-12-10T14:56:00Z</time>
      </trkpt>
      <trkpt lat="44.07954" lon="4.03966">
        <ele>252.48</ele>
        <time>2011-12-10T14:56:01Z</time>
      </trkpt>
      <trkpt lat="44.07952" lon="4.03963">
        <ele>252.48</ele>
        <time>2011-12-10T14:56:02Z</time>
      </trkpt>
      <trkpt lat="44.0795" lon="4.03959">
        <ele>252</ele>
        <time>2011-12-10T14:56:03Z</time>
      </trkpt>
      <trkpt lat="44.07938" lon="4.03941">
        <ele>249.6</ele>
        <time>2011-12-10T14:56:08Z</time>
      </trkpt>
      <trkpt lat="44.07913" lon="4.0393">
        <ele>247.2</ele>
        <time>2011-12-10T14:56:17Z</time>
      </trkpt>
      <trkpt lat="44.07911" lon="4.03933">
        <ele>247.2</ele>
        <time>2011-12-10T14:56:18Z</time>
      </trkpt>
      <trkpt lat="44.0791" lon="4.03937">
        <ele>247.2</ele>
        <time>2011-12-10T14:56:19Z</time>
      </trkpt>
      <trkpt lat="44.07909" lon="4.03941">
        <ele>247.68</ele>
        <time>2011-12-10T14:56:20Z</time>
      </trkpt>
      <trkpt lat="44.07909" lon="4.03944">
        <ele>248.16</ele>
        <time>2011-12-10T14:56:21Z</time>
      </trkpt>
      <trkpt lat="44.07909" lon="4.03947">
        <ele>247.68</ele>
        <time>2011-12-10T14:56:22Z</time>
      </trkpt>
      <trkpt lat="44.07909" lon="4.03949">
        <ele>248.64</ele>
        <time>2011-12-10T14:56:23Z</time>
      </trkpt>
      <trkpt lat="44.07908" lon="4.03952">
        <ele>248.16</ele>
        <time>2011-12-10T14:56:24Z</time>
      </trkpt>
      <trkpt lat="44.07907" lon="4.03959">
        <ele>249.12</ele>
        <time>2011-12-10T14:56:28Z</time>
      </trkpt>
      <trkpt lat="44.07914" lon="4.03967">
        <ele>250.08</ele>
        <time>2011-12-10T14:56:40Z</time>
      </trkpt>
      <trkpt lat="44.07914" lon="4.03967">
        <ele>249.6</ele>
        <time>2011-12-10T14:56:54Z</time>
      </trkpt>
      <trkpt lat="44.07914" lon="4.03967">
        <ele>250.08</ele>
        <time>2011-12-10T14:57:26Z</time>
      </trkpt>
      <trkpt lat="44.07914" lon="4.03967">
        <ele>250.08</ele>
        <time>2011-12-10T14:57:52Z</time>
      </trkpt>
      <trkpt lat="44.07914" lon="4.03967">
        <ele>249.6</ele>
        <time>2011-12-10T14:58:17Z</time>
      </trkpt>
      <trkpt lat="44.07914" lon="4.03967">
        <ele>249.6</ele>
        <time>2011-12-10T14:58:41Z</time>
      </trkpt>
      <trkpt lat="44.07916" lon="4.03965">
        <ele>249.6</ele>
        <time>2011-12-10T14:58:44Z</time>
      </trkpt>
      <trkpt lat="44.07917" lon="4.03964">
        <ele>250.08</ele>
        <time>2011-12-10T14:58:45Z</time>
      </trkpt>
      <trkpt lat="44.0792" lon="4.0396">
        <ele>249.6</ele>
        <time>2011-12-10T14:58:58Z</time>
      </trkpt>
      <trkpt lat="44.0792" lon="4.0396">
        <ele>244.79</ele>
        <time>2011-12-10T14:59:12Z</time>
      </trkpt>
      <trkpt lat="44.0792" lon="4.0396">
        <ele>251.52</ele>
        <time>2011-12-10T14:59:13Z</time>
      </trkpt>
      <trkpt lat="44.0792" lon="4.03959">
        <ele>249.6</ele>
        <time>2011-12-10T14:59:32Z</time>
      </trkpt>
      <trkpt lat="44.0792" lon="4.03959">
        <ele>249.6</ele>
        <time>2011-12-10T14:59:55Z</time>
      </trkpt>
      <trkpt lat="44.0792" lon="4.0396">
        <ele>249.6</ele>
        <time>2011-12-10T15:00:21Z</time>
      </trkpt>
      <trkpt lat="44.07921" lon="4.0396">
        <ele>249.6</ele>
        <time>2011-12-10T15:00:22Z</time>
      </trkpt>
      <trkpt lat="44.07923" lon="4.0396">
        <ele>249.6</ele>
        <time>2011-12-10T15:00:23Z</time>
      </trkpt>
      <trkpt lat="44.07923" lon="4.03962">
        <ele>249.6</ele>
        <time>2011-12-10T15:00:24Z</time>
      </trkpt>
      <trkpt lat="44.07922" lon="4.03964">
        <ele>249.6</ele>
        <time>2011-12-10T15:00:25Z</time>
      </trkpt>
      <trkpt lat="44.07921" lon="4.03966">
        <ele>249.6</ele>
        <time>2011-12-10T15:00:26Z</time>
      </trkpt>
      <trkpt lat="44.07919" lon="4.03969">
        <ele>250.08</ele>
        <time>2011-12-10T15:00:27Z</time>
      </trkpt>
      <trkpt lat="44.07903" lon="4.03998">
        <ele>252</ele>
        <time>2011-12-10T15:00:38Z</time>
      </trkpt>
      <trkpt lat="44.07896" lon="4.04007">
        <ele>253.93</ele>
        <time>2011-12-10T15:00:43Z</time>
      </trkpt>
      <trkpt lat="44.07895" lon="4.0401">
        <ele>254.41</ele>
        <time>2011-12-10T15:00:44Z</time>
      </trkpt>
      <trkpt lat="44.07894" lon="4.04013">
        <ele>254.89</ele>
        <time>2011-12-10T15:00:45Z</time>
      </trkpt>
      <trkpt lat="44.07894" lon="4.04015">
        <ele>254.89</ele>
        <time>2011-12-10T15:00:46Z</time>
      </trkpt>
      <trkpt lat="44.07894" lon="4.04018">
        <ele>254.89</ele>
        <time>2011-12-10T15:00:47Z</time>
      </trkpt>
      <trkpt lat="44.07894" lon="4.04034">
        <ele>258.25</ele>
        <time>2011-12-10T15:00:54Z</time>
      </trkpt>
      <trkpt lat="44.07898" lon="4.04046">
        <ele>260.65</ele>
        <time>2011-12-10T15:01:00Z</time>
      </trkpt>
      <trkpt lat="44.0791" lon="4.04072">
        <ele>263.06</ele>
        <time>2011-12-10T15:01:12Z</time>
      </trkpt>
      <trkpt lat="44.07917" lon="4.04114">
        <ele>264.98</ele>
        <time>2011-12-10T15:01:25Z</time>
      </trkpt>
      <trkpt lat="44.07899" lon="4.0414">
        <ele>267.86</ele>
        <time>2011-12-10T15:01:36Z</time>
      </trkpt>
      <trkpt lat="44.07874" lon="4.04125">
        <ele>268.83</ele>
        <time>2011-12-10T15:01:49Z</time>
      </trkpt>
      <trkpt lat="44.07851" lon="4.04088">
        <ele>270.75</ele>
        <time>2011-12-10T15:02:02Z</time>
      </trkpt>
      <trkpt lat="44.07826" lon="4.04062">
        <ele>271.23</ele>
        <time>2011-12-10T15:02:14Z</time>
      </trkpt>
      <trkpt lat="44.07825" lon="4.04061">
        <ele>272.67</ele>
        <time>2011-12-10T15:02:28Z</time>
      </trkpt>
      <trkpt lat="44.07825" lon="4.04061">
        <ele>272.19</ele>
        <time>2011-12-10T15:02:36Z</time>
      </trkpt>
      <trkpt lat="44.07824" lon="4.04061">
        <ele>272.19</ele>
        <time>2011-12-10T15:02:37Z</time>
      </trkpt>
      <trkpt lat="44.07822" lon="4.04061">
        <ele>272.19</ele>
        <time>2011-12-10T15:02:38Z</time>
      </trkpt>
      <trkpt lat="44.07819" lon="4.04062">
        <ele>271.71</ele>
        <time>2011-12-10T15:02:39Z</time>
      </trkpt>
      <trkpt lat="44.07817" lon="4.04063">
        <ele>271.71</ele>
        <time>2011-12-10T15:02:40Z</time>
      </trkpt>
      <trkpt lat="44.07806" lon="4.04067">
        <ele>271.23</ele>
        <time>2011-12-10T15:02:44Z</time>
      </trkpt>
      <trkpt lat="44.07774" lon="4.04091">
        <ele>274.59</ele>
        <time>2011-12-10T15:02:57Z</time>
      </trkpt>
      <trkpt lat="44.07738" lon="4.04129">
        <ele>274.11</ele>
        <time>2011-12-10T15:03:10Z</time>
      </trkpt>
      <trkpt lat="44.07675" lon="4.04188">
        <ele>275.07</ele>
        <time>2011-12-10T15:03:26Z</time>
      </trkpt>
      <trkpt lat="44.07653" lon="4.04205">
        <ele>273.63</ele>
        <time>2011-12-10T15:03:31Z</time>
      </trkpt>
      <trkpt lat="44.07648" lon="4.04206">
        <ele>272.67</ele>
        <time>2011-12-10T15:03:32Z</time>
      </trkpt>
      <trkpt lat="44.07642" lon="4.04205">
        <ele>272.19</ele>
        <time>2011-12-10T15:03:33Z</time>
      </trkpt>
      <trkpt lat="44.07637" lon="4.04202">
        <ele>272.67</ele>
        <time>2011-12-10T15:03:34Z</time>
      </trkpt>
      <trkpt lat="44.07632" lon="4.042">
        <ele>271.71</ele>
        <time>2011-12-10T15:03:35Z</time>
      </trkpt>
      <trkpt lat="44.07629" lon="4.04199">
        <ele>271.71</ele>
        <time>2011-12-10T15:03:36Z</time>
      </trkpt>
      <trkpt lat="44.07626" lon="4.04201">
        <ele>271.23</ele>
        <time>2011-12-10T15:03:37Z</time>
      </trkpt>
      <trkpt lat="44.07624" lon="4.04206">
        <ele>270.27</ele>
        <time>2011-12-10T15:03:38Z</time>
      </trkpt>
      <trkpt lat="44.07624" lon="4.04213">
        <ele>269.31</ele>
        <time>2011-12-10T15:03:39Z</time>
      </trkpt>
      <trkpt lat="44.07624" lon="4.04219">
        <ele>268.83</ele>
        <time>2011-12-10T15:03:40Z</time>
      </trkpt>
      <trkpt lat="44.07625" lon="4.04224">
        <ele>268.83</ele>
        <time>2011-12-10T15:03:41Z</time>
      </trkpt>
      <trkpt lat="44.07625" lon="4.04227">
        <ele>268.35</ele>
        <time>2011-12-10T15:03:42Z</time>
      </trkpt>
      <trkpt lat="44.07625" lon="4.04229">
        <ele>268.35</ele>
        <time>2011-12-10T15:03:43Z</time>
      </trkpt>
      <trkpt lat="44.07623" lon="4.04239">
        <ele>267.86</ele>
        <time>2011-12-10T15:03:47Z</time>
      </trkpt>
      <trkpt lat="44.07621" lon="4.04242">
        <ele>267.86</ele>
        <time>2011-12-10T15:03:48Z</time>
      </trkpt>
      <trkpt lat="44.07618" lon="4.04243">
        <ele>267.38</ele>
        <time>2011-12-10T15:03:49Z</time>
      </trkpt>
      <trkpt lat="44.07617" lon="4.04242">
        <ele>266.42</ele>
        <time>2011-12-10T15:03:50Z</time>
      </trkpt>
      <trkpt lat="44.07615" lon="4.04241">
        <ele>266.9</ele>
        <time>2011-12-10T15:03:51Z</time>
      </trkpt>
      <trkpt lat="44.07613" lon="4.04239">
        <ele>266.42</ele>
        <time>2011-12-10T15:03:52Z</time>
      </trkpt>
      <trkpt lat="44.0761" lon="4.04235">
        <ele>265.94</ele>
        <time>2011-12-10T15:03:53Z</time>
      </trkpt>
      <trkpt lat="44.07606" lon="4.04226">
        <ele>265.46</ele>
        <time>2011-12-10T15:03:55Z</time>
      </trkpt>
      <trkpt lat="44.07604" lon="4.04221">
        <ele>264.98</ele>
        <time>2011-12-10T15:03:56Z</time>
      </trkpt>
      <trkpt lat="44.07602" lon="4.04215">
        <ele>264.98</ele>
        <time>2011-12-10T15:03:57Z</time>
      </trkpt>
      <trkpt lat="44.07599" lon="4.04211">
        <ele>264.02</ele>
        <time>2011-12-10T15:03:58Z</time>
      </trkpt>
      <trkpt lat="44.07597" lon="4.04207">
        <ele>263.54</ele>
        <time>2011-12-10T15:03:59Z</time>
      </trkpt>
      <trkpt lat="44.07595" lon="4.04201">
        <ele>262.58</ele>
        <time>2011-12-10T15:04:00Z</time>
      </trkpt>
      <trkpt lat="44.07593" lon="4.04195">
        <ele>263.06</ele>
        <time>2011-12-10T15:04:01Z</time>
      </trkpt>
      <trkpt lat="44.0759" lon="4.0419">
        <ele>262.1</ele>
        <time>2011-12-10T15:04:02Z</time>
      </trkpt>
      <trkpt lat="44.07587" lon="4.04186">
        <ele>260.65</ele>
        <time>2011-12-10T15:04:03Z</time>
      </trkpt>
      <trkpt lat="44.07583" lon="4.04182">
        <ele>260.17</ele>
        <time>2011-12-10T15:04:04Z</time>
      </trkpt>
      <trkpt lat="44.07578" lon="4.0418">
        <ele>259.21</ele>
        <time>2011-12-10T15:04:05Z</time>
      </trkpt>
      <trkpt lat="44.07574" lon="4.04178">
        <ele>257.77</ele>
        <time>2011-12-10T15:04:06Z</time>
      </trkpt>
      <trkpt lat="44.07563" lon="4.04173">
        <ele>256.33</ele>
        <time>2011-12-10T15:04:08Z</time>
      </trkpt>
      <trkpt lat="44.07558" lon="4.04171">
        <ele>254.89</ele>
        <time>2011-12-10T15:04:09Z</time>
      </trkpt>
      <trkpt lat="44.07554" lon="4.04168">
        <ele>254.41</ele>
        <time>2011-12-10T15:04:10Z</time>
      </trkpt>
      <trkpt lat="44.0755" lon="4.04164">
        <ele>253.44</ele>
        <time>2011-12-10T15:04:11Z</time>
      </trkpt>
      <trkpt lat="44.07545" lon="4.0416">
        <ele>253.44</ele>
        <time>2011-12-10T15:04:12Z</time>
      </trkpt>
      <trkpt lat="44.07542" lon="4.04157">
        <ele>252</ele>
        <time>2011-12-10T15:04:13Z</time>
      </trkpt>
      <trkpt lat="44.0754" lon="4.04154">
        <ele>251.52</ele>
        <time>2011-12-10T15:04:14Z</time>
      </trkpt>
      <trkpt lat="44.07538" lon="4.04153">
        <ele>251.04</ele>
        <time>2011-12-10T15:04:15Z</time>
      </trkpt>
      <trkpt lat="44.07535" lon="4.04155">
        <ele>250.56</ele>
        <time>2011-12-10T15:04:16Z</time>
      </trkpt>
      <trkpt lat="44.07534" lon="4.0416">
        <ele>250.56</ele>
        <time>2011-12-10T15:04:17Z</time>
      </trkpt>
      <trkpt lat="44.07533" lon="4.04167">
        <ele>250.08</ele>
        <time>2011-12-10T15:04:18Z</time>
      </trkpt>
      <trkpt lat="44.07533" lon="4.04175">
        <ele>249.6</ele>
        <time>2011-12-10T15:04:19Z</time>
      </trkpt>
      <trkpt lat="44.07533" lon="4.04182">
        <ele>247.68</ele>
        <time>2011-12-10T15:04:20Z</time>
      </trkpt>
      <trkpt lat="44.07533" lon="4.04188">
        <ele>247.2</ele>
        <time>2011-12-10T15:04:21Z</time>
      </trkpt>
      <trkpt lat="44.07532" lon="4.04193">
        <ele>246.23</ele>
        <time>2011-12-10T15:04:22Z</time>
      </trkpt>
      <trkpt lat="44.0753" lon="4.04196">
        <ele>245.75</ele>
        <time>2011-12-10T15:04:23Z</time>
      </trkpt>
      <trkpt lat="44.07528" lon="4.042">
        <ele>245.27</ele>
        <time>2011-12-10T15:04:24Z</time>
      </trkpt>
      <trkpt lat="44.07526" lon="4.04204">
        <ele>243.35</ele>
        <time>2011-12-10T15:04:25Z</time>
      </trkpt>
      <trkpt lat="44.07524" lon="4.04209">
        <ele>242.87</ele>
        <time>2011-12-10T15:04:26Z</time>
      </trkpt>
      <trkpt lat="44.07521" lon="4.04214">
        <ele>241.43</ele>
        <time>2011-12-10T15:04:27Z</time>
      </trkpt>
      <trkpt lat="44.07518" lon="4.04218">
        <ele>241.43</ele>
        <time>2011-12-10T15:04:28Z</time>
      </trkpt>
      <trkpt lat="44.07516" lon="4.04223">
        <ele>239.99</ele>
        <time>2011-12-10T15:04:29Z</time>
      </trkpt>
      <trkpt lat="44.07513" lon="4.04228">
        <ele>239.99</ele>
        <time>2011-12-10T15:04:30Z</time>
      </trkpt>
      <trkpt lat="44.07506" lon="4.04237">
        <ele>237.58</ele>
        <time>2011-12-10T15:04:32Z</time>
      </trkpt>
      <trkpt lat="44.07495" lon="4.04254">
        <ele>234.22</ele>
        <time>2011-12-10T15:04:35Z</time>
      </trkpt>
      <trkpt lat="44.07488" lon="4.04267">
        <ele>232.78</ele>
        <time>2011-12-10T15:04:37Z</time>
      </trkpt>
      <trkpt lat="44.07486" lon="4.04275">
        <ele>231.81</ele>
        <time>2011-12-10T15:04:38Z</time>
      </trkpt>
      <trkpt lat="44.07486" lon="4.04283">
        <ele>231.33</ele>
        <time>2011-12-10T15:04:39Z</time>
      </trkpt>
      <trkpt lat="44.07486" lon="4.04299">
        <ele>228.93</ele>
        <time>2011-12-10T15:04:41Z</time>
      </trkpt>
      <trkpt lat="44.07487" lon="4.04308">
        <ele>227.49</ele>
        <time>2011-12-10T15:04:42Z</time>
      </trkpt>
      <trkpt lat="44.07488" lon="4.04316">
        <ele>226.53</ele>
        <time>2011-12-10T15:04:43Z</time>
      </trkpt>
      <trkpt lat="44.07488" lon="4.0434">
        <ele>224.12</ele>
        <time>2011-12-10T15:04:46Z</time>
      </trkpt>
      <trkpt lat="44.07487" lon="4.04346">
        <ele>223.16</ele>
        <time>2011-12-10T15:04:47Z</time>
      </trkpt>
      <trkpt lat="44.07485" lon="4.04348">
        <ele>222.2</ele>
        <time>2011-12-10T15:04:48Z</time>
      </trkpt>
      <trkpt lat="44.07483" lon="4.04348">
        <ele>221.72</ele>
        <time>2011-12-10T15:04:49Z</time>
      </trkpt>
      <trkpt lat="44.07481" lon="4.04346">
        <ele>221.72</ele>
        <time>2011-12-10T15:04:50Z</time>
      </trkpt>
      <trkpt lat="44.07477" lon="4.04344">
        <ele>221.24</ele>
        <time>2011-12-10T15:04:51Z</time>
      </trkpt>
      <trkpt lat="44.07472" lon="4.04344">
        <ele>220.76</ele>
        <time>2011-12-10T15:04:52Z</time>
      </trkpt>
      <trkpt lat="44.07467" lon="4.04344">
        <ele>220.28</ele>
        <time>2011-12-10T15:04:53Z</time>
      </trkpt>
      <trkpt lat="44.07462" lon="4.04345">
        <ele>219.8</ele>
        <time>2011-12-10T15:04:54Z</time>
      </trkpt>
      <trkpt lat="44.07456" lon="4.04346">
        <ele>218.36</ele>
        <time>2011-12-10T15:04:55Z</time>
      </trkpt>
      <trkpt lat="44.07432" lon="4.0435">
        <ele>215.95</ele>
        <time>2011-12-10T15:04:59Z</time>
      </trkpt>
      <trkpt lat="44.07426" lon="4.04351">
        <ele>214.99</ele>
        <time>2011-12-10T15:05:00Z</time>
      </trkpt>
      <trkpt lat="44.07421" lon="4.04352">
        <ele>214.51</ele>
        <time>2011-12-10T15:05:01Z</time>
      </trkpt>
      <trkpt lat="44.07418" lon="4.04352">
        <ele>214.03</ele>
        <time>2011-12-10T15:05:02Z</time>
      </trkpt>
      <trkpt lat="44.07416" lon="4.04351">
        <ele>213.55</ele>
        <time>2011-12-10T15:05:03Z</time>
      </trkpt>
      <trkpt lat="44.07415" lon="4.04349">
        <ele>213.55</ele>
        <time>2011-12-10T15:05:04Z</time>
      </trkpt>
      <trkpt lat="44.07413" lon="4.04346">
        <ele>213.07</ele>
        <time>2011-12-10T15:05:14Z</time>
      </trkpt>
      <trkpt lat="44.07411" lon="4.04346">
        <ele>213.55</ele>
        <time>2011-12-10T15:05:32Z</time>
      </trkpt>
      <trkpt lat="44.07411" lon="4.04346">
        <ele>213.07</ele>
        <time>2011-12-10T15:05:59Z</time>
      </trkpt>
      <trkpt lat="44.07412" lon="4.04346">
        <ele>214.51</ele>
        <time>2011-12-10T15:06:11Z</time>
      </trkpt>
      <trkpt lat="44.07412" lon="4.04346">
        <ele>213.55</ele>
        <time>2011-12-10T15:06:29Z</time>
      </trkpt>
      <trkpt lat="44.07411" lon="4.04346">
        <ele>214.03</ele>
        <time>2011-12-10T15:06:54Z</time>
      </trkpt>
      <trkpt lat="44.0741" lon="4.04347">
        <ele>213.55</ele>
        <time>2011-12-10T15:07:01Z</time>
      </trkpt>
      <trkpt lat="44.07409" lon="4.04348">
        <ele>213.55</ele>
        <time>2011-12-10T15:07:02Z</time>
      </trkpt>
      <trkpt lat="44.07384" lon="4.04342">
        <ele>212.59</ele>
        <time>2011-12-10T15:07:12Z</time>
      </trkpt>
      <trkpt lat="44.0738" lon="4.04341">
        <ele>212.59</ele>
        <time>2011-12-10T15:07:13Z</time>
      </trkpt>
      <trkpt lat="44.07376" lon="4.0434">
        <ele>212.11</ele>
        <time>2011-12-10T15:07:14Z</time>
      </trkpt>
      <trkpt lat="44.07372" lon="4.0434">
        <ele>212.11</ele>
        <time>2011-12-10T15:07:15Z</time>
      </trkpt>
      <trkpt lat="44.07363" lon="4.04343">
        <ele>211.63</ele>
        <time>2011-12-10T15:07:17Z</time>
      </trkpt>
      <trkpt lat="44.07347" lon="4.04346">
        <ele>212.11</ele>
        <time>2011-12-10T15:07:21Z</time>
      </trkpt>
      <trkpt lat="44.07344" lon="4.04349">
        <ele>211.63</ele>
        <time>2011-12-10T15:07:22Z</time>
      </trkpt>
      <trkpt lat="44.07337" lon="4.04357">
        <ele>212.59</ele>
        <time>2011-12-10T15:07:24Z</time>
      </trkpt>
      <trkpt lat="44.07334" lon="4.04361">
        <ele>212.11</ele>
        <time>2011-12-10T15:07:25Z</time>
      </trkpt>
      <trkpt lat="44.0733" lon="4.04363">
        <ele>211.63</ele>
        <time>2011-12-10T15:07:26Z</time>
      </trkpt>
      <trkpt lat="44.07326" lon="4.04365">
        <ele>212.11</ele>
        <time>2011-12-10T15:07:27Z</time>
      </trkpt>
      <trkpt lat="44.07323" lon="4.04365">
        <ele>212.11</ele>
        <time>2011-12-10T15:07:28Z</time>
      </trkpt>
      <trkpt lat="44.07318" lon="4.04368">
        <ele>212.11</ele>
        <time>2011-12-10T15:07:37Z</time>
      </trkpt>
      <trkpt lat="44.07307" lon="4.0439">
        <ele>213.07</ele>
        <time>2011-12-10T15:07:45Z</time>
      </trkpt>
      <trkpt lat="44.07304" lon="4.04391">
        <ele>213.55</ele>
        <time>2011-12-10T15:07:46Z</time>
      </trkpt>
      <trkpt lat="44.07302" lon="4.04391">
        <ele>213.55</ele>
        <time>2011-12-10T15:07:47Z</time>
      </trkpt>
      <trkpt lat="44.07282" lon="4.04396">
        <ele>214.99</ele>
        <time>2011-12-10T15:07:54Z</time>
      </trkpt>
      <trkpt lat="44.07279" lon="4.04395">
        <ele>214.99</ele>
        <time>2011-12-10T15:07:55Z</time>
      </trkpt>
      <trkpt lat="44.07277" lon="4.04393">
        <ele>214.51</ele>
        <time>2011-12-10T15:07:56Z</time>
      </trkpt>
      <trkpt lat="44.07275" lon="4.04391">
        <ele>214.99</ele>
        <time>2011-12-10T15:07:57Z</time>
      </trkpt>
      <trkpt lat="44.07272" lon="4.0439">
        <ele>214.51</ele>
        <time>2011-12-10T15:07:58Z</time>
      </trkpt>
      <trkpt lat="44.0727" lon="4.04388">
        <ele>214.99</ele>
        <time>2011-12-10T15:07:59Z</time>
      </trkpt>
      <trkpt lat="44.07267" lon="4.04387">
        <ele>214.99</ele>
        <time>2011-12-10T15:08:00Z</time>
      </trkpt>
      <trkpt lat="44.07247" lon="4.04363">
        <ele>213.55</ele>
        <time>2011-12-10T15:08:07Z</time>
      </trkpt>
      <trkpt lat="44.07236" lon="4.04333">
        <ele>211.63</ele>
        <time>2011-12-10T15:08:12Z</time>
      </trkpt>
      <trkpt lat="44.07235" lon="4.04326">
        <ele>211.63</ele>
        <time>2011-12-10T15:08:13Z</time>
      </trkpt>
      <trkpt lat="44.07233" lon="4.04319">
        <ele>210.67</ele>
        <time>2011-12-10T15:08:14Z</time>
      </trkpt>
      <trkpt lat="44.07232" lon="4.04314">
        <ele>209.7</ele>
        <time>2011-12-10T15:08:15Z</time>
      </trkpt>
      <trkpt lat="44.0723" lon="4.04309">
        <ele>210.19</ele>
        <time>2011-12-10T15:08:16Z</time>
      </trkpt>
      <trkpt lat="44.07229" lon="4.04306">
        <ele>209.7</ele>
        <time>2011-12-10T15:08:17Z</time>
      </trkpt>
      <trkpt lat="44.07228" lon="4.04301">
        <ele>207.78</ele>
        <time>2011-12-10T15:08:23Z</time>
      </trkpt>
      <trkpt lat="44.07226" lon="4.04301">
        <ele>207.78</ele>
        <time>2011-12-10T15:08:24Z</time>
      </trkpt>
      <trkpt lat="44.0721" lon="4.04307">
        <ele>205.86</ele>
        <time>2011-12-10T15:08:30Z</time>
      </trkpt>
      <trkpt lat="44.07207" lon="4.0431">
        <ele>205.38</ele>
        <time>2011-12-10T15:08:31Z</time>
      </trkpt>
      <trkpt lat="44.072" lon="4.04318">
        <ele>204.9</ele>
        <time>2011-12-10T15:08:33Z</time>
      </trkpt>
      <trkpt lat="44.0719" lon="4.04335">
        <ele>202.98</ele>
        <time>2011-12-10T15:08:36Z</time>
      </trkpt>
      <trkpt lat="44.07188" lon="4.04342">
        <ele>202.49</ele>
        <time>2011-12-10T15:08:37Z</time>
      </trkpt>
      <trkpt lat="44.07187" lon="4.04349">
        <ele>202.01</ele>
        <time>2011-12-10T15:08:38Z</time>
      </trkpt>
      <trkpt lat="44.07183" lon="4.04379">
        <ele>198.17</ele>
        <time>2011-12-10T15:08:42Z</time>
      </trkpt>
      <trkpt lat="44.07181" lon="4.04395">
        <ele>196.25</ele>
        <time>2011-12-10T15:08:44Z</time>
      </trkpt>
      <trkpt lat="44.0718" lon="4.04403">
        <ele>196.25</ele>
        <time>2011-12-10T15:08:45Z</time>
      </trkpt>
      <trkpt lat="44.07179" lon="4.04428">
        <ele>192.88</ele>
        <time>2011-12-10T15:08:48Z</time>
      </trkpt>
      <trkpt lat="44.07177" lon="4.04438">
        <ele>191.92</ele>
        <time>2011-12-10T15:08:49Z</time>
      </trkpt>
      <trkpt lat="44.07175" lon="4.04446">
        <ele>190.96</ele>
        <time>2011-12-10T15:08:50Z</time>
      </trkpt>
      <trkpt lat="44.07168" lon="4.0448">
        <ele>187.59</ele>
        <time>2011-12-10T15:08:55Z</time>
      </trkpt>
      <trkpt lat="44.07166" lon="4.0449">
        <ele>186.15</ele>
        <time>2011-12-10T15:08:59Z</time>
      </trkpt>
      <trkpt lat="44.07164" lon="4.04493">
        <ele>184.23</ele>
        <time>2011-12-10T15:09:00Z</time>
      </trkpt>
      <trkpt lat="44.07161" lon="4.04496">
        <ele>184.23</ele>
        <time>2011-12-10T15:09:01Z</time>
      </trkpt>
      <trkpt lat="44.07158" lon="4.045">
        <ele>183.75</ele>
        <time>2011-12-10T15:09:02Z</time>
      </trkpt>
      <trkpt lat="44.07155" lon="4.04504">
        <ele>182.79</ele>
        <time>2011-12-10T15:09:03Z</time>
      </trkpt>
      <trkpt lat="44.07152" lon="4.04508">
        <ele>182.31</ele>
        <time>2011-12-10T15:09:04Z</time>
      </trkpt>
      <trkpt lat="44.07148" lon="4.04512">
        <ele>181.35</ele>
        <time>2011-12-10T15:09:05Z</time>
      </trkpt>
      <trkpt lat="44.07144" lon="4.04514">
        <ele>180.38</ele>
        <time>2011-12-10T15:09:06Z</time>
      </trkpt>
      <trkpt lat="44.07129" lon="4.04522">
        <ele>177.5</ele>
        <time>2011-12-10T15:09:10Z</time>
      </trkpt>
      <trkpt lat="44.0712" lon="4.04531">
        <ele>176.06</ele>
        <time>2011-12-10T15:09:12Z</time>
      </trkpt>
      <trkpt lat="44.07105" lon="4.04549">
        <ele>172.69</ele>
        <time>2011-12-10T15:09:15Z</time>
      </trkpt>
      <trkpt lat="44.0708" lon="4.04577">
        <ele>169.33</ele>
        <time>2011-12-10T15:09:19Z</time>
      </trkpt>
      <trkpt lat="44.07072" lon="4.04587">
        <ele>167.89</ele>
        <time>2011-12-10T15:09:21Z</time>
      </trkpt>
      <trkpt lat="44.0705" lon="4.04608">
        <ele>165</ele>
        <time>2011-12-10T15:09:28Z</time>
      </trkpt>
      <trkpt lat="44.07022" lon="4.04637">
        <ele>162.6</ele>
        <time>2011-12-10T15:09:39Z</time>
      </trkpt>
      <trkpt lat="44.07005" lon="4.04655">
        <ele>161.64</ele>
        <time>2011-12-10T15:09:51Z</time>
      </trkpt>
      <trkpt lat="44.07005" lon="4.04655">
        <ele>161.16</ele>
        <time>2011-12-10T15:10:08Z</time>
      </trkpt>
      <trkpt lat="44.07004" lon="4.04657">
        <ele>162.12</ele>
        <time>2011-12-10T15:10:09Z</time>
      </trkpt>
      <trkpt lat="44.07003" lon="4.0466">
        <ele>161.64</ele>
        <time>2011-12-10T15:10:10Z</time>
      </trkpt>
      <trkpt lat="44.07002" lon="4.04664">
        <ele>162.12</ele>
        <time>2011-12-10T15:10:11Z</time>
      </trkpt>
      <trkpt lat="44.07002" lon="4.04667">
        <ele>161.64</ele>
        <time>2011-12-10T15:10:12Z</time>
      </trkpt>
      <trkpt lat="44.07004" lon="4.04671">
        <ele>161.64</ele>
        <time>2011-12-10T15:10:13Z</time>
      </trkpt>
      <trkpt lat="44.07006" lon="4.04675">
        <ele>161.64</ele>
        <time>2011-12-10T15:10:14Z</time>
      </trkpt>
      <trkpt lat="44.0704" lon="4.04747">
        <ele>160.2</ele>
        <time>2011-12-10T15:10:28Z</time>
      </trkpt>
      <trkpt lat="44.07085" lon="4.04844">
        <ele>158.75</ele>
        <time>2011-12-10T15:10:45Z</time>
      </trkpt>
      <trkpt lat="44.07127" lon="4.04924">
        <ele>157.31</ele>
        <time>2011-12-10T15:10:59Z</time>
      </trkpt>
      <trkpt lat="44.07131" lon="4.04931">
        <ele>156.83</ele>
        <time>2011-12-10T15:11:00Z</time>
      </trkpt>
      <trkpt lat="44.07135" lon="4.04939">
        <ele>156.35</ele>
        <time>2011-12-10T15:11:01Z</time>
      </trkpt>
      <trkpt lat="44.07139" lon="4.04947">
        <ele>155.87</ele>
        <time>2011-12-10T15:11:02Z</time>
      </trkpt>
      <trkpt lat="44.07141" lon="4.04956">
        <ele>155.87</ele>
        <time>2011-12-10T15:11:03Z</time>
      </trkpt>
      <trkpt lat="44.07144" lon="4.04965">
        <ele>155.39</ele>
        <time>2011-12-10T15:11:04Z</time>
      </trkpt>
      <trkpt lat="44.07146" lon="4.04974">
        <ele>155.87</ele>
        <time>2011-12-10T15:11:05Z</time>
      </trkpt>
      <trkpt lat="44.07157" lon="4.05001">
        <ele>153.95</ele>
        <time>2011-12-10T15:11:08Z</time>
      </trkpt>
      <trkpt lat="44.07212" lon="4.05113">
        <ele>151.06</ele>
        <time>2011-12-10T15:11:21Z</time>
      </trkpt>
      <trkpt lat="44.07218" lon="4.05117">
        <ele>151.06</ele>
        <time>2011-12-10T15:11:22Z</time>
      </trkpt>
      <trkpt lat="44.07224" lon="4.05119">
        <ele>150.58</ele>
        <time>2011-12-10T15:11:23Z</time>
      </trkpt>
      <trkpt lat="44.07258" lon="4.05124">
        <ele>151.54</ele>
        <time>2011-12-10T15:11:32Z</time>
      </trkpt>
      <trkpt lat="44.0726" lon="4.05122">
        <ele>151.54</ele>
        <time>2011-12-10T15:11:33Z</time>
      </trkpt>
      <trkpt lat="44.07261" lon="4.05118">
        <ele>151.54</ele>
        <time>2011-12-10T15:11:34Z</time>
      </trkpt>
      <trkpt lat="44.07262" lon="4.05113">
        <ele>151.06</ele>
        <time>2011-12-10T15:11:35Z</time>
      </trkpt>
      <trkpt lat="44.07262" lon="4.05108">
        <ele>151.54</ele>
        <time>2011-12-10T15:11:36Z</time>
      </trkpt>
      <trkpt lat="44.07261" lon="4.05103">
        <ele>152.51</ele>
        <time>2011-12-10T15:11:37Z</time>
      </trkpt>
      <trkpt lat="44.07259" lon="4.05098">
        <ele>152.99</ele>
        <time>2011-12-10T15:11:38Z</time>
      </trkpt>
      <trkpt lat="44.07258" lon="4.05094">
        <ele>152.51</ele>
        <time>2011-12-10T15:11:39Z</time>
      </trkpt>
      <trkpt lat="44.07254" lon="4.05081">
        <ele>152.99</ele>
        <time>2011-12-10T15:11:42Z</time>
      </trkpt>
      <trkpt lat="44.07254" lon="4.05077">
        <ele>153.47</ele>
        <time>2011-12-10T15:11:43Z</time>
      </trkpt>
      <trkpt lat="44.07257" lon="4.05076">
        <ele>153.47</ele>
        <time>2011-12-10T15:11:44Z</time>
      </trkpt>
      <trkpt lat="44.07259" lon="4.05076">
        <ele>153.47</ele>
        <time>2011-12-10T15:11:45Z</time>
      </trkpt>
      <trkpt lat="44.07261" lon="4.05074">
        <ele>153.47</ele>
        <time>2011-12-10T15:11:46Z</time>
      </trkpt>
      <trkpt lat="44.07264" lon="4.05073">
        <ele>153.47</ele>
        <time>2011-12-10T15:11:48Z</time>
      </trkpt>
      <trkpt lat="44.07265" lon="4.05074">
        <ele>153.47</ele>
        <time>2011-12-10T15:11:49Z</time>
      </trkpt>
      <trkpt lat="44.07267" lon="4.05077">
        <ele>153.95</ele>
        <time>2011-12-10T15:11:50Z</time>
      </trkpt>
      <trkpt lat="44.07268" lon="4.0508">
        <ele>153.47</ele>
        <time>2011-12-10T15:11:51Z</time>
      </trkpt>
      <trkpt lat="44.0727" lon="4.05083">
        <ele>153.47</ele>
        <time>2011-12-10T15:11:52Z</time>
      </trkpt>
      <trkpt lat="44.07275" lon="4.05091">
        <ele>153.95</ele>
        <time>2011-12-10T15:11:55Z</time>
      </trkpt>
      <trkpt lat="44.07278" lon="4.05092">
        <ele>153.47</ele>
        <time>2011-12-10T15:11:56Z</time>
      </trkpt>
      <trkpt lat="44.07281" lon="4.05092">
        <ele>153.47</ele>
        <time>2011-12-10T15:11:57Z</time>
      </trkpt>
      <trkpt lat="44.07284" lon="4.05091">
        <ele>153.47</ele>
        <time>2011-12-10T15:11:58Z</time>
      </trkpt>
      <trkpt lat="44.07287" lon="4.05088">
        <ele>153.47</ele>
        <time>2011-12-10T15:11:59Z</time>
      </trkpt>
      <trkpt lat="44.073" lon="4.0508">
        <ele>152.99</ele>
        <time>2011-12-10T15:12:03Z</time>
      </trkpt>
      <trkpt lat="44.07304" lon="4.05077">
        <ele>152.51</ele>
        <time>2011-12-10T15:12:04Z</time>
      </trkpt>
      <trkpt lat="44.07308" lon="4.05074">
        <ele>152.51</ele>
        <time>2011-12-10T15:12:05Z</time>
      </trkpt>
      <trkpt lat="44.07311" lon="4.05069">
        <ele>153.47</ele>
        <time>2011-12-10T15:12:06Z</time>
      </trkpt>
      <trkpt lat="44.07314" lon="4.05064">
        <ele>153.47</ele>
        <time>2011-12-10T15:12:07Z</time>
      </trkpt>
      <trkpt lat="44.07316" lon="4.05059">
        <ele>153.95</ele>
        <time>2011-12-10T15:12:08Z</time>
      </trkpt>
      <trkpt lat="44.07318" lon="4.05055">
        <ele>154.43</ele>
        <time>2011-12-10T15:12:09Z</time>
      </trkpt>
      <trkpt lat="44.07321" lon="4.0505">
        <ele>154.43</ele>
        <time>2011-12-10T15:12:10Z</time>
      </trkpt>
      <trkpt lat="44.07345" lon="4.0501">
        <ele>156.35</ele>
        <time>2011-12-10T15:12:23Z</time>
      </trkpt>
      <trkpt lat="44.07368" lon="4.04976">
        <ele>155.87</ele>
        <time>2011-12-10T15:12:34Z</time>
      </trkpt>
      <trkpt lat="44.07391" lon="4.04926">
        <ele>158.75</ele>
        <time>2011-12-10T15:12:47Z</time>
      </trkpt>
      <trkpt lat="44.07402" lon="4.04903">
        <ele>162.12</ele>
        <time>2011-12-10T15:12:56Z</time>
      </trkpt>
      <trkpt lat="44.07411" lon="4.04892">
        <ele>163.08</ele>
        <time>2011-12-10T15:13:02Z</time>
      </trkpt>
      <trkpt lat="44.07422" lon="4.04887">
        <ele>165</ele>
        <time>2011-12-10T15:13:08Z</time>
      </trkpt>
      <trkpt lat="44.07423" lon="4.04886">
        <ele>165.48</ele>
        <time>2011-12-10T15:13:09Z</time>
      </trkpt>
      <trkpt lat="44.07424" lon="4.04885">
        <ele>165.96</ele>
        <time>2011-12-10T15:13:10Z</time>
      </trkpt>
      <trkpt lat="44.07426" lon="4.04883">
        <ele>165.96</ele>
        <time>2011-12-10T15:13:11Z</time>
      </trkpt>
      <trkpt lat="44.07427" lon="4.04882">
        <ele>165.96</ele>
        <time>2011-12-10T15:13:12Z</time>
      </trkpt>
      <trkpt lat="44.07427" lon="4.04879">
        <ele>166.45</ele>
        <time>2011-12-10T15:13:13Z</time>
      </trkpt>
      <trkpt lat="44.07428" lon="4.04877">
        <ele>166.45</ele>
        <time>2011-12-10T15:13:14Z</time>
      </trkpt>
      <trkpt lat="44.07428" lon="4.04875">
        <ele>166.93</ele>
        <time>2011-12-10T15:13:15Z</time>
      </trkpt>
      <trkpt lat="44.07429" lon="4.04872">
        <ele>167.41</ele>
        <time>2011-12-10T15:13:16Z</time>
      </trkpt>
      <trkpt lat="44.07429" lon="4.04869">
        <ele>167.89</ele>
        <time>2011-12-10T15:13:17Z</time>
      </trkpt>
      <trkpt lat="44.0743" lon="4.04866">
        <ele>167.89</ele>
        <time>2011-12-10T15:13:18Z</time>
      </trkpt>
      <trkpt lat="44.07431" lon="4.04864">
        <ele>168.37</ele>
        <time>2011-12-10T15:13:19Z</time>
      </trkpt>
      <trkpt lat="44.07433" lon="4.04862">
        <ele>168.37</ele>
        <time>2011-12-10T15:13:20Z</time>
      </trkpt>
      <trkpt lat="44.07435" lon="4.04861">
        <ele>168.85</ele>
        <time>2011-12-10T15:13:21Z</time>
      </trkpt>
      <trkpt lat="44.07437" lon="4.04861">
        <ele>169.33</ele>
        <time>2011-12-10T15:13:22Z</time>
      </trkpt>
      <trkpt lat="44.07438" lon="4.04861">
        <ele>168.85</ele>
        <time>2011-12-10T15:13:23Z</time>
      </trkpt>
      <trkpt lat="44.0744" lon="4.0486">
        <ele>170.29</ele>
        <time>2011-12-10T15:13:24Z</time>
      </trkpt>
      <trkpt lat="44.07443" lon="4.04858">
        <ele>169.81</ele>
        <time>2011-12-10T15:13:26Z</time>
      </trkpt>
      <trkpt lat="44.07444" lon="4.04855">
        <ele>169.81</ele>
        <time>2011-12-10T15:13:27Z</time>
      </trkpt>
      <trkpt lat="44.07444" lon="4.04853">
        <ele>169.81</ele>
        <time>2011-12-10T15:13:28Z</time>
      </trkpt>
      <trkpt lat="44.07444" lon="4.0485">
        <ele>169.81</ele>
        <time>2011-12-10T15:13:29Z</time>
      </trkpt>
      <trkpt lat="44.07443" lon="4.04848">
        <ele>170.29</ele>
        <time>2011-12-10T15:13:30Z</time>
      </trkpt>
      <trkpt lat="44.07444" lon="4.04845">
        <ele>170.77</ele>
        <time>2011-12-10T15:13:31Z</time>
      </trkpt>
      <trkpt lat="44.07444" lon="4.04843">
        <ele>170.77</ele>
        <time>2011-12-10T15:13:32Z</time>
      </trkpt>
      <trkpt lat="44.07444" lon="4.04839">
        <ele>171.73</ele>
        <time>2011-12-10T15:13:35Z</time>
      </trkpt>
      <trkpt lat="44.07455" lon="4.04824">
        <ele>175.1</ele>
        <time>2011-12-10T15:13:47Z</time>
      </trkpt>
      <trkpt lat="44.07465" lon="4.0481">
        <ele>177.98</ele>
        <time>2011-12-10T15:13:56Z</time>
      </trkpt>
      <trkpt lat="44.0747" lon="4.04802">
        <ele>180.38</ele>
        <time>2011-12-10T15:14:02Z</time>
      </trkpt>
      <trkpt lat="44.07474" lon="4.04797">
        <ele>182.31</ele>
        <time>2011-12-10T15:14:06Z</time>
      </trkpt>
      <trkpt lat="44.07477" lon="4.04793">
        <ele>183.75</ele>
        <time>2011-12-10T15:14:09Z</time>
      </trkpt>
      <trkpt lat="44.07478" lon="4.04791">
        <ele>183.75</ele>
        <time>2011-12-10T15:14:10Z</time>
      </trkpt>
      <trkpt lat="44.07478" lon="4.0479">
        <ele>184.23</ele>
        <time>2011-12-10T15:14:11Z</time>
      </trkpt>
      <trkpt lat="44.07478" lon="4.04788">
        <ele>184.23</ele>
        <time>2011-12-10T15:14:12Z</time>
      </trkpt>
      <trkpt lat="44.07478" lon="4.04787">
        <ele>184.71</ele>
        <time>2011-12-10T15:14:13Z</time>
      </trkpt>
      <trkpt lat="44.07478" lon="4.04785">
        <ele>184.71</ele>
        <time>2011-12-10T15:14:14Z</time>
      </trkpt>
      <trkpt lat="44.07478" lon="4.04783">
        <ele>185.67</ele>
        <time>2011-12-10T15:14:15Z</time>
      </trkpt>
      <trkpt lat="44.07477" lon="4.04782">
        <ele>185.67</ele>
        <time>2011-12-10T15:14:16Z</time>
      </trkpt>
      <trkpt lat="44.07477" lon="4.0478">
        <ele>186.15</ele>
        <time>2011-12-10T15:14:17Z</time>
      </trkpt>
      <trkpt lat="44.07476" lon="4.04779">
        <ele>186.63</ele>
        <time>2011-12-10T15:14:18Z</time>
      </trkpt>
      <trkpt lat="44.07475" lon="4.04777">
        <ele>186.15</ele>
        <time>2011-12-10T15:14:19Z</time>
      </trkpt>
      <trkpt lat="44.0747" lon="4.04764">
        <ele>188.08</ele>
        <time>2011-12-10T15:14:27Z</time>
      </trkpt>
      <trkpt lat="44.07461" lon="4.04741">
        <ele>189.04</ele>
        <time>2011-12-10T15:14:41Z</time>
      </trkpt>
      <trkpt lat="44.07456" lon="4.04708">
        <ele>191.92</ele>
        <time>2011-12-10T15:14:57Z</time>
      </trkpt>
      <trkpt lat="44.07455" lon="4.04682">
        <ele>195.77</ele>
        <time>2011-12-10T15:15:09Z</time>
      </trkpt>
      <trkpt lat="44.07454" lon="4.04673">
        <ele>196.73</ele>
        <time>2011-12-10T15:15:13Z</time>
      </trkpt>
      <trkpt lat="44.07453" lon="4.04671">
        <ele>196.73</ele>
        <time>2011-12-10T15:15:14Z</time>
      </trkpt>
      <trkpt lat="44.07453" lon="4.04669">
        <ele>196.73</ele>
        <time>2011-12-10T15:15:15Z</time>
      </trkpt>
      <trkpt lat="44.07452" lon="4.04667">
        <ele>197.21</ele>
        <time>2011-12-10T15:15:16Z</time>
      </trkpt>
      <trkpt lat="44.07452" lon="4.04664">
        <ele>197.21</ele>
        <time>2011-12-10T15:15:17Z</time>
      </trkpt>
      <trkpt lat="44.07452" lon="4.04662">
        <ele>197.69</ele>
        <time>2011-12-10T15:15:18Z</time>
      </trkpt>
      <trkpt lat="44.07449" lon="4.04644">
        <ele>199.61</ele>
        <time>2011-12-10T15:15:26Z</time>
      </trkpt>
      <trkpt lat="44.07449" lon="4.04638">
        <ele>200.57</ele>
        <time>2011-12-10T15:15:29Z</time>
      </trkpt>
      <trkpt lat="44.07449" lon="4.04636">
        <ele>200.57</ele>
        <time>2011-12-10T15:15:30Z</time>
      </trkpt>
      <trkpt lat="44.07451" lon="4.04611">
        <ele>204.42</ele>
        <time>2011-12-10T15:15:41Z</time>
      </trkpt>
      <trkpt lat="44.07452" lon="4.04609">
        <ele>203.94</ele>
        <time>2011-12-10T15:15:42Z</time>
      </trkpt>
      <trkpt lat="44.07453" lon="4.04581">
        <ele>205.86</ele>
        <time>2011-12-10T15:15:52Z</time>
      </trkpt>
      <trkpt lat="44.0746" lon="4.04522">
        <ele>207.78</ele>
        <time>2011-12-10T15:16:11Z</time>
      </trkpt>
      <trkpt lat="44.07465" lon="4.04491">
        <ele>206.82</ele>
        <time>2011-12-10T15:16:24Z</time>
      </trkpt>
      <trkpt lat="44.07467" lon="4.0449">
        <ele>206.82</ele>
        <time>2011-12-10T15:16:27Z</time>
      </trkpt>
      <trkpt lat="44.07468" lon="4.04488">
        <ele>206.82</ele>
        <time>2011-12-10T15:16:28Z</time>
      </trkpt>
      <trkpt lat="44.07468" lon="4.04486">
        <ele>206.34</ele>
        <time>2011-12-10T15:16:39Z</time>
      </trkpt>
      <trkpt lat="44.07468" lon="4.04486">
        <ele>206.82</ele>
        <time>2011-12-10T15:17:05Z</time>
      </trkpt>
      <trkpt lat="44.07468" lon="4.04486">
        <ele>206.82</ele>
        <time>2011-12-10T15:17:32Z</time>
      </trkpt>
      <trkpt lat="44.07468" lon="4.04486">
        <ele>206.82</ele>
        <time>2011-12-10T15:18:04Z</time>
      </trkpt>
      <trkpt lat="44.07468" lon="4.04486">
        <ele>206.82</ele>
        <time>2011-12-10T15:18:32Z</time>
      </trkpt>
      <trkpt lat="44.07468" lon="4.04486">
        <ele>206.34</ele>
        <time>2011-12-10T15:19:00Z</time>
      </trkpt>
      <trkpt lat="44.07468" lon="4.04486">
        <ele>206.82</ele>
        <time>2011-12-10T15:19:20Z</time>
      </trkpt>
      <trkpt lat="44.07468" lon="4.04486">
        <ele>206.34</ele>
        <time>2011-12-10T15:19:49Z</time>
      </trkpt>
      <trkpt lat="44.07468" lon="4.04486">
        <ele>206.34</ele>
        <time>2011-12-10T15:20:10Z</time>
      </trkpt>
      <trkpt lat="44.07467" lon="4.04486">
        <ele>206.34</ele>
        <time>2011-12-10T15:20:19Z</time>
      </trkpt>
      <trkpt lat="44.07464" lon="4.04485">
        <ele>206.34</ele>
        <time>2011-12-10T15:20:20Z</time>
      </trkpt>
      <trkpt lat="44.07461" lon="4.04484">
        <ele>205.86</ele>
        <time>2011-12-10T15:20:21Z</time>
      </trkpt>
      <trkpt lat="44.07459" lon="4.04481">
        <ele>205.38</ele>
        <time>2011-12-10T15:20:22Z</time>
      </trkpt>
      <trkpt lat="44.07456" lon="4.04478">
        <ele>205.38</ele>
        <time>2011-12-10T15:20:23Z</time>
      </trkpt>
      <trkpt lat="44.07452" lon="4.04476">
        <ele>205.38</ele>
        <time>2011-12-10T15:20:24Z</time>
      </trkpt>
      <trkpt lat="44.0745" lon="4.04473">
        <ele>205.38</ele>
        <time>2011-12-10T15:20:25Z</time>
      </trkpt>
      <trkpt lat="44.07427" lon="4.0446">
        <ele>205.38</ele>
        <time>2011-12-10T15:20:34Z</time>
      </trkpt>
      <trkpt lat="44.07399" lon="4.04442">
        <ele>206.82</ele>
        <time>2011-12-10T15:20:46Z</time>
      </trkpt>
      <trkpt lat="44.07368" lon="4.04428">
        <ele>206.82</ele>
        <time>2011-12-10T15:20:57Z</time>
      </trkpt>
      <trkpt lat="44.07337" lon="4.04445">
        <ele>208.74</ele>
        <time>2011-12-10T15:21:07Z</time>
      </trkpt>
      <trkpt lat="44.07326" lon="4.04452">
        <ele>209.22</ele>
        <time>2011-12-10T15:21:11Z</time>
      </trkpt>
      <trkpt lat="44.07326" lon="4.04456">
        <ele>209.22</ele>
        <time>2011-12-10T15:21:12Z</time>
      </trkpt>
      <trkpt lat="44.07325" lon="4.0446">
        <ele>208.74</ele>
        <time>2011-12-10T15:21:13Z</time>
      </trkpt>
      <trkpt lat="44.07324" lon="4.04464">
        <ele>208.26</ele>
        <time>2011-12-10T15:21:14Z</time>
      </trkpt>
      <trkpt lat="44.07323" lon="4.04468">
        <ele>208.74</ele>
        <time>2011-12-10T15:21:15Z</time>
      </trkpt>
      <trkpt lat="44.07323" lon="4.04472">
        <ele>208.74</ele>
        <time>2011-12-10T15:21:16Z</time>
      </trkpt>
      <trkpt lat="44.07323" lon="4.04477">
        <ele>208.74</ele>
        <time>2011-12-10T15:21:17Z</time>
      </trkpt>
      <trkpt lat="44.07322" lon="4.04481">
        <ele>208.26</ele>
        <time>2011-12-10T15:21:18Z</time>
      </trkpt>
      <trkpt lat="44.07322" lon="4.04486">
        <ele>208.26</ele>
        <time>2011-12-10T15:21:19Z</time>
      </trkpt>
      <trkpt lat="44.0732" lon="4.04491">
        <ele>207.3</ele>
        <time>2011-12-10T15:21:20Z</time>
      </trkpt>
      <trkpt lat="44.07318" lon="4.04495">
        <ele>207.78</ele>
        <time>2011-12-10T15:21:21Z</time>
      </trkpt>
      <trkpt lat="44.07316" lon="4.045">
        <ele>207.78</ele>
        <time>2011-12-10T15:21:22Z</time>
      </trkpt>
      <trkpt lat="44.07315" lon="4.04505">
        <ele>208.26</ele>
        <time>2011-12-10T15:21:23Z</time>
      </trkpt>
      <trkpt lat="44.07313" lon="4.0451">
        <ele>207.78</ele>
        <time>2011-12-10T15:21:24Z</time>
      </trkpt>
      <trkpt lat="44.07312" lon="4.04515">
        <ele>207.3</ele>
        <time>2011-12-10T15:21:25Z</time>
      </trkpt>
      <trkpt lat="44.07311" lon="4.04521">
        <ele>206.82</ele>
        <time>2011-12-10T15:21:26Z</time>
      </trkpt>
      <trkpt lat="44.0731" lon="4.04526">
        <ele>206.82</ele>
        <time>2011-12-10T15:21:27Z</time>
      </trkpt>
      <trkpt lat="44.07308" lon="4.04532">
        <ele>206.34</ele>
        <time>2011-12-10T15:21:28Z</time>
      </trkpt>
      <trkpt lat="44.07307" lon="4.04539">
        <ele>206.82</ele>
        <time>2011-12-10T15:21:29Z</time>
      </trkpt>
      <trkpt lat="44.07306" lon="4.04545">
        <ele>206.34</ele>
        <time>2011-12-10T15:21:30Z</time>
      </trkpt>
      <trkpt lat="44.07305" lon="4.04552">
        <ele>205.38</ele>
        <time>2011-12-10T15:21:31Z</time>
      </trkpt>
      <trkpt lat="44.07305" lon="4.04559">
        <ele>204.9</ele>
        <time>2011-12-10T15:21:32Z</time>
      </trkpt>
      <trkpt lat="44.07306" lon="4.04567">
        <ele>203.94</ele>
        <time>2011-12-10T15:21:33Z</time>
      </trkpt>
      <trkpt lat="44.07306" lon="4.04575">
        <ele>202.49</ele>
        <time>2011-12-10T15:21:34Z</time>
      </trkpt>
      <trkpt lat="44.07309" lon="4.04588">
        <ele>201.53</ele>
        <time>2011-12-10T15:21:36Z</time>
      </trkpt>
      <trkpt lat="44.07314" lon="4.04598">
        <ele>200.09</ele>
        <time>2011-12-10T15:21:38Z</time>
      </trkpt>
      <trkpt lat="44.07315" lon="4.046">
        <ele>199.61</ele>
        <time>2011-12-10T15:21:39Z</time>
      </trkpt>
      <trkpt lat="44.07324" lon="4.04606">
        <ele>196.73</ele>
        <time>2011-12-10T15:21:43Z</time>
      </trkpt>
      <trkpt lat="44.07333" lon="4.04615">
        <ele>192.88</ele>
        <time>2011-12-10T15:21:46Z</time>
      </trkpt>
      <trkpt lat="44.07339" lon="4.04629">
        <ele>190.96</ele>
        <time>2011-12-10T15:21:50Z</time>
      </trkpt>
      <trkpt lat="44.07342" lon="4.04645">
        <ele>189.52</ele>
        <time>2011-12-10T15:21:54Z</time>
      </trkpt>
      <trkpt lat="44.07337" lon="4.04671">
        <ele>187.59</ele>
        <time>2011-12-10T15:21:58Z</time>
      </trkpt>
      <trkpt lat="44.07333" lon="4.0469">
        <ele>186.15</ele>
        <time>2011-12-10T15:22:01Z</time>
      </trkpt>
      <trkpt lat="44.07333" lon="4.04703">
        <ele>184.23</ele>
        <time>2011-12-10T15:22:03Z</time>
      </trkpt>
      <trkpt lat="44.07329" lon="4.04722">
        <ele>180.87</ele>
        <time>2011-12-10T15:22:08Z</time>
      </trkpt>
      <trkpt lat="44.07329" lon="4.04727">
        <ele>180.87</ele>
        <time>2011-12-10T15:22:09Z</time>
      </trkpt>
      <trkpt lat="44.07327" lon="4.04744">
        <ele>177.98</ele>
        <time>2011-12-10T15:22:14Z</time>
      </trkpt>
      <trkpt lat="44.07327" lon="4.04749">
        <ele>177.98</ele>
        <time>2011-12-10T15:22:16Z</time>
      </trkpt>
      <trkpt lat="44.07322" lon="4.04757">
        <ele>176.54</ele>
        <time>2011-12-10T15:22:20Z</time>
      </trkpt>
      <trkpt lat="44.07318" lon="4.04762">
        <ele>175.58</ele>
        <time>2011-12-10T15:22:22Z</time>
      </trkpt>
      <trkpt lat="44.07323" lon="4.04788">
        <ele>172.21</ele>
        <time>2011-12-10T15:22:29Z</time>
      </trkpt>
      <trkpt lat="44.07326" lon="4.04789">
        <ele>172.21</ele>
        <time>2011-12-10T15:22:30Z</time>
      </trkpt>
      <trkpt lat="44.07335" lon="4.04797">
        <ele>170.77</ele>
        <time>2011-12-10T15:22:33Z</time>
      </trkpt>
      <trkpt lat="44.07341" lon="4.0481">
        <ele>166.45</ele>
        <time>2011-12-10T15:22:40Z</time>
      </trkpt>
      <trkpt lat="44.07335" lon="4.04818">
        <ele>163.56</ele>
        <time>2011-12-10T15:22:44Z</time>
      </trkpt>
      <trkpt lat="44.07335" lon="4.04831">
        <ele>162.12</ele>
        <time>2011-12-10T15:22:47Z</time>
      </trkpt>
      <trkpt lat="44.07339" lon="4.04844">
        <ele>162.12</ele>
        <time>2011-12-10T15:22:56Z</time>
      </trkpt>
      <trkpt lat="44.07352" lon="4.04884">
        <ele>161.16</ele>
        <time>2011-12-10T15:23:06Z</time>
      </trkpt>
      <trkpt lat="44.07363" lon="4.04909">
        <ele>160.68</ele>
        <time>2011-12-10T15:23:12Z</time>
      </trkpt>
      <trkpt lat="44.07365" lon="4.0491">
        <ele>160.68</ele>
        <time>2011-12-10T15:23:13Z</time>
      </trkpt>
      <trkpt lat="44.07367" lon="4.0491">
        <ele>161.16</ele>
        <time>2011-12-10T15:23:14Z</time>
      </trkpt>
      <trkpt lat="44.07377" lon="4.0491">
        <ele>161.64</ele>
        <time>2011-12-10T15:23:18Z</time>
      </trkpt>
      <trkpt lat="44.07379" lon="4.04912">
        <ele>161.16</ele>
        <time>2011-12-10T15:23:19Z</time>
      </trkpt>
      <trkpt lat="44.07382" lon="4.04914">
        <ele>161.16</ele>
        <time>2011-12-10T15:23:20Z</time>
      </trkpt>
      <trkpt lat="44.07385" lon="4.04915">
        <ele>160.68</ele>
        <time>2011-12-10T15:23:21Z</time>
      </trkpt>
      <trkpt lat="44.07388" lon="4.04913">
        <ele>161.16</ele>
        <time>2011-12-10T15:23:22Z</time>
      </trkpt>
      <trkpt lat="44.0739" lon="4.04911">
        <ele>161.64</ele>
        <time>2011-12-10T15:23:23Z</time>
      </trkpt>
      <trkpt lat="44.07391" lon="4.04908">
        <ele>161.16</ele>
        <time>2011-12-10T15:23:24Z</time>
      </trkpt>
      <trkpt lat="44.07392" lon="4.04906">
        <ele>161.16</ele>
        <time>2011-12-10T15:23:25Z</time>
      </trkpt>
      <trkpt lat="44.07392" lon="4.04905">
        <ele>161.64</ele>
        <time>2011-12-10T15:23:26Z</time>
      </trkpt>
      <trkpt lat="44.07393" lon="4.04903">
        <ele>161.16</ele>
        <time>2011-12-10T15:23:27Z</time>
      </trkpt>
      <trkpt lat="44.07394" lon="4.04901">
        <ele>161.16</ele>
        <time>2011-12-10T15:23:28Z</time>
      </trkpt>
      <trkpt lat="44.07397" lon="4.04895">
        <ele>162.12</ele>
        <time>2011-12-10T15:23:31Z</time>
      </trkpt>
      <trkpt lat="44.07398" lon="4.04893">
        <ele>162.12</ele>
        <time>2011-12-10T15:23:32Z</time>
      </trkpt>
      <trkpt lat="44.0741" lon="4.04877">
        <ele>164.52</ele>
        <time>2011-12-10T15:23:43Z</time>
      </trkpt>
      <trkpt lat="44.07412" lon="4.04875">
        <ele>165.48</ele>
        <time>2011-12-10T15:23:45Z</time>
      </trkpt>
      <trkpt lat="44.07423" lon="4.04861">
        <ele>167.41</ele>
        <time>2011-12-10T15:23:55Z</time>
      </trkpt>
      <trkpt lat="44.07431" lon="4.04861">
        <ele>167.89</ele>
        <time>2011-12-10T15:24:01Z</time>
      </trkpt>
      <trkpt lat="44.07436" lon="4.04858">
        <ele>167.89</ele>
        <time>2011-12-10T15:24:06Z</time>
      </trkpt>
      <trkpt lat="44.07439" lon="4.0486">
        <ele>168.85</ele>
        <time>2011-12-10T15:24:08Z</time>
      </trkpt>
      <trkpt lat="44.07445" lon="4.04871">
        <ele>167.41</ele>
        <time>2011-12-10T15:24:12Z</time>
      </trkpt>
      <trkpt lat="44.07446" lon="4.04878">
        <ele>167.41</ele>
        <time>2011-12-10T15:24:13Z</time>
      </trkpt>
      <trkpt lat="44.07446" lon="4.04885">
        <ele>166.45</ele>
        <time>2011-12-10T15:24:14Z</time>
      </trkpt>
      <trkpt lat="44.07449" lon="4.04912">
        <ele>162.6</ele>
        <time>2011-12-10T15:24:17Z</time>
      </trkpt>
      <trkpt lat="44.07453" lon="4.04952">
        <ele>158.75</ele>
        <time>2011-12-10T15:24:20Z</time>
      </trkpt>
      <trkpt lat="44.07457" lon="4.04997">
        <ele>155.87</ele>
        <time>2011-12-10T15:24:23Z</time>
      </trkpt>
      <trkpt lat="44.0746" lon="4.0501">
        <ele>154.91</ele>
        <time>2011-12-10T15:24:24Z</time>
      </trkpt>
      <trkpt lat="44.07465" lon="4.05021">
        <ele>154.91</ele>
        <time>2011-12-10T15:24:25Z</time>
      </trkpt>
      <trkpt lat="44.07468" lon="4.05032">
        <ele>153.95</ele>
        <time>2011-12-10T15:24:26Z</time>
      </trkpt>
      <trkpt lat="44.07469" lon="4.05043">
        <ele>154.43</ele>
        <time>2011-12-10T15:24:27Z</time>
      </trkpt>
      <trkpt lat="44.07467" lon="4.05054">
        <ele>153.47</ele>
        <time>2011-12-10T15:24:28Z</time>
      </trkpt>
      <trkpt lat="44.07463" lon="4.05063">
        <ele>153.47</ele>
        <time>2011-12-10T15:24:29Z</time>
      </trkpt>
      <trkpt lat="44.07459" lon="4.05071">
        <ele>153.95</ele>
        <time>2011-12-10T15:24:30Z</time>
      </trkpt>
      <trkpt lat="44.07453" lon="4.05078">
        <ele>153.95</ele>
        <time>2011-12-10T15:24:31Z</time>
      </trkpt>
      <trkpt lat="44.07446" lon="4.05084">
        <ele>153.47</ele>
        <time>2011-12-10T15:24:32Z</time>
      </trkpt>
      <trkpt lat="44.07439" lon="4.0509">
        <ele>152.51</ele>
        <time>2011-12-10T15:24:33Z</time>
      </trkpt>
      <trkpt lat="44.07379" lon="4.05123">
        <ele>149.62</ele>
        <time>2011-12-10T15:24:42Z</time>
      </trkpt>
      <trkpt lat="44.07377" lon="4.05128">
        <ele>149.14</ele>
        <time>2011-12-10T15:24:43Z</time>
      </trkpt>
      <trkpt lat="44.07377" lon="4.05135">
        <ele>149.14</ele>
        <time>2011-12-10T15:24:44Z</time>
      </trkpt>
      <trkpt lat="44.07378" lon="4.0514">
        <ele>148.66</ele>
        <time>2011-12-10T15:24:45Z</time>
      </trkpt>
      <trkpt lat="44.07379" lon="4.05146">
        <ele>149.14</ele>
        <time>2011-12-10T15:24:46Z</time>
      </trkpt>
      <trkpt lat="44.07382" lon="4.05165">
        <ele>150.1</ele>
        <time>2011-12-10T15:24:49Z</time>
      </trkpt>
      <trkpt lat="44.07383" lon="4.05184">
        <ele>148.66</ele>
        <time>2011-12-10T15:24:52Z</time>
      </trkpt>
      <trkpt lat="44.07383" lon="4.05189">
        <ele>149.14</ele>
        <time>2011-12-10T15:24:53Z</time>
      </trkpt>
      <trkpt lat="44.07383" lon="4.05194">
        <ele>149.62</ele>
        <time>2011-12-10T15:24:54Z</time>
      </trkpt>
      <trkpt lat="44.0738" lon="4.05214">
        <ele>149.62</ele>
        <time>2011-12-10T15:24:59Z</time>
      </trkpt>
      <trkpt lat="44.07379" lon="4.05215">
        <ele>149.62</ele>
        <time>2011-12-10T15:25:00Z</time>
      </trkpt>
      <trkpt lat="44.0737" lon="4.05217">
        <ele>148.66</ele>
        <time>2011-12-10T15:25:04Z</time>
      </trkpt>
      <trkpt lat="44.07368" lon="4.0522">
        <ele>148.66</ele>
        <time>2011-12-10T15:25:05Z</time>
      </trkpt>
      <trkpt lat="44.07368" lon="4.05224">
        <ele>148.66</ele>
        <time>2011-12-10T15:25:06Z</time>
      </trkpt>
      <trkpt lat="44.07363" lon="4.05237">
        <ele>148.66</ele>
        <time>2011-12-10T15:25:10Z</time>
      </trkpt>
      <trkpt lat="44.07361" lon="4.05239">
        <ele>148.66</ele>
        <time>2011-12-10T15:25:11Z</time>
      </trkpt>
      <trkpt lat="44.07359" lon="4.05242">
        <ele>148.18</ele>
        <time>2011-12-10T15:25:12Z</time>
      </trkpt>
      <trkpt lat="44.07357" lon="4.05245">
        <ele>148.66</ele>
        <time>2011-12-10T15:25:13Z</time>
      </trkpt>
      <trkpt lat="44.07355" lon="4.05248">
        <ele>148.18</ele>
        <time>2011-12-10T15:25:14Z</time>
      </trkpt>
      <trkpt lat="44.07332" lon="4.05269">
        <ele>147.7</ele>
        <time>2011-12-10T15:25:25Z</time>
      </trkpt>
      <trkpt lat="44.0733" lon="4.05266">
        <ele>147.7</ele>
        <time>2011-12-10T15:25:26Z</time>
      </trkpt>
      <trkpt lat="44.07328" lon="4.05262">
        <ele>147.7</ele>
        <time>2011-12-10T15:25:27Z</time>
      </trkpt>
      <trkpt lat="44.07327" lon="4.05253">
        <ele>148.18</ele>
        <time>2011-12-10T15:25:29Z</time>
      </trkpt>
      <trkpt lat="44.07329" lon="4.0525">
        <ele>148.18</ele>
        <time>2011-12-10T15:25:30Z</time>
      </trkpt>
      <trkpt lat="44.0733" lon="4.05249">
        <ele>148.18</ele>
        <time>2011-12-10T15:25:31Z</time>
      </trkpt>
      <trkpt lat="44.07331" lon="4.05249">
        <ele>148.18</ele>
        <time>2011-12-10T15:25:44Z</time>
      </trkpt>
    </trkseg>
  </trk>
</gpx>